Time,TemperatureF,DewpointF,PressureIn,WindDirection,WindDirectionDegrees,WindSpeedMPH,WindSpeedGustMPH,Humidity,HourlyPrecipIn,Conditions,Clouds,dailyrainin,SoftwareType,DateUTC
2013-01-07 00:00:00,31.7,22.0,30.18,SSW,202,1.1,1.1,67,0.00,,,0.00,VWS V14.01,2013-01-07 05:00:00,
2013-01-07 00:01:00,31.7,22.0,30.18,SSW,202,1.1,1.3,67,0.00,,,0.00,VWS V14.01,2013-01-07 05:01:00,
2013-01-07 00:02:00,32.1,22.7,30.18,South,180,1.6,1.6,68,0.00,,,0.00,VWS V14.01,2013-01-07 05:02:00,
2013-01-07 00:03:00,31.9,22.2,30.18,SSW,202,1.1,2.5,67,0.00,,,0.00,VWS V14.01,2013-01-07 05:03:00,
2013-01-07 00:04:00,31.7,22.0,30.18,SSW,202,1.1,1.3,67,0.00,,,0.00,VWS V14.01,2013-01-07 05:04:00,
2013-01-07 00:05:00,31.9,22.2,30.18,South,180,1.3,1.3,67,0.00,,,0.00,VWS V14.01,2013-01-07 05:05:00,
2013-01-07 00:06:00,31.9,22.9,30.18,SSE,158,3.4,3.4,69,0.00,,,0.00,VWS V14.01,2013-01-07 05:06:00,
2013-01-07 00:07:00,31.7,22.0,30.18,SE,135,1.1,2.7,67,0.00,,,0.00,VWS V14.01,2013-01-07 05:07:00,
2013-01-07 00:08:00,31.7,22.4,30.18,South,180,0.9,1.1,68,0.00,,,0.00,VWS V14.01,2013-01-07 05:08:00,
2013-01-07 00:09:00,31.9,22.9,30.18,SSE,158,3.1,3.1,69,0.00,,,0.00,VWS V14.01,2013-01-07 05:09:00,
2013-01-07 00:10:00,31.7,22.7,30.18,SSE,158,2.5,3.4,69,0.00,,,0.00,VWS V14.01,2013-01-07 05:10:00,
2013-01-07 00:11:00,31.4,22.4,30.18,SSE,158,2.9,2.9,69,0.00,,,0.00,VWS V14.01,2013-01-07 05:11:00,
2013-01-07 00:12:00,31.5,22.6,30.18,South,180,1.3,2.9,69,0.00,,,0.00,VWS V14.01,2013-01-07 05:12:00,
2013-01-07 00:13:00,31.4,22.4,30.18,SSE,158,3.1,3.1,69,0.00,,,0.00,VWS V14.01,2013-01-07 05:13:00,
2013-01-07 00:14:00,31.4,22.4,30.18,SSE,158,2.9,3.4,69,0.00,,,0.00,VWS V14.01,2013-01-07 05:14:00,
2013-01-07 00:15:00,31.4,22.4,30.18,SSE,158,2.7,2.9,69,0.00,,,0.00,VWS V14.01,2013-01-07 05:15:00,
2013-01-07 00:16:00,31.5,23.6,30.21,SSW,202,0.9,1.6,72,0.00,,,0.00,VWS V14.01,2013-01-07 05:16:00,
2013-01-07 00:17:00,31.2,22.9,30.21,SSE,158,0.0,1.6,71,0.00,,,0.00,VWS V14.01,2013-01-07 05:17:00,
2013-01-07 00:18:00,31.2,22.9,30.21,SSW,202,1.3,2.0,71,0.00,,,0.00,VWS V14.01,2013-01-07 05:18:00,
2013-01-07 00:19:00,31.5,23.6,30.21,SSW,202,1.6,2.7,72,0.00,,,0.00,VWS V14.01,2013-01-07 05:19:00,
2013-01-07 00:20:00,31.4,23.4,30.21,WNW,292,2.0,2.0,72,0.00,,,0.00,VWS V14.01,2013-01-07 05:20:00,
2013-01-07 00:21:00,31.4,23.1,30.21,SSE,158,0.0,0.0,71,0.00,,,0.00,VWS V14.01,2013-01-07 05:21:00,
2013-01-07 00:22:00,31.5,23.6,30.21,SSW,202,0.0,0.0,72,0.00,,,0.00,VWS V14.01,2013-01-07 05:22:00,
2013-01-07 00:23:00,31.5,23.2,30.21,South,180,0.0,0.0,71,0.00,,,0.00,VWS V14.01,2013-01-07 05:23:00,
2013-01-07 00:24:00,29.7,23.4,30.21,SSE,158,3.4,3.4,77,0.00,,,0.00,VWS V14.01,2013-01-07 05:24:00,
2013-01-07 00:25:00,31.4,23.1,30.21,SSE,158,2.5,2.5,71,0.00,,,0.00,VWS V14.01,2013-01-07 05:25:00,
2013-01-07 00:26:00,30.8,22.2,30.21,SSE,158,2.2,2.5,70,0.00,,,0.00,VWS V14.01,2013-01-07 05:26:00,
2013-01-07 00:27:00,31.4,22.7,30.21,SSE,158,1.6,3.1,70,0.00,,,0.00,VWS V14.01,2013-01-07 05:27:00,
2013-01-07 00:28:00,30.8,22.2,30.21,SSE,158,2.5,2.5,70,0.00,,,0.00,VWS V14.01,2013-01-07 05:28:00,
2013-01-07 00:29:00,30.8,22.2,30.21,SSE,158,2.5,2.5,70,0.00,,,0.00,VWS V14.01,2013-01-07 05:29:00,
2013-01-07 00:30:00,30.8,21.9,30.21,SSE,158,2.5,2.7,69,0.00,,,0.00,VWS V14.01,2013-01-07 05:30:00,
2013-01-07 00:31:00,30.1,21.5,30.21,South,180,3.1,3.1,70,0.00,,,0.00,VWS V14.01,2013-01-07 05:31:00,
2013-01-07 00:32:00,30.5,21.5,30.21,SE,135,2.2,2.2,69,0.00,,,0.00,VWS V14.01,2013-01-07 05:32:00,
2013-01-07 00:33:00,30.3,21.4,30.21,SSE,158,2.0,2.2,69,0.00,,,0.00,VWS V14.01,2013-01-07 05:33:00,
2013-01-07 00:34:00,30.1,21.5,30.21,SSE,158,2.5,2.5,70,0.00,,,0.00,VWS V14.01,2013-01-07 05:34:00,
2013-01-07 00:35:00,30.3,22.4,30.21,South,180,2.5,3.1,72,0.00,,,0.00,VWS V14.01,2013-01-07 05:35:00,
2013-01-07 00:36:00,31.0,24.0,30.21,SSE,158,1.6,2.7,75,0.00,,,0.00,VWS V14.01,2013-01-07 05:36:00,
2013-01-07 00:37:00,30.6,23.4,30.21,South,180,1.6,2.0,74,0.00,,,0.00,VWS V14.01,2013-01-07 05:37:00,
2013-01-07 00:38:00,30.8,23.8,30.21,South,180,2.7,2.9,75,0.00,,,0.00,VWS V14.01,2013-01-07 05:38:00,
2013-01-07 00:39:00,31.0,24.0,30.21,SSE,158,2.7,2.7,75,0.00,,,0.00,VWS V14.01,2013-01-07 05:39:00,
2013-01-07 00:40:00,31.2,24.2,30.21,SSE,158,1.3,2.7,75,0.00,,,0.00,VWS V14.01,2013-01-07 05:40:00,
2013-01-07 00:41:00,30.5,22.5,30.21,SE,135,2.0,2.0,72,0.00,,,0.00,VWS V14.01,2013-01-07 05:41:00,
2013-01-07 00:42:00,30.6,23.4,30.21,SE,135,1.6,2.9,74,0.00,,,0.00,VWS V14.01,2013-01-07 05:42:00,
2013-01-07 00:43:00,30.5,22.9,30.21,SE,135,1.1,1.6,73,0.00,,,0.00,VWS V14.01,2013-01-07 05:43:00,
2013-01-07 00:44:00,30.5,22.5,30.21,SE,135,2.0,2.0,72,0.00,,,0.00,VWS V14.01,2013-01-07 05:44:00,
2013-01-07 00:45:00,30.6,22.7,30.21,SE,135,2.2,2.5,72,0.00,,,0.00,VWS V14.01,2013-01-07 05:45:00,
2013-01-07 00:46:00,29.6,21.7,30.21,SSE,158,3.4,3.8,72,0.00,,,0.00,VWS V14.01,2013-01-07 05:46:00,
2013-01-07 00:47:00,30.3,22.7,30.21,SSE,158,3.1,3.6,73,0.00,,,0.00,VWS V14.01,2013-01-07 05:47:00,
2013-01-07 00:48:00,30.1,22.5,30.21,SSE,158,3.1,3.1,73,0.00,,,0.00,VWS V14.01,2013-01-07 05:48:00,
2013-01-07 00:49:00,29.6,21.7,30.21,SSE,158,3.8,3.8,72,0.00,,,0.00,VWS V14.01,2013-01-07 05:49:00,
2013-01-07 00:50:00,28.3,23.2,30.21,South,180,0.0,0.0,81,0.00,,,0.00,VWS V14.01,2013-01-07 05:50:00,
2013-01-07 00:51:00,29.2,22.0,30.21,SSE,158,2.7,2.7,74,0.00,,,0.00,VWS V14.01,2013-01-07 05:51:00,
2013-01-07 00:52:00,29.6,22.3,30.21,SE,135,0.0,1.6,74,0.00,,,0.00,VWS V14.01,2013-01-07 05:52:00,
2013-01-07 00:53:00,29.6,22.3,30.21,SE,135,2.2,2.2,74,0.00,,,0.00,VWS V14.01,2013-01-07 05:53:00,
2013-01-07 00:54:00,29.2,22.0,30.21,SE,135,1.6,2.2,74,0.00,,,0.00,VWS V14.01,2013-01-07 05:54:00,
2013-01-07 00:55:00,29.2,22.0,30.21,SSE,158,2.9,2.9,74,0.00,,,0.00,VWS V14.01,2013-01-07 05:55:00,
2013-01-07 00:56:00,29.2,22.3,30.21,SSE,158,1.6,1.6,75,0.00,,,0.00,VWS V14.01,2013-01-07 05:56:00,
2013-01-07 00:57:00,29.6,22.9,30.21,SSE,158,1.1,2.2,76,0.00,,,0.00,VWS V14.01,2013-01-07 05:57:00,
2013-01-07 00:58:00,29.4,22.8,30.21,SSE,158,1.1,1.3,76,0.00,,,0.00,VWS V14.01,2013-01-07 05:58:00,
2013-01-07 00:59:00,29.2,22.3,30.21,SSE,158,1.6,1.6,75,0.00,,,0.00,VWS V14.01,2013-01-07 05:59:00,
2013-01-07 01:00:00,29.2,22.3,30.21,SSE,158,1.1,1.6,75,0.00,,,0.00,VWS V14.01,2013-01-07 06:00:00,
2013-01-07 01:01:00,29.6,23.2,30.21,SSW,202,1.1,1.1,77,0.00,,,0.00,VWS V14.01,2013-01-07 06:01:00,
2013-01-07 01:02:00,29.0,22.1,30.21,SSE,158,0.0,0.0,75,0.00,,,0.00,VWS V14.01,2013-01-07 06:02:00,
2013-01-07 01:03:00,29.0,22.1,30.21,SSW,202,1.6,1.6,75,0.00,,,0.00,VWS V14.01,2013-01-07 06:03:00,
2013-01-07 01:04:00,29.6,23.2,30.21,SSW,202,1.1,1.6,77,0.00,,,0.00,VWS V14.01,2013-01-07 06:04:00,
2013-01-07 01:05:00,27.8,23.0,30.21,WSW,248,0.0,0.0,82,0.00,,,0.00,VWS V14.01,2013-01-07 06:05:00,
2013-01-07 01:06:00,30.1,24.7,30.21,SSE,158,2.7,3.1,80,0.00,,,0.00,VWS V14.01,2013-01-07 06:06:00,
2013-01-07 01:07:00,29.7,24.0,30.21,SSE,158,4.3,4.3,79,0.00,,,0.00,VWS V14.01,2013-01-07 06:07:00,
2013-01-07 01:08:00,29.7,24.0,30.21,SSE,158,2.9,4.3,79,0.00,,,0.00,VWS V14.01,2013-01-07 06:08:00,
2013-01-07 01:09:00,30.1,24.7,30.21,SSE,158,3.1,3.6,80,0.00,,,0.00,VWS V14.01,2013-01-07 06:09:00,
2013-01-07 01:10:00,30.1,24.7,30.21,SSE,158,1.1,3.1,80,0.00,,,0.00,VWS V14.01,2013-01-07 06:10:00,
2013-01-07 01:11:00,29.9,23.9,30.21,SSE,158,0.0,0.0,78,0.00,,,0.00,VWS V14.01,2013-01-07 06:11:00,
2013-01-07 01:12:00,29.9,24.2,30.21,SSE,158,0.0,0.0,79,0.00,,,0.00,VWS V14.01,2013-01-07 06:12:00,
2013-01-07 01:13:00,29.7,23.7,30.21,SSE,158,0.0,0.0,78,0.00,,,0.00,VWS V14.01,2013-01-07 06:13:00,
2013-01-07 01:14:00,29.9,23.9,30.21,SSE,158,0.0,0.9,78,0.00,,,0.00,VWS V14.01,2013-01-07 06:14:00,
2013-01-07 01:15:00,29.9,23.9,30.21,South,180,0.0,1.6,78,0.00,,,0.00,VWS V14.01,2013-01-07 06:15:00,
2013-01-07 01:16:00,29.7,23.4,30.21,South,180,0.0,0.0,77,0.00,,,0.00,VWS V14.01,2013-01-07 06:16:00,
2013-01-07 01:17:00,29.9,23.6,30.21,South,180,0.0,0.0,77,0.00,,,0.00,VWS V14.01,2013-01-07 06:17:00,
2013-01-07 01:18:00,29.9,23.6,30.21,South,180,0.0,0.0,77,0.00,,,0.00,VWS V14.01,2013-01-07 06:18:00,
2013-01-07 01:19:00,29.7,23.4,30.21,South,180,0.0,0.0,77,0.00,,,0.00,VWS V14.01,2013-01-07 06:19:00,
2013-01-07 01:20:00,29.9,23.6,30.21,South,180,0.0,0.0,77,0.00,,,0.00,VWS V14.01,2013-01-07 06:20:00,
2013-01-07 01:21:00,29.7,23.4,30.21,SSE,158,3.4,3.4,77,0.00,,,0.00,VWS V14.01,2013-01-07 06:21:00,
2013-01-07 01:22:00,29.7,23.4,30.21,SSE,158,3.1,3.1,77,0.00,,,0.00,VWS V14.01,2013-01-07 06:22:00,
2013-01-07 01:23:00,29.7,23.4,30.21,SSE,158,3.1,3.1,77,0.00,,,0.00,VWS V14.01,2013-01-07 06:23:00,
2013-01-07 01:24:00,29.7,23.4,30.21,SSE,158,3.4,3.4,77,0.00,,,0.00,VWS V14.01,2013-01-07 06:24:00,
2013-01-07 01:25:00,29.2,22.6,30.21,SSE,158,3.8,4.3,76,0.00,,,0.00,VWS V14.01,2013-01-07 06:25:00,
2013-01-07 01:26:00,28.5,21.3,30.21,SE,135,0.0,0.0,74,0.00,,,0.00,VWS V14.01,2013-01-07 06:26:00,
2013-01-07 01:27:00,29.0,22.1,30.21,South,180,3.4,3.4,75,0.00,,,0.00,VWS V14.01,2013-01-07 06:27:00,
2013-01-07 01:28:00,29.0,22.1,30.21,SE,135,0.0,3.4,75,0.00,,,0.00,VWS V14.01,2013-01-07 06:28:00,
2013-01-07 01:29:00,28.5,21.3,30.21,SE,135,0.0,0.0,74,0.00,,,0.00,VWS V14.01,2013-01-07 06:29:00,
2013-01-07 01:30:00,28.3,21.1,30.21,SE,135,0.0,0.0,74,0.00,,,0.00,VWS V14.01,2013-01-07 06:30:00,
2013-01-07 01:31:00,28.3,22.0,30.21,South,180,0.0,0.0,77,0.00,,,0.00,VWS V14.01,2013-01-07 06:31:00,
2013-01-07 01:32:00,28.3,21.4,30.21,SSW,202,1.3,2.5,75,0.00,,,0.00,VWS V14.01,2013-01-07 06:32:00,
2013-01-07 01:33:00,28.3,21.4,30.21,SSE,158,2.0,2.5,75,0.00,,,0.00,VWS V14.01,2013-01-07 06:33:00,
2013-01-07 01:34:00,28.3,22.0,30.21,South,180,0.0,2.0,77,0.00,,,0.00,VWS V14.01,2013-01-07 06:34:00,
2013-01-07 01:35:00,28.3,22.3,30.21,South,180,0.0,0.0,78,0.00,,,0.00,VWS V14.01,2013-01-07 06:35:00,
2013-01-07 01:36:00,28.5,23.1,30.21,WSW,248,0.0,0.0,80,0.00,,,0.00,VWS V14.01,2013-01-07 06:36:00,
2013-01-07 01:37:00,28.5,22.8,30.21,WSW,248,0.0,0.0,79,0.00,,,0.00,VWS V14.01,2013-01-07 06:37:00,
2013-01-07 01:38:00,26.9,24.1,30.18,South,180,0.0,0.0,89,0.00,,,0.00,VWS V14.01,2013-01-07 06:38:00,
2013-01-07 01:39:00,28.5,23.1,30.21,WSW,248,0.0,0.0,80,0.00,,,0.00,VWS V14.01,2013-01-07 06:39:00,
2013-01-07 01:40:00,28.5,23.1,30.21,West,270,0.0,0.0,80,0.00,,,0.00,VWS V14.01,2013-01-07 06:40:00,
2013-01-07 01:41:00,28.7,23.9,30.21,WSW,248,2.0,2.0,82,0.00,,,0.00,VWS V14.01,2013-01-07 06:41:00,
2013-01-07 01:42:00,28.5,23.4,30.21,WSW,248,0.0,2.2,81,0.00,,,0.00,VWS V14.01,2013-01-07 06:42:00,
2013-01-07 01:43:00,28.5,23.4,30.21,West,270,0.0,0.0,81,0.00,,,0.00,VWS V14.01,2013-01-07 06:43:00,
2013-01-07 01:44:00,28.7,23.9,30.21,WSW,248,1.6,1.6,82,0.00,,,0.00,VWS V14.01,2013-01-07 06:44:00,
2013-01-07 01:45:00,28.7,23.9,30.21,WSW,248,0.0,2.0,82,0.00,,,0.00,VWS V14.01,2013-01-07 06:45:00,
2013-01-07 01:46:00,28.5,23.7,30.21,South,180,0.0,0.0,82,0.00,,,0.00,VWS V14.01,2013-01-07 06:46:00,
2013-01-07 01:47:00,28.7,23.9,30.21,South,180,0.0,0.0,82,0.00,,,0.00,VWS V14.01,2013-01-07 06:47:00,
2013-01-07 01:48:00,28.5,23.7,30.21,South,180,0.0,0.0,82,0.00,,,0.00,VWS V14.01,2013-01-07 06:48:00,
2013-01-07 01:49:00,28.5,23.7,30.21,South,180,0.0,0.0,82,0.00,,,0.00,VWS V14.01,2013-01-07 06:49:00,
2013-01-07 01:50:00,28.3,23.2,30.21,South,180,0.0,0.0,81,0.00,,,0.00,VWS V14.01,2013-01-07 06:50:00,
2013-01-07 01:51:00,28.1,22.8,30.21,SW,225,1.6,2.5,80,0.00,,,0.00,VWS V14.01,2013-01-07 06:51:00,
2013-01-07 01:52:00,28.1,23.0,30.21,South,180,0.0,0.0,81,0.00,,,0.00,VWS V14.01,2013-01-07 06:52:00,
2013-01-07 01:53:00,28.1,22.8,30.21,South,180,2.5,2.5,80,0.00,,,0.00,VWS V14.01,2013-01-07 06:53:00,
2013-01-07 01:54:00,28.1,22.8,30.21,SW,225,1.6,2.5,80,0.00,,,0.00,VWS V14.01,2013-01-07 06:54:00,
2013-01-07 01:55:00,28.1,22.8,30.21,SE,135,2.0,2.5,80,0.00,,,0.00,VWS V14.01,2013-01-07 06:55:00,
2013-01-07 01:56:00,27.9,22.9,30.21,WSW,248,0.0,0.0,81,0.00,,,0.00,VWS V14.01,2013-01-07 06:56:00,
2013-01-07 01:57:00,28.1,23.0,30.21,WSW,248,0.0,0.0,81,0.00,,,0.00,VWS V14.01,2013-01-07 06:57:00,
2013-01-07 01:58:00,27.9,22.9,30.21,WSW,248,0.0,0.0,81,0.00,,,0.00,VWS V14.01,2013-01-07 06:58:00,
2013-01-07 01:59:00,27.9,22.9,30.21,WSW,248,0.0,0.0,81,0.00,,,0.00,VWS V14.01,2013-01-07 06:59:00,
2013-01-07 02:00:00,27.9,22.9,30.21,WSW,248,0.0,0.0,81,0.00,,,0.00,VWS V14.01,2013-01-07 07:00:00,
2013-01-07 02:01:00,27.9,22.9,30.21,WSW,248,0.0,0.0,81,0.00,,,0.00,VWS V14.01,2013-01-07 07:01:00,
2013-01-07 02:02:00,27.9,22.9,30.21,WSW,248,0.0,0.0,81,0.00,,,0.00,VWS V14.01,2013-01-07 07:02:00,
2013-01-07 02:03:00,27.9,22.9,30.21,WSW,248,0.0,0.0,81,0.00,,,0.00,VWS V14.01,2013-01-07 07:03:00,
2013-01-07 02:04:00,27.9,22.9,30.21,WSW,248,0.0,0.0,81,0.00,,,0.00,VWS V14.01,2013-01-07 07:04:00,
2013-01-07 02:05:00,27.8,23.0,30.21,WSW,248,0.0,0.0,82,0.00,,,0.00,VWS V14.01,2013-01-07 07:05:00,
2013-01-07 02:06:00,27.8,22.7,30.21,WSW,248,0.0,0.0,81,0.00,,,0.00,VWS V14.01,2013-01-07 07:06:00,
2013-01-07 02:07:00,27.8,22.7,30.21,WSW,248,0.0,0.0,81,0.00,,,0.00,VWS V14.01,2013-01-07 07:07:00,
2013-01-07 02:08:00,27.8,22.7,30.21,WSW,248,0.0,0.0,81,0.00,,,0.00,VWS V14.01,2013-01-07 07:08:00,
2013-01-07 02:09:00,27.8,22.7,30.21,WSW,248,0.0,0.0,81,0.00,,,0.00,VWS V14.01,2013-01-07 07:09:00,
2013-01-07 02:10:00,27.8,22.7,30.21,South,180,0.0,0.0,81,0.00,,,0.00,VWS V14.01,2013-01-07 07:10:00,
2013-01-07 02:11:00,27.6,23.1,30.21,South,180,0.0,0.9,83,0.00,,,0.00,VWS V14.01,2013-01-07 07:11:00,
2013-01-07 02:12:00,27.6,22.8,30.21,South,180,2.5,2.7,82,0.00,,,0.00,VWS V14.01,2013-01-07 07:12:00,
2013-01-07 02:13:00,27.6,22.8,30.21,South,180,0.9,2.5,82,0.00,,,0.00,VWS V14.01,2013-01-07 07:13:00,
2013-01-07 02:14:00,27.6,23.1,30.21,South,180,0.0,0.9,83,0.00,,,0.00,VWS V14.01,2013-01-07 07:14:00,
2013-01-07 02:15:00,27.6,23.1,30.21,South,180,0.0,0.0,83,0.00,,,0.00,VWS V14.01,2013-01-07 07:15:00,
2013-01-07 02:16:00,27.2,23.0,30.18,South,180,1.6,1.6,84,0.00,,,0.00,VWS V14.01,2013-01-07 07:16:00,
2013-01-07 02:17:00,27.4,23.2,30.18,South,180,1.3,1.3,84,0.00,,,0.00,VWS V14.01,2013-01-07 07:17:00,
2013-01-07 02:18:00,27.2,23.0,30.18,South,180,0.9,1.3,84,0.00,,,0.00,VWS V14.01,2013-01-07 07:18:00,
2013-01-07 02:19:00,27.2,23.0,30.18,South,180,1.6,1.6,84,0.00,,,0.00,VWS V14.01,2013-01-07 07:19:00,
2013-01-07 02:20:00,27.2,23.0,30.18,South,180,2.0,2.0,84,0.00,,,0.00,VWS V14.01,2013-01-07 07:20:00,
2013-01-07 02:21:00,27.2,23.3,30.18,South,180,0.0,1.6,85,0.00,,,0.00,VWS V14.01,2013-01-07 07:21:00,
2013-01-07 02:22:00,27.2,23.3,30.18,South,180,2.0,2.5,85,0.00,,,0.00,VWS V14.01,2013-01-07 07:22:00,
2013-01-07 02:23:00,27.2,23.3,30.18,South,180,1.6,2.0,85,0.00,,,0.00,VWS V14.01,2013-01-07 07:23:00,
2013-01-07 02:24:00,27.2,23.3,30.18,South,180,0.0,1.6,85,0.00,,,0.00,VWS V14.01,2013-01-07 07:24:00,
2013-01-07 02:25:00,27.2,23.3,30.18,South,180,0.0,0.0,85,0.00,,,0.00,VWS V14.01,2013-01-07 07:25:00,
2013-01-07 02:26:00,26.9,23.5,30.18,South,180,2.2,2.5,87,0.00,,,0.00,VWS V14.01,2013-01-07 07:26:00,
2013-01-07 02:27:00,27.0,23.7,30.18,SSE,158,0.0,0.0,87,0.00,,,0.00,VWS V14.01,2013-01-07 07:27:00,
2013-01-07 02:28:00,27.0,23.7,30.18,SSE,158,2.7,2.7,87,0.00,,,0.00,VWS V14.01,2013-01-07 07:28:00,
2013-01-07 02:29:00,26.9,23.5,30.18,South,180,2.5,2.7,87,0.00,,,0.00,VWS V14.01,2013-01-07 07:29:00,
2013-01-07 02:30:00,26.9,23.5,30.18,South,180,2.2,2.5,87,0.00,,,0.00,VWS V14.01,2013-01-07 07:30:00,
2013-01-07 02:31:00,26.9,23.8,30.18,South,180,0.0,0.0,88,0.00,,,0.00,VWS V14.01,2013-01-07 07:31:00,
2013-01-07 02:32:00,26.9,23.5,30.18,South,180,2.0,2.9,87,0.00,,,0.00,VWS V14.01,2013-01-07 07:32:00,
2013-01-07 02:33:00,26.9,23.8,30.18,South,180,1.3,2.0,88,0.00,,,0.00,VWS V14.01,2013-01-07 07:33:00,
2013-01-07 02:34:00,26.9,23.8,30.18,South,180,0.0,1.3,88,0.00,,,0.00,VWS V14.01,2013-01-07 07:34:00,
2013-01-07 02:35:00,26.9,23.8,30.18,South,180,0.0,0.0,88,0.00,,,0.00,VWS V14.01,2013-01-07 07:35:00,
2013-01-07 02:36:00,26.9,24.1,30.18,South,180,0.0,0.0,89,0.00,,,0.00,VWS V14.01,2013-01-07 07:36:00,
2013-01-07 02:37:00,26.9,24.1,30.18,South,180,0.0,0.0,89,0.00,,,0.00,VWS V14.01,2013-01-07 07:37:00,
2013-01-07 02:38:00,26.9,24.1,30.18,South,180,0.0,0.0,89,0.00,,,0.00,VWS V14.01,2013-01-07 07:38:00,
2013-01-07 02:39:00,26.9,24.1,30.18,South,180,0.0,0.0,89,0.00,,,0.00,VWS V14.01,2013-01-07 07:39:00,
2013-01-07 02:40:00,26.9,24.1,30.18,South,180,0.0,0.0,89,0.00,,,0.00,VWS V14.01,2013-01-07 07:40:00,
2013-01-07 02:41:00,26.9,24.3,30.18,South,180,1.3,1.3,90,0.00,,,0.00,VWS V14.01,2013-01-07 07:41:00,
2013-01-07 02:42:00,26.9,24.1,30.18,South,180,2.5,2.5,89,0.00,,,0.00,VWS V14.01,2013-01-07 07:42:00,
2013-01-07 02:43:00,26.9,24.3,30.18,SSW,202,1.6,2.5,90,0.00,,,0.00,VWS V14.01,2013-01-07 07:43:00,
2013-01-07 02:44:00,26.9,24.3,30.18,SSW,202,1.1,1.6,90,0.00,,,0.00,VWS V14.01,2013-01-07 07:44:00,
2013-01-07 02:45:00,27.2,24.7,30.18,South,180,2.0,2.5,90,0.00,,,0.00,VWS V14.01,2013-01-07 07:45:00,
2013-01-07 02:46:00,27.0,25.0,30.21,WNW,292,0.0,0.0,92,0.00,,,0.00,VWS V14.01,2013-01-07 07:46:00,
2013-01-07 02:47:00,27.0,24.8,30.21,South,180,0.0,1.3,91,0.00,,,0.00,VWS V14.01,2013-01-07 07:47:00,
2013-01-07 02:48:00,27.0,24.8,30.21,WNW,292,0.0,0.0,91,0.00,,,0.00,VWS V14.01,2013-01-07 07:48:00,
2013-01-07 02:49:00,27.0,25.0,30.21,WNW,292,0.0,0.0,92,0.00,,,0.00,VWS V14.01,2013-01-07 07:49:00,
2013-01-07 02:50:00,27.0,25.0,30.21,WNW,292,0.0,0.0,92,0.00,,,0.00,VWS V14.01,2013-01-07 07:50:00,
2013-01-07 02:51:00,27.0,25.0,30.21,South,180,0.0,0.0,92,0.00,,,0.00,VWS V14.01,2013-01-07 07:51:00,
2013-01-07 02:52:00,27.0,25.0,30.21,WNW,292,0.0,0.0,92,0.00,,,0.00,VWS V14.01,2013-01-07 07:52:00,
2013-01-07 02:53:00,27.0,25.0,30.21,SSW,202,0.0,0.0,92,0.00,,,0.00,VWS V14.01,2013-01-07 07:53:00,
2013-01-07 02:54:00,27.0,25.0,30.21,South,180,0.0,0.0,92,0.00,,,0.00,VWS V14.01,2013-01-07 07:54:00,
2013-01-07 02:55:00,27.0,25.0,30.21,South,180,1.6,2.5,92,0.00,,,0.00,VWS V14.01,2013-01-07 07:55:00,
2013-01-07 02:56:00,26.1,23.9,30.21,South,180,2.7,2.7,91,0.00,,,0.00,VWS V14.01,2013-01-07 07:56:00,
2013-01-07 02:57:00,26.9,24.9,30.21,South,180,2.0,2.0,92,0.00,,,0.00,VWS V14.01,2013-01-07 07:57:00,
2013-01-07 02:58:00,26.5,24.5,30.21,South,180,2.9,2.9,92,0.00,,,0.00,VWS V14.01,2013-01-07 07:58:00,
2013-01-07 02:59:00,26.1,23.9,30.21,South,180,2.7,2.9,91,0.00,,,0.00,VWS V14.01,2013-01-07 07:59:00,
2013-01-07 03:00:00,26.1,23.9,30.21,SSW,202,0.9,3.1,91,0.00,,,0.00,VWS V14.01,2013-01-07 08:00:00,
2013-01-07 03:01:00,26.7,24.7,30.24,WSW,248,0.0,0.0,92,0.00,,,0.00,VWS V14.01,2013-01-07 08:01:00,
2013-01-07 03:02:00,26.7,24.7,30.24,WSW,248,0.0,0.0,92,0.00,,,0.00,VWS V14.01,2013-01-07 08:02:00,
2013-01-07 03:03:00,25.4,22.9,30.27,SSE,158,0.0,0.0,90,0.00,,,0.00,VWS V14.01,2013-01-07 08:03:00,
2013-01-07 03:04:00,26.7,24.7,30.24,WSW,248,0.0,0.0,92,0.00,,,0.00,VWS V14.01,2013-01-07 08:04:00,
2013-01-07 03:05:00,26.9,24.9,30.24,WSW,248,0.0,0.0,92,0.00,,,0.00,VWS V14.01,2013-01-07 08:05:00,
2013-01-07 03:06:00,26.9,24.9,30.24,SSE,158,1.3,1.3,92,0.00,,,0.00,VWS V14.01,2013-01-07 08:06:00,
2013-01-07 03:07:00,26.9,24.9,30.24,SSW,202,0.0,0.0,92,0.00,,,0.00,VWS V14.01,2013-01-07 08:07:00,
2013-01-07 03:08:00,26.9,24.9,30.24,SSE,158,2.2,2.7,92,0.00,,,0.00,VWS V14.01,2013-01-07 08:08:00,
2013-01-07 03:09:00,26.9,24.9,30.24,SSE,158,1.3,2.2,92,0.00,,,0.00,VWS V14.01,2013-01-07 08:09:00,
2013-01-07 03:10:00,26.7,24.7,30.24,SSE,158,0.0,1.3,92,0.00,,,0.00,VWS V14.01,2013-01-07 08:10:00,
2013-01-07 03:11:00,26.9,24.9,30.24,SSW,202,1.3,2.0,92,0.00,,,0.00,VWS V14.01,2013-01-07 08:11:00,
2013-01-07 03:12:00,26.3,24.3,30.24,SSW,202,0.9,1.6,92,0.00,,,0.00,VWS V14.01,2013-01-07 08:12:00,
2013-01-07 03:13:00,26.9,24.9,30.24,SSW,202,2.0,2.0,92,0.00,,,0.00,VWS V14.01,2013-01-07 08:13:00,
2013-01-07 03:14:00,26.9,24.9,30.24,SSW,202,1.1,2.0,92,0.00,,,0.00,VWS V14.01,2013-01-07 08:14:00,
2013-01-07 03:15:00,27.2,25.5,30.24,SSW,202,1.1,1.6,93,0.00,,,0.00,VWS V14.01,2013-01-07 08:15:00,
2013-01-07 03:16:00,27.2,26.0,30.24,SSE,158,0.9,1.6,95,0.00,,,0.00,VWS V14.01,2013-01-07 08:16:00,
2013-01-07 03:17:00,27.4,25.9,30.24,SSE,158,2.5,2.5,94,0.00,,,0.00,VWS V14.01,2013-01-07 08:17:00,
2013-01-07 03:18:00,27.4,25.9,30.24,SSE,158,2.0,2.7,94,0.00,,,0.00,VWS V14.01,2013-01-07 08:18:00,
2013-01-07 03:19:00,27.2,26.0,30.24,SSE,158,1.6,2.0,95,0.00,,,0.00,VWS V14.01,2013-01-07 08:19:00,
2013-01-07 03:20:00,27.2,26.0,30.24,SSE,158,0.9,1.6,95,0.00,,,0.00,VWS V14.01,2013-01-07 08:20:00,
2013-01-07 03:21:00,27.2,26.0,30.24,WNW,292,0.9,0.9,95,0.00,,,0.00,VWS V14.01,2013-01-07 08:21:00,
2013-01-07 03:22:00,27.2,26.0,30.24,West,270,0.0,0.0,95,0.00,,,0.00,VWS V14.01,2013-01-07 08:22:00,
2013-01-07 03:23:00,27.2,26.0,30.24,WNW,292,2.0,2.2,95,0.00,,,0.00,VWS V14.01,2013-01-07 08:23:00,
2013-01-07 03:24:00,27.2,26.0,30.24,WNW,292,0.9,2.0,95,0.00,,,0.00,VWS V14.01,2013-01-07 08:24:00,
2013-01-07 03:25:00,27.2,26.2,30.24,WNW,292,1.3,1.3,96,0.00,,,0.00,VWS V14.01,2013-01-07 08:25:00,
2013-01-07 03:26:00,27.0,26.0,30.24,WNW,292,0.0,0.0,96,0.00,,,0.00,VWS V14.01,2013-01-07 08:26:00,
2013-01-07 03:27:00,27.2,26.2,30.24,WNW,292,0.0,0.0,96,0.00,,,0.00,VWS V14.01,2013-01-07 08:27:00,
2013-01-07 03:28:00,27.0,26.0,30.24,WNW,292,0.0,0.0,96,0.00,,,0.00,VWS V14.01,2013-01-07 08:28:00,
2013-01-07 03:29:00,27.0,26.0,30.24,WNW,292,0.0,0.0,96,0.00,,,0.00,VWS V14.01,2013-01-07 08:29:00,
2013-01-07 03:30:00,26.9,25.9,30.24,SE,135,1.1,1.3,96,0.00,,,0.00,VWS V14.01,2013-01-07 08:30:00,
2013-01-07 03:31:00,26.9,25.6,30.24,South,180,0.0,0.0,95,0.00,,,0.00,VWS V14.01,2013-01-07 08:31:00,
2013-01-07 03:32:00,26.9,25.6,30.24,SW,225,0.0,0.0,95,0.00,,,0.00,VWS V14.01,2013-01-07 08:32:00,
2013-01-07 03:33:00,26.9,25.6,30.24,SW,225,0.0,0.0,95,0.00,,,0.00,VWS V14.01,2013-01-07 08:33:00,
2013-01-07 03:34:00,26.9,25.6,30.24,South,180,0.0,0.0,95,0.00,,,0.00,VWS V14.01,2013-01-07 08:34:00,
2013-01-07 03:35:00,26.9,25.6,30.24,South,180,0.9,0.9,95,0.00,,,0.00,VWS V14.01,2013-01-07 08:35:00,
2013-01-07 03:36:00,27.2,26.0,30.24,SSW,202,0.0,0.0,95,0.00,,,0.00,VWS V14.01,2013-01-07 08:36:00,
2013-01-07 03:37:00,26.9,25.6,30.24,South,180,0.0,2.0,95,0.00,,,0.00,VWS V14.01,2013-01-07 08:37:00,
2013-01-07 03:38:00,27.2,26.0,30.24,SSW,202,0.0,0.0,95,0.00,,,0.00,VWS V14.01,2013-01-07 08:38:00,
2013-01-07 03:39:00,27.2,26.0,30.24,SSW,202,0.0,0.0,95,0.00,,,0.00,VWS V14.01,2013-01-07 08:39:00,
2013-01-07 03:40:00,27.2,26.0,30.24,SSW,202,0.0,0.0,95,0.00,,,0.00,VWS V14.01,2013-01-07 08:40:00,
2013-01-07 03:41:00,26.7,25.4,30.24,SE,135,0.0,0.0,95,0.00,,,0.00,VWS V14.01,2013-01-07 08:41:00,
2013-01-07 03:42:00,27.2,26.2,30.24,SSW,202,0.0,0.0,96,0.00,,,0.00,VWS V14.01,2013-01-07 08:42:00,
2013-01-07 03:43:00,26.9,25.9,30.24,South,180,0.0,0.0,96,0.00,,,0.00,VWS V14.01,2013-01-07 08:43:00,
2013-01-07 03:44:00,26.7,25.4,30.24,SE,135,0.0,0.0,95,0.00,,,0.00,VWS V14.01,2013-01-07 08:44:00,
2013-01-07 03:45:00,26.7,25.4,30.24,SE,135,0.0,0.0,95,0.00,,,0.00,VWS V14.01,2013-01-07 08:45:00,
2013-01-07 03:46:00,26.1,24.6,30.24,SSE,158,0.0,0.0,94,0.00,,,0.00,VWS V14.01,2013-01-07 08:46:00,
2013-01-07 03:47:00,26.3,25.1,30.24,SSE,158,1.6,2.0,95,0.00,,,0.00,VWS V14.01,2013-01-07 08:47:00,
2013-01-07 03:48:00,26.3,24.8,30.24,SSE,158,0.9,1.6,94,0.00,,,0.00,VWS V14.01,2013-01-07 08:48:00,
2013-01-07 03:49:00,26.1,24.6,30.24,SSE,158,0.0,0.9,94,0.00,,,0.00,VWS V14.01,2013-01-07 08:49:00,
2013-01-07 03:50:00,26.1,24.6,30.24,SSE,158,0.0,0.0,94,0.00,,,0.00,VWS V14.01,2013-01-07 08:50:00,
2013-01-07 03:51:00,26.0,24.0,30.24,SSE,158,0.0,0.0,92,0.00,,,0.00,VWS V14.01,2013-01-07 08:51:00,
2013-01-07 03:52:00,26.1,24.4,30.24,SSE,158,0.0,0.0,93,0.00,,,0.00,VWS V14.01,2013-01-07 08:52:00,
2013-01-07 03:53:00,26.1,24.4,30.24,SSE,158,0.0,0.0,93,0.00,,,0.00,VWS V14.01,2013-01-07 08:53:00,
2013-01-07 03:54:00,26.0,24.0,30.24,SSE,158,0.0,0.0,92,0.00,,,0.00,VWS V14.01,2013-01-07 08:54:00,
2013-01-07 03:55:00,25.8,23.8,30.24,SSE,158,0.0,0.0,92,0.00,,,0.00,VWS V14.01,2013-01-07 08:55:00,
2013-01-07 03:56:00,25.6,23.3,30.24,SSE,158,0.0,0.0,91,0.00,,,0.00,VWS V14.01,2013-01-07 08:56:00,
2013-01-07 03:57:00,25.8,23.5,30.24,SSE,158,0.0,0.0,91,0.00,,,0.00,VWS V14.01,2013-01-07 08:57:00,
2013-01-07 03:58:00,25.6,23.3,30.24,SSE,158,0.0,0.0,91,0.00,,,0.00,VWS V14.01,2013-01-07 08:58:00,
2013-01-07 03:59:00,25.6,23.3,30.24,SSE,158,0.0,0.0,91,0.00,,,0.00,VWS V14.01,2013-01-07 08:59:00,
2013-01-07 04:00:00,25.6,23.3,30.24,SSE,158,0.0,0.0,91,0.00,,,0.00,VWS V14.01,2013-01-07 09:00:00,
2013-01-07 04:01:00,25.4,22.9,30.27,SSE,158,0.0,0.0,90,0.00,,,0.00,VWS V14.01,2013-01-07 09:01:00,
2013-01-07 04:02:00,25.4,22.9,30.27,SSE,158,0.0,0.0,90,0.00,,,0.00,VWS V14.01,2013-01-07 09:02:00,
2013-01-07 04:03:00,25.4,22.9,30.27,SSE,158,0.0,0.0,90,0.00,,,0.00,VWS V14.01,2013-01-07 09:03:00,
2013-01-07 04:04:00,25.4,22.9,30.27,SSE,158,0.0,0.0,90,0.00,,,0.00,VWS V14.01,2013-01-07 09:04:00,
2013-01-07 04:05:00,25.4,22.9,30.27,SSE,158,0.0,0.0,90,0.00,,,0.00,VWS V14.01,2013-01-07 09:05:00,
2013-01-07 04:06:00,25.4,22.9,30.27,WSW,248,0.0,0.0,90,0.00,,,0.00,VWS V14.01,2013-01-07 09:06:00,
2013-01-07 04:07:00,25.4,22.9,30.27,WSW,248,0.0,0.0,90,0.00,,,0.00,VWS V14.01,2013-01-07 09:07:00,
2013-01-07 04:08:00,25.4,22.9,30.27,WSW,248,0.0,0.0,90,0.00,,,0.00,VWS V14.01,2013-01-07 09:08:00,
2013-01-07 04:09:00,25.4,22.9,30.27,WSW,248,0.0,0.0,90,0.00,,,0.00,VWS V14.01,2013-01-07 09:09:00,
2013-01-07 04:10:00,25.4,22.9,30.27,WSW,248,0.0,0.0,90,0.00,,,0.00,VWS V14.01,2013-01-07 09:10:00,
2013-01-07 04:11:00,24.9,22.1,30.27,South,180,2.5,2.5,89,0.00,,,0.00,VWS V14.01,2013-01-07 09:11:00,
2013-01-07 04:12:00,25.2,22.7,30.27,South,180,0.0,0.0,90,0.00,,,0.00,VWS V14.01,2013-01-07 09:12:00,
2013-01-07 04:13:00,25.2,22.7,30.27,South,180,0.0,0.0,90,0.00,,,0.00,VWS V14.01,2013-01-07 09:13:00,
2013-01-07 04:14:00,24.9,22.1,30.27,South,180,2.5,2.5,89,0.00,,,0.00,VWS V14.01,2013-01-07 09:14:00,
2013-01-07 04:15:00,24.7,21.9,30.27,South,180,2.7,2.9,89,0.00,,,0.00,VWS V14.01,2013-01-07 09:15:00,
2013-01-07 04:16:00,25.4,22.9,30.30,SSW,202,0.0,0.0,90,0.00,,,0.00,VWS V14.01,2013-01-07 09:16:00,
2013-01-07 04:17:00,24.7,21.9,30.27,SSW,202,0.9,2.5,89,0.00,,,0.00,VWS V14.01,2013-01-07 09:17:00,
2013-01-07 04:18:00,25.2,22.5,30.30,SSW,202,0.0,0.9,89,0.00,,,0.00,VWS V14.01,2013-01-07 09:18:00,
2013-01-07 04:19:00,25.4,22.9,30.30,SSW,202,0.0,0.0,90,0.00,,,0.00,VWS V14.01,2013-01-07 09:19:00,
2013-01-07 04:20:00,25.2,22.7,30.30,SSW,202,0.0,0.0,90,0.00,,,0.00,VWS V14.01,2013-01-07 09:20:00,
2013-01-07 04:21:00,25.2,23.2,30.30,SSW,202,0.0,0.0,92,0.00,,,0.00,VWS V14.01,2013-01-07 09:21:00,
2013-01-07 04:22:00,25.2,22.7,30.30,SSW,202,0.0,0.0,90,0.00,,,0.00,VWS V14.01,2013-01-07 09:22:00,
2013-01-07 04:23:00,25.2,23.0,30.30,SSW,202,0.0,0.0,91,0.00,,,0.00,VWS V14.01,2013-01-07 09:23:00,
2013-01-07 04:24:00,25.2,23.2,30.30,SSW,202,0.0,0.0,92,0.00,,,0.00,VWS V14.01,2013-01-07 09:24:00,
2013-01-07 04:25:00,25.2,23.2,30.30,SSW,202,0.0,0.0,92,0.00,,,0.00,VWS V14.01,2013-01-07 09:25:00,
2013-01-07 04:26:00,25.2,23.5,30.30,SSW,202,0.0,0.0,93,0.00,,,0.00,VWS V14.01,2013-01-07 09:26:00,
2013-01-07 04:27:00,25.2,23.2,30.30,SSW,202,0.0,0.0,92,0.00,,,0.00,VWS V14.01,2013-01-07 09:27:00,
2013-01-07 04:28:00,25.2,23.2,30.30,SSW,202,0.0,0.0,92,0.00,,,0.00,VWS V14.01,2013-01-07 09:28:00,
2013-01-07 04:29:00,25.2,23.5,30.30,SSW,202,0.0,0.0,93,0.00,,,0.00,VWS V14.01,2013-01-07 09:29:00,
2013-01-07 04:30:00,25.1,23.3,30.30,SSW,202,0.0,0.0,93,0.00,,,0.00,VWS V14.01,2013-01-07 09:30:00,
2013-01-07 04:31:00,24.5,22.5,30.27,SSW,202,0.0,0.0,92,0.00,,,0.00,VWS V14.01,2013-01-07 09:31:00,
2013-01-07 04:32:00,25.1,23.1,30.27,SSW,202,0.0,0.0,92,0.00,,,0.00,VWS V14.01,2013-01-07 09:32:00,
2013-01-07 04:33:00,24.5,22.5,30.27,SSW,202,0.0,0.0,92,0.00,,,0.00,VWS V14.01,2013-01-07 09:33:00,
2013-01-07 04:34:00,24.5,22.5,30.27,SSW,202,0.0,0.0,92,0.00,,,0.00,VWS V14.01,2013-01-07 09:34:00,
2013-01-07 04:35:00,24.3,22.4,30.27,SSW,202,0.0,0.0,92,0.00,,,0.00,VWS V14.01,2013-01-07 09:35:00,
2013-01-07 04:36:00,24.7,22.5,30.27,SSW,202,0.0,0.0,91,0.00,,,0.00,VWS V14.01,2013-01-07 09:36:00,
2013-01-07 04:37:00,24.5,22.3,30.27,SSW,202,0.0,0.0,91,0.00,,,0.00,VWS V14.01,2013-01-07 09:37:00,
2013-01-07 04:38:00,24.5,22.3,30.27,SSW,202,0.0,0.0,91,0.00,,,0.00,VWS V14.01,2013-01-07 09:38:00,
2013-01-07 04:39:00,24.7,22.5,30.27,SSW,202,0.0,0.0,91,0.00,,,0.00,VWS V14.01,2013-01-07 09:39:00,
2013-01-07 04:40:00,24.7,22.5,30.27,SSW,202,0.0,0.0,91,0.00,,,0.00,VWS V14.01,2013-01-07 09:40:00,
2013-01-07 04:41:00,24.7,22.7,30.27,SSW,202,0.0,0.0,92,0.00,,,0.00,VWS V14.01,2013-01-07 09:41:00,
2013-01-07 04:42:00,24.7,22.5,30.27,SSW,202,0.0,0.0,91,0.00,,,0.00,VWS V14.01,2013-01-07 09:42:00,
2013-01-07 04:43:00,24.7,22.5,30.27,SSW,202,0.0,0.0,91,0.00,,,0.00,VWS V14.01,2013-01-07 09:43:00,
2013-01-07 04:44:00,24.7,22.7,30.27,SSW,202,0.0,0.0,92,0.00,,,0.00,VWS V14.01,2013-01-07 09:44:00,
2013-01-07 04:45:00,24.5,22.5,30.27,SSW,202,0.0,0.0,92,0.00,,,0.00,VWS V14.01,2013-01-07 09:45:00,
2013-01-07 04:46:00,24.3,22.4,30.27,SSW,202,0.0,0.0,92,0.00,,,0.00,VWS V14.01,2013-01-07 09:46:00,
2013-01-07 04:47:00,24.3,22.4,30.27,SSW,202,0.0,0.0,92,0.00,,,0.00,VWS V14.01,2013-01-07 09:47:00,
2013-01-07 04:48:00,24.3,22.4,30.27,SSW,202,0.0,0.0,92,0.00,,,0.00,VWS V14.01,2013-01-07 09:48:00,
2013-01-07 04:49:00,24.3,22.4,30.27,SSW,202,0.0,0.0,92,0.00,,,0.00,VWS V14.01,2013-01-07 09:49:00,
2013-01-07 04:50:00,24.0,21.7,30.27,SSW,202,0.0,0.0,91,0.00,,,0.00,VWS V14.01,2013-01-07 09:50:00,
2013-01-07 04:51:00,24.3,22.4,30.27,SSW,202,0.0,0.0,92,0.00,,,0.00,VWS V14.01,2013-01-07 09:51:00,
2013-01-07 04:52:00,24.2,21.9,30.27,SSW,202,0.0,0.0,91,0.00,,,0.00,VWS V14.01,2013-01-07 09:52:00,
2013-01-07 04:53:00,24.0,21.7,30.27,SSW,202,0.0,0.0,91,0.00,,,0.00,VWS V14.01,2013-01-07 09:53:00,
2013-01-07 04:54:00,24.0,21.7,30.27,SSW,202,0.0,0.0,91,0.00,,,0.00,VWS V14.01,2013-01-07 09:54:00,
2013-01-07 04:55:00,23.4,21.0,30.27,SSW,202,0.0,0.0,90,0.00,,,0.00,VWS V14.01,2013-01-07 09:55:00,
2013-01-07 04:56:00,23.8,21.6,30.27,SSW,202,0.0,0.0,91,0.00,,,0.00,VWS V14.01,2013-01-07 09:56:00,
2013-01-07 04:57:00,23.8,21.6,30.27,SSW,202,0.0,0.0,91,0.00,,,0.00,VWS V14.01,2013-01-07 09:57:00,
2013-01-07 04:58:00,23.8,21.6,30.27,SSW,202,0.0,0.0,91,0.00,,,0.00,VWS V14.01,2013-01-07 09:58:00,
2013-01-07 04:59:00,23.4,20.9,30.27,SSW,202,0.0,0.0,90,0.00,,,0.00,VWS V14.01,2013-01-07 09:59:00,
2013-01-07 05:00:00,23.8,21.3,30.27,South,180,1.6,2.5,90,0.00,,,0.00,VWS V14.01,2013-01-07 10:00:00,
2013-01-07 05:01:00,23.6,20.9,30.27,SSW,202,0.0,0.0,89,0.00,,,0.00,VWS V14.01,2013-01-07 10:01:00,
2013-01-07 05:02:00,23.8,21.3,30.27,SSW,202,0.0,0.0,90,0.00,,,0.00,VWS V14.01,2013-01-07 10:02:00,
2013-01-07 05:03:00,23.8,21.3,30.27,South,180,2.5,2.5,90,0.00,,,0.00,VWS V14.01,2013-01-07 10:03:00,
2013-01-07 05:04:00,23.8,21.3,30.27,South,180,1.6,2.5,90,0.00,,,0.00,VWS V14.01,2013-01-07 10:04:00,
2013-01-07 05:05:00,24.2,22.2,30.27,South,180,0.0,0.0,92,0.00,,,0.00,VWS V14.01,2013-01-07 10:05:00,
2013-01-07 05:06:00,24.2,21.9,30.27,South,180,0.0,0.0,91,0.00,,,0.00,VWS V14.01,2013-01-07 10:06:00,
2013-01-07 05:07:00,24.2,21.9,30.27,South,180,0.0,0.0,91,0.00,,,0.00,VWS V14.01,2013-01-07 10:07:00,
2013-01-07 05:08:00,24.2,21.9,30.27,South,180,0.0,0.0,91,0.00,,,0.00,VWS V14.01,2013-01-07 10:08:00,
2013-01-07 05:09:00,24.2,22.2,30.27,South,180,0.0,0.0,92,0.00,,,0.00,VWS V14.01,2013-01-07 10:09:00,
2013-01-07 05:10:00,24.2,22.4,30.27,South,180,0.0,0.0,93,0.00,,,0.00,VWS V14.01,2013-01-07 10:10:00,
2013-01-07 05:11:00,24.3,22.4,30.27,South,180,0.0,0.0,92,0.00,,,0.00,VWS V14.01,2013-01-07 10:11:00,
2013-01-07 05:12:00,24.3,22.4,30.27,South,180,0.0,0.0,92,0.00,,,0.00,VWS V14.01,2013-01-07 10:12:00,
2013-01-07 05:13:00,24.3,22.4,30.27,South,180,0.0,0.0,92,0.00,,,0.00,VWS V14.01,2013-01-07 10:13:00,
2013-01-07 05:14:00,24.2,22.4,30.27,South,180,0.0,0.0,93,0.00,,,0.00,VWS V14.01,2013-01-07 10:14:00,
2013-01-07 05:15:00,23.6,21.6,30.27,South,180,0.0,0.0,92,0.00,,,0.00,VWS V14.01,2013-01-07 10:15:00,
2013-01-07 05:16:00,23.8,22.1,30.27,South,180,0.0,0.0,93,0.00,,,0.00,VWS V14.01,2013-01-07 10:16:00,
2013-01-07 05:17:00,23.8,22.1,30.27,South,180,0.0,0.0,93,0.00,,,0.00,VWS V14.01,2013-01-07 10:17:00,
2013-01-07 05:18:00,23.6,21.9,30.27,South,180,0.0,0.0,93,0.00,,,0.00,VWS V14.01,2013-01-07 10:18:00,
2013-01-07 05:19:00,23.6,21.6,30.27,South,180,0.0,0.0,92,0.00,,,0.00,VWS V14.01,2013-01-07 10:19:00,
2013-01-07 05:20:00,22.9,20.1,30.27,South,180,0.0,0.0,89,0.00,,,0.00,VWS V14.01,2013-01-07 10:20:00,
2013-01-07 05:21:00,23.3,21.3,30.27,South,180,0.0,0.0,92,0.00,,,0.00,VWS V14.01,2013-01-07 10:21:00,
2013-01-07 05:22:00,22.7,20.2,30.27,South,180,0.0,0.0,90,0.00,,,0.00,VWS V14.01,2013-01-07 10:22:00,
2013-01-07 05:23:00,22.7,20.0,30.27,South,180,0.0,0.0,89,0.00,,,0.00,VWS V14.01,2013-01-07 10:23:00,
2013-01-07 05:24:00,22.9,20.1,30.27,South,180,0.0,0.0,89,0.00,,,0.00,VWS V14.01,2013-01-07 10:24:00,
2013-01-07 05:25:00,23.6,21.1,30.27,SSW,202,0.0,0.0,90,0.00,,,0.00,VWS V14.01,2013-01-07 10:25:00,
2013-01-07 05:26:00,22.9,20.1,30.27,SSW,202,0.0,0.9,89,0.00,,,0.00,VWS V14.01,2013-01-07 10:26:00,
2013-01-07 05:27:00,23.6,20.9,30.27,SSW,202,0.0,0.0,89,0.00,,,0.00,VWS V14.01,2013-01-07 10:27:00,
2013-01-07 05:28:00,23.6,21.1,30.27,SSW,202,0.0,0.0,90,0.00,,,0.00,VWS V14.01,2013-01-07 10:28:00,
2013-01-07 05:29:00,23.8,21.6,30.27,SSW,202,0.0,0.0,91,0.00,,,0.00,VWS V14.01,2013-01-07 10:29:00,
2013-01-07 05:30:00,24.3,22.6,30.27,SSW,202,0.0,0.0,93,0.00,,,0.00,VWS V14.01,2013-01-07 10:30:00,
2013-01-07 05:31:00,24.2,21.9,30.27,SSW,202,0.0,0.0,91,0.00,,,0.00,VWS V14.01,2013-01-07 10:31:00,
2013-01-07 05:32:00,24.3,22.4,30.27,SSW,202,0.0,0.0,92,0.00,,,0.00,VWS V14.01,2013-01-07 10:32:00,
2013-01-07 05:33:00,24.3,22.6,30.27,SSW,202,0.0,0.0,93,0.00,,,0.00,VWS V14.01,2013-01-07 10:33:00,
2013-01-07 05:34:00,24.3,22.6,30.27,SSW,202,0.0,0.0,93,0.00,,,0.00,VWS V14.01,2013-01-07 10:34:00,
2013-01-07 05:35:00,24.0,22.5,30.27,South,180,2.5,2.7,94,0.00,,,0.00,VWS V14.01,2013-01-07 10:35:00,
2013-01-07 05:36:00,24.0,22.2,30.27,South,180,1.6,1.6,93,0.00,,,0.00,VWS V14.01,2013-01-07 10:36:00,
2013-01-07 05:37:00,24.0,22.5,30.27,South,180,2.9,2.9,94,0.00,,,0.00,VWS V14.01,2013-01-07 10:37:00,
2013-01-07 05:38:00,24.0,22.5,30.27,South,180,2.5,3.4,94,0.00,,,0.00,VWS V14.01,2013-01-07 10:38:00,
2013-01-07 05:39:00,24.0,22.5,30.27,South,180,2.5,2.7,94,0.00,,,0.00,VWS V14.01,2013-01-07 10:39:00,
2013-01-07 05:40:00,24.0,22.8,30.27,South,180,0.0,0.0,95,0.00,,,0.00,VWS V14.01,2013-01-07 10:40:00,
2013-01-07 05:41:00,24.2,22.9,30.27,South,180,0.0,1.6,95,0.00,,,0.00,VWS V14.01,2013-01-07 10:41:00,
2013-01-07 05:42:00,24.0,22.8,30.27,South,180,0.0,0.0,95,0.00,,,0.00,VWS V14.01,2013-01-07 10:42:00,
2013-01-07 05:43:00,24.0,22.8,30.27,South,180,0.0,0.0,95,0.00,,,0.00,VWS V14.01,2013-01-07 10:43:00,
2013-01-07 05:44:00,23.8,22.6,30.27,South,180,0.0,0.0,95,0.00,,,0.00,VWS V14.01,2013-01-07 10:44:00,
2013-01-07 05:45:00,23.4,22.2,30.27,South,180,0.0,0.0,95,0.00,,,0.00,VWS V14.01,2013-01-07 10:45:00,
2013-01-07 05:46:00,23.8,22.6,30.27,South,180,0.0,0.0,95,0.00,,,0.00,VWS V14.01,2013-01-07 10:46:00,
2013-01-07 05:47:00,23.8,22.6,30.27,South,180,0.0,0.0,95,0.00,,,0.00,VWS V14.01,2013-01-07 10:47:00,
2013-01-07 05:48:00,23.6,22.4,30.27,South,180,0.0,0.0,95,0.00,,,0.00,VWS V14.01,2013-01-07 10:48:00,
2013-01-07 05:49:00,23.4,22.2,30.27,South,180,0.0,0.0,95,0.00,,,0.00,VWS V14.01,2013-01-07 10:49:00,
2013-01-07 05:50:00,24.3,23.1,30.27,South,180,0.0,0.0,95,0.00,,,0.00,VWS V14.01,2013-01-07 10:50:00,
2013-01-07 05:51:00,23.6,22.1,30.27,South,180,0.0,0.0,94,0.00,,,0.00,VWS V14.01,2013-01-07 10:51:00,
2013-01-07 05:52:00,23.8,22.6,30.27,South,180,0.0,0.0,95,0.00,,,0.00,VWS V14.01,2013-01-07 10:52:00,
2013-01-07 05:53:00,24.0,22.5,30.27,South,180,0.0,0.0,94,0.00,,,0.00,VWS V14.01,2013-01-07 10:53:00,
2013-01-07 05:54:00,24.3,23.1,30.27,South,180,0.0,0.0,95,0.00,,,0.00,VWS V14.01,2013-01-07 10:54:00,
2013-01-07 05:55:00,24.2,23.2,30.27,SSW,202,0.0,0.0,96,0.00,,,0.00,VWS V14.01,2013-01-07 10:55:00,
2013-01-07 05:56:00,24.5,23.5,30.27,SSW,202,0.0,0.0,96,0.00,,,0.00,VWS V14.01,2013-01-07 10:56:00,
2013-01-07 05:57:00,24.7,23.7,30.27,SSW,202,0.0,0.0,96,0.00,,,0.00,VWS V14.01,2013-01-07 10:57:00,
2013-01-07 05:58:00,24.3,23.4,30.27,SSW,202,0.0,0.0,96,0.00,,,0.00,VWS V14.01,2013-01-07 10:58:00,
2013-01-07 05:59:00,24.0,23.0,30.27,SSW,202,0.0,0.0,96,0.00,,,0.00,VWS V14.01,2013-01-07 10:59:00,
2013-01-07 06:00:00,23.3,22.0,30.30,SSW,202,0.0,0.0,95,0.00,,,0.00,VWS V14.01,2013-01-07 11:00:00,
2013-01-07 06:01:00,23.4,22.5,30.27,SSW,202,0.0,0.0,96,0.00,,,0.00,VWS V14.01,2013-01-07 11:01:00,
2013-01-07 06:02:00,23.4,22.5,30.30,SSW,202,0.0,0.0,96,0.00,,,0.00,VWS V14.01,2013-01-07 11:02:00,
2013-01-07 06:03:00,23.3,22.0,30.30,SSW,202,0.0,0.0,95,0.00,,,0.00,VWS V14.01,2013-01-07 11:03:00,
2013-01-07 06:04:00,23.3,22.0,30.30,SSW,202,0.0,0.0,95,0.00,,,0.00,VWS V14.01,2013-01-07 11:04:00,
2013-01-07 06:05:00,23.3,21.5,30.30,SSW,202,0.0,0.0,93,0.00,,,0.00,VWS V14.01,2013-01-07 11:05:00,
2013-01-07 06:06:00,23.3,21.8,30.30,SSW,202,0.0,0.0,94,0.00,,,0.00,VWS V14.01,2013-01-07 11:06:00,
2013-01-07 06:07:00,23.3,21.8,30.30,SSW,202,0.0,0.0,94,0.00,,,0.00,VWS V14.01,2013-01-07 11:07:00,
2013-01-07 06:08:00,23.3,21.8,30.30,SSW,202,0.0,0.0,94,0.00,,,0.00,VWS V14.01,2013-01-07 11:08:00,
2013-01-07 06:09:00,23.3,21.5,30.30,SSW,202,0.0,0.0,93,0.00,,,0.00,VWS V14.01,2013-01-07 11:09:00,
2013-01-07 06:10:00,22.7,20.8,30.30,South,180,0.0,0.0,92,0.00,,,0.00,VWS V14.01,2013-01-07 11:10:00,
2013-01-07 06:11:00,22.9,21.2,30.30,SSW,202,0.0,0.0,93,0.00,,,0.00,VWS V14.01,2013-01-07 11:11:00,
2013-01-07 06:12:00,22.7,20.8,30.30,SSW,202,0.0,0.0,92,0.00,,,0.00,VWS V14.01,2013-01-07 11:12:00,
2013-01-07 06:13:00,22.7,20.8,30.30,South,180,0.0,0.9,92,0.00,,,0.00,VWS V14.01,2013-01-07 11:13:00,
2013-01-07 06:14:00,22.7,20.8,30.30,South,180,0.0,0.0,92,0.00,,,0.00,VWS V14.01,2013-01-07 11:14:00,
2013-01-07 06:15:00,22.5,20.1,30.30,South,180,0.0,0.0,90,0.00,,,0.00,VWS V14.01,2013-01-07 11:15:00,
2013-01-07 06:16:00,22.5,20.1,30.30,South,180,0.0,0.0,90,0.00,,,0.00,VWS V14.01,2013-01-07 11:16:00,
2013-01-07 06:17:00,22.5,20.1,30.30,South,180,0.0,0.0,90,0.00,,,0.00,VWS V14.01,2013-01-07 11:17:00,
2013-01-07 06:18:00,22.5,20.1,30.30,South,180,0.0,0.0,90,0.00,,,0.00,VWS V14.01,2013-01-07 11:18:00,
2013-01-07 06:19:00,22.5,20.1,30.30,South,180,0.0,0.0,90,0.00,,,0.00,VWS V14.01,2013-01-07 11:19:00,
2013-01-07 06:20:00,22.5,19.8,30.30,South,180,0.0,0.0,89,0.00,,,0.00,VWS V14.01,2013-01-07 11:20:00,
2013-01-07 06:21:00,21.1,17.0,30.30,South,180,0.0,0.0,84,0.00,,,0.00,VWS V14.01,2013-01-07 11:21:00,
2013-01-07 06:22:00,22.5,19.8,30.30,South,180,0.0,0.0,89,0.00,,,0.00,VWS V14.01,2013-01-07 11:22:00,
2013-01-07 06:23:00,22.5,19.8,30.30,South,180,0.0,0.0,89,0.00,,,0.00,VWS V14.01,2013-01-07 11:23:00,
2013-01-07 06:24:00,22.5,19.8,30.30,South,180,0.0,0.0,89,0.00,,,0.00,VWS V14.01,2013-01-07 11:24:00,
2013-01-07 06:25:00,22.4,19.6,30.30,South,180,0.0,0.0,89,0.00,,,0.00,VWS V14.01,2013-01-07 11:25:00,
2013-01-07 06:26:00,22.5,19.8,30.30,South,180,0.0,0.0,89,0.00,,,0.00,VWS V14.01,2013-01-07 11:26:00,
2013-01-07 06:27:00,22.5,19.8,30.30,South,180,0.0,0.0,89,0.00,,,0.00,VWS V14.01,2013-01-07 11:27:00,
2013-01-07 06:28:00,22.5,19.8,30.30,South,180,0.0,0.0,89,0.00,,,0.00,VWS V14.01,2013-01-07 11:28:00,
2013-01-07 06:29:00,22.4,19.6,30.30,South,180,0.0,0.0,89,0.00,,,0.00,VWS V14.01,2013-01-07 11:29:00,
2013-01-07 06:30:00,22.4,19.4,30.30,South,180,0.0,0.0,88,0.00,,,0.00,VWS V14.01,2013-01-07 11:30:00,
2013-01-07 06:31:00,22.4,19.6,30.30,South,180,0.0,0.0,89,0.00,,,0.00,VWS V14.01,2013-01-07 11:31:00,
2013-01-07 06:32:00,22.4,19.4,30.30,South,180,0.0,0.0,88,0.00,,,0.00,VWS V14.01,2013-01-07 11:32:00,
2013-01-07 06:33:00,22.4,19.4,30.30,South,180,0.0,0.0,88,0.00,,,0.00,VWS V14.01,2013-01-07 11:33:00,
2013-01-07 06:34:00,22.4,19.4,30.30,South,180,0.0,0.0,88,0.00,,,0.00,VWS V14.01,2013-01-07 11:34:00,
2013-01-07 06:35:00,22.5,19.8,30.30,WSW,248,0.0,0.0,89,0.00,,,0.00,VWS V14.01,2013-01-07 11:35:00,
2013-01-07 06:36:00,22.4,19.4,30.30,WNW,292,0.0,0.0,88,0.00,,,0.00,VWS V14.01,2013-01-07 11:36:00,
2013-01-07 06:37:00,22.5,19.8,30.30,WNW,292,0.0,0.0,89,0.00,,,0.00,VWS V14.01,2013-01-07 11:37:00,
2013-01-07 06:38:00,22.5,19.8,30.30,West,270,0.0,0.0,89,0.00,,,0.00,VWS V14.01,2013-01-07 11:38:00,
2013-01-07 06:39:00,22.5,19.8,30.30,WSW,248,0.0,0.0,89,0.00,,,0.00,VWS V14.01,2013-01-07 11:39:00,
2013-01-07 06:40:00,22.5,20.1,30.30,SSW,202,0.0,0.0,90,0.00,,,0.00,VWS V14.01,2013-01-07 11:40:00,
2013-01-07 06:41:00,22.5,20.1,30.30,WSW,248,0.0,0.0,90,0.00,,,0.00,VWS V14.01,2013-01-07 11:41:00,
2013-01-07 06:42:00,22.5,20.1,30.30,SW,225,0.0,0.0,90,0.00,,,0.00,VWS V14.01,2013-01-07 11:42:00,
2013-01-07 06:43:00,22.5,20.1,30.30,SW,225,0.0,0.0,90,0.00,,,0.00,VWS V14.01,2013-01-07 11:43:00,
2013-01-07 06:44:00,22.5,20.1,30.30,SSW,202,0.0,0.0,90,0.00,,,0.00,VWS V14.01,2013-01-07 11:44:00,
2013-01-07 06:45:00,21.6,18.6,30.30,South,180,1.3,1.3,88,0.00,,,0.00,VWS V14.01,2013-01-07 11:45:00,
2013-01-07 06:46:00,22.0,19.5,30.30,South,180,1.6,2.2,90,0.00,,,0.00,VWS V14.01,2013-01-07 11:46:00,
2013-01-07 06:47:00,21.8,19.3,30.30,South,180,1.3,1.6,90,0.00,,,0.00,VWS V14.01,2013-01-07 11:47:00,
2013-01-07 06:48:00,21.8,19.1,30.30,South,180,1.3,1.3,89,0.00,,,0.00,VWS V14.01,2013-01-07 11:48:00,
2013-01-07 06:49:00,21.6,18.6,30.30,South,180,1.3,1.3,88,0.00,,,0.00,VWS V14.01,2013-01-07 11:49:00,
2013-01-07 06:50:00,22.0,19.0,30.30,South,180,0.0,1.3,88,0.00,,,0.00,VWS V14.01,2013-01-07 11:50:00,
2013-01-07 06:51:00,22.0,19.0,30.30,South,180,1.1,1.1,88,0.00,,,0.00,VWS V14.01,2013-01-07 11:51:00,
2013-01-07 06:52:00,22.2,19.2,30.30,South,180,1.3,1.6,88,0.00,,,0.00,VWS V14.01,2013-01-07 11:52:00,
2013-01-07 06:53:00,22.2,19.2,30.30,South,180,1.3,1.3,88,0.00,,,0.00,VWS V14.01,2013-01-07 11:53:00,
2013-01-07 06:54:00,22.0,19.0,30.30,South,180,0.0,1.3,88,0.00,,,0.00,VWS V14.01,2013-01-07 11:54:00,
2013-01-07 06:55:00,21.6,18.4,30.30,South,180,0.0,0.0,87,0.00,,,0.00,VWS V14.01,2013-01-07 11:55:00,
2013-01-07 06:56:00,21.8,18.8,30.30,South,180,0.0,0.0,88,0.00,,,0.00,VWS V14.01,2013-01-07 11:56:00,
2013-01-07 06:57:00,21.8,18.8,30.30,South,180,0.0,0.0,88,0.00,,,0.00,VWS V14.01,2013-01-07 11:57:00,
2013-01-07 06:58:00,21.6,18.4,30.30,South,180,0.0,0.0,87,0.00,,,0.00,VWS V14.01,2013-01-07 11:58:00,
2013-01-07 06:59:00,21.6,18.4,30.30,South,180,0.0,0.0,87,0.00,,,0.00,VWS V14.01,2013-01-07 11:59:00,
2013-01-07 07:00:00,21.3,17.2,30.30,South,180,0.0,0.0,84,0.00,,,0.00,VWS V14.01,2013-01-07 12:00:00,
2013-01-07 07:01:00,21.3,17.5,30.30,South,180,0.0,0.0,85,0.00,,,0.00,VWS V14.01,2013-01-07 12:01:00,
2013-01-07 07:02:00,21.3,17.2,30.30,South,180,0.0,0.0,84,0.00,,,0.00,VWS V14.01,2013-01-07 12:02:00,
2013-01-07 07:03:00,21.3,17.2,30.30,South,180,0.0,0.0,84,0.00,,,0.00,VWS V14.01,2013-01-07 12:03:00,
2013-01-07 07:04:00,21.3,17.2,30.30,South,180,0.0,0.0,84,0.00,,,0.00,VWS V14.01,2013-01-07 12:04:00,
2013-01-07 07:05:00,21.3,16.9,30.30,South,180,0.0,0.0,83,0.00,,,0.00,VWS V14.01,2013-01-07 12:05:00,
2013-01-07 07:06:00,21.3,16.9,30.30,South,180,0.0,0.0,83,0.00,,,0.00,VWS V14.01,2013-01-07 12:06:00,
2013-01-07 07:07:00,21.3,16.9,30.30,South,180,0.0,0.0,83,0.00,,,0.00,VWS V14.01,2013-01-07 12:07:00,
2013-01-07 07:08:00,21.3,16.9,30.30,South,180,0.0,0.0,83,0.00,,,0.00,VWS V14.01,2013-01-07 12:08:00,
2013-01-07 07:09:00,21.3,16.9,30.30,South,180,0.0,0.0,83,0.00,,,0.00,VWS V14.01,2013-01-07 12:09:00,
2013-01-07 07:10:00,21.3,16.9,30.30,South,180,0.0,0.0,83,0.00,,,0.00,VWS V14.01,2013-01-07 12:10:00,
2013-01-07 07:11:00,21.5,17.4,30.30,South,180,0.0,0.0,84,0.00,,,0.00,VWS V14.01,2013-01-07 12:11:00,
2013-01-07 07:12:00,21.3,17.2,30.30,South,180,0.0,0.0,84,0.00,,,0.00,VWS V14.01,2013-01-07 12:12:00,
2013-01-07 07:13:00,21.5,17.4,30.30,South,180,0.0,0.0,84,0.00,,,0.00,VWS V14.01,2013-01-07 12:13:00,
2013-01-07 07:14:00,21.5,17.4,30.30,South,180,0.0,0.0,84,0.00,,,0.00,VWS V14.01,2013-01-07 12:14:00,
2013-01-07 07:15:00,21.5,17.4,30.30,South,180,0.0,0.0,84,0.00,,,0.00,VWS V14.01,2013-01-07 12:15:00,
2013-01-07 07:16:00,21.1,17.0,30.30,South,180,0.0,0.0,84,0.00,,,0.00,VWS V14.01,2013-01-07 12:16:00,
2013-01-07 07:17:00,21.5,17.4,30.30,South,180,0.0,0.0,84,0.00,,,0.00,VWS V14.01,2013-01-07 12:17:00,
2013-01-07 07:18:00,21.1,17.0,30.30,South,180,0.0,0.0,84,0.00,,,0.00,VWS V14.01,2013-01-07 12:18:00,
2013-01-07 07:19:00,21.1,17.0,30.30,South,180,0.0,0.0,84,0.00,,,0.00,VWS V14.01,2013-01-07 12:19:00,
2013-01-07 07:20:00,21.1,17.0,30.30,South,180,0.0,0.0,84,0.00,,,0.00,VWS V14.01,2013-01-07 12:20:00,
2013-01-07 07:21:00,21.1,17.3,30.30,South,180,0.0,0.0,85,0.00,,,0.00,VWS V14.01,2013-01-07 12:21:00,
2013-01-07 07:22:00,21.3,17.2,30.30,South,180,0.0,0.0,84,0.00,,,0.00,VWS V14.01,2013-01-07 12:22:00,
2013-01-07 07:23:00,21.3,17.5,30.30,South,180,0.0,0.0,85,0.00,,,0.00,VWS V14.01,2013-01-07 12:23:00,
2013-01-07 07:24:00,21.1,17.3,30.30,South,180,0.0,0.0,85,0.00,,,0.00,VWS V14.01,2013-01-07 12:24:00,
2013-01-07 07:25:00,21.1,17.6,30.30,South,180,0.0,0.0,86,0.00,,,0.00,VWS V14.01,2013-01-07 12:25:00,
2013-01-07 07:26:00,21.1,17.6,30.30,South,180,0.0,0.0,86,0.00,,,0.00,VWS V14.01,2013-01-07 12:26:00,
2013-01-07 07:27:00,21.1,17.6,30.30,South,180,0.0,0.0,86,0.00,,,0.00,VWS V14.01,2013-01-07 12:27:00,
2013-01-07 07:28:00,21.1,17.6,30.30,South,180,0.0,0.0,86,0.00,,,0.00,VWS V14.01,2013-01-07 12:28:00,
2013-01-07 07:29:00,21.1,17.6,30.30,South,180,0.0,0.0,86,0.00,,,0.00,VWS V14.01,2013-01-07 12:29:00,
2013-01-07 07:30:00,21.1,17.6,30.30,South,180,0.0,0.0,86,0.00,,,0.00,VWS V14.01,2013-01-07 12:30:00,
2013-01-07 07:31:00,21.3,18.0,30.30,South,180,0.0,0.0,87,0.00,,,0.00,VWS V14.01,2013-01-07 12:31:00,
2013-01-07 07:32:00,21.3,18.8,30.33,SSE,158,0.0,0.0,90,0.00,,,0.00,VWS V14.01,2013-01-07 12:32:00,
2013-01-07 07:33:00,21.1,17.6,30.30,South,180,0.0,0.0,86,0.00,,,0.00,VWS V14.01,2013-01-07 12:33:00,
2013-01-07 07:34:00,21.3,18.0,30.30,South,180,0.0,0.0,87,0.00,,,0.00,VWS V14.01,2013-01-07 12:34:00,
2013-01-07 07:35:00,21.6,18.6,30.30,South,180,0.0,0.0,88,0.00,,,0.00,VWS V14.01,2013-01-07 12:35:00,
2013-01-07 07:36:00,22.2,20.0,30.30,WSW,248,0.0,0.0,91,0.00,,,0.00,VWS V14.01,2013-01-07 12:36:00,
2013-01-07 07:37:00,21.8,19.1,30.30,South,180,0.0,0.0,89,0.00,,,0.00,VWS V14.01,2013-01-07 12:37:00,
2013-01-07 07:38:00,22.0,19.5,30.30,South,180,0.0,0.0,90,0.00,,,0.00,VWS V14.01,2013-01-07 12:38:00,
2013-01-07 07:39:00,22.2,20.0,30.30,WSW,248,0.0,0.0,91,0.00,,,0.00,VWS V14.01,2013-01-07 12:39:00,
2013-01-07 07:40:00,22.4,20.4,30.30,WSW,248,0.0,0.0,92,0.00,,,0.00,VWS V14.01,2013-01-07 12:40:00,
2013-01-07 07:41:00,22.5,21.1,30.30,NW,315,2.5,2.5,94,0.00,,,0.00,VWS V14.01,2013-01-07 12:41:00,
2013-01-07 07:42:00,22.4,20.6,30.30,WSW,248,0.0,0.0,93,0.00,,,0.00,VWS V14.01,2013-01-07 12:42:00,
2013-01-07 07:43:00,22.4,20.6,30.30,WSW,248,0.0,0.0,93,0.00,,,0.00,VWS V14.01,2013-01-07 12:43:00,
2013-01-07 07:44:00,22.5,21.1,30.30,NW,315,2.5,2.5,94,0.00,,,0.00,VWS V14.01,2013-01-07 12:44:00,
2013-01-07 07:45:00,22.5,21.1,30.30,NW,315,1.3,2.5,94,0.00,,,0.00,VWS V14.01,2013-01-07 12:45:00,
2013-01-07 07:46:00,21.8,20.6,30.33,ESE,112,1.3,1.6,95,0.00,,,0.00,VWS V14.01,2013-01-07 12:46:00,
2013-01-07 07:47:00,22.2,21.0,30.33,NW,315,1.1,1.1,95,0.00,,,0.00,VWS V14.01,2013-01-07 12:47:00,
2013-01-07 07:48:00,21.8,20.6,30.33,SE,135,1.6,1.6,95,0.00,,,0.00,VWS V14.01,2013-01-07 12:48:00,
2013-01-07 07:49:00,21.8,20.6,30.33,ESE,112,1.3,1.6,95,0.00,,,0.00,VWS V14.01,2013-01-07 12:49:00,
2013-01-07 07:50:00,21.8,20.6,30.33,ESE,112,1.3,1.3,95,0.00,,,0.00,VWS V14.01,2013-01-07 12:50:00,
2013-01-07 07:51:00,21.1,18.6,30.33,South,180,0.0,0.0,90,0.00,,,0.00,VWS V14.01,2013-01-07 12:51:00,
2013-01-07 07:52:00,20.7,18.8,30.33,South,180,1.6,1.6,92,0.00,,,0.00,VWS V14.01,2013-01-07 12:52:00,
2013-01-07 07:53:00,20.9,18.7,30.33,South,180,0.0,1.6,91,0.00,,,0.00,VWS V14.01,2013-01-07 12:53:00,
2013-01-07 07:54:00,21.1,18.6,30.33,South,180,0.0,0.0,90,0.00,,,0.00,VWS V14.01,2013-01-07 12:54:00,
2013-01-07 07:55:00,21.1,18.4,30.33,South,180,0.0,0.0,89,0.00,,,0.00,VWS V14.01,2013-01-07 12:55:00,
2013-01-07 07:56:00,21.3,18.3,30.33,South,180,0.0,0.0,88,0.00,,,0.00,VWS V14.01,2013-01-07 12:56:00,
2013-01-07 07:57:00,21.1,18.4,30.33,South,180,0.0,0.0,89,0.00,,,0.00,VWS V14.01,2013-01-07 12:57:00,
2013-01-07 07:58:00,21.3,18.5,30.33,South,180,0.0,0.0,89,0.00,,,0.00,VWS V14.01,2013-01-07 12:58:00,
2013-01-07 07:59:00,21.3,18.3,30.33,South,180,0.0,0.0,88,0.00,,,0.00,VWS V14.01,2013-01-07 12:59:00,
2013-01-07 08:00:00,21.3,18.3,30.33,South,180,0.0,0.0,88,0.00,,,0.00,VWS V14.01,2013-01-07 13:00:00,
2013-01-07 08:01:00,21.3,18.5,30.30,SSE,158,0.0,0.0,89,0.00,,,0.00,VWS V14.01,2013-01-07 13:01:00,
2013-01-07 08:02:00,21.3,18.3,30.30,South,180,0.0,0.0,88,0.00,,,0.00,VWS V14.01,2013-01-07 13:02:00,
2013-01-07 08:03:00,21.3,18.5,30.30,South,180,0.0,0.0,89,0.00,,,0.00,VWS V14.01,2013-01-07 13:03:00,
2013-01-07 08:04:00,21.3,18.5,30.30,SSE,158,0.0,0.0,89,0.00,,,0.00,VWS V14.01,2013-01-07 13:04:00,
2013-01-07 08:05:00,21.3,18.5,30.30,SE,135,0.0,0.0,89,0.00,,,0.00,VWS V14.01,2013-01-07 13:05:00,
2013-01-07 08:06:00,21.3,18.5,30.30,SE,135,0.0,0.0,89,0.00,,,0.00,VWS V14.01,2013-01-07 13:06:00,
2013-01-07 08:07:00,21.3,18.5,30.30,SE,135,0.0,0.0,89,0.00,,,0.00,VWS V14.01,2013-01-07 13:07:00,
2013-01-07 08:08:00,21.3,18.5,30.30,SE,135,0.0,0.0,89,0.00,,,0.00,VWS V14.01,2013-01-07 13:08:00,
2013-01-07 08:09:00,21.3,18.5,30.30,SE,135,0.0,0.0,89,0.00,,,0.00,VWS V14.01,2013-01-07 13:09:00,
2013-01-07 08:10:00,21.1,18.4,30.30,SE,135,0.0,0.0,89,0.00,,,0.00,VWS V14.01,2013-01-07 13:10:00,
2013-01-07 08:11:00,21.1,18.4,30.30,SE,135,0.0,0.0,89,0.00,,,0.00,VWS V14.01,2013-01-07 13:11:00,
2013-01-07 08:12:00,21.1,18.4,30.30,SE,135,0.0,0.0,89,0.00,,,0.00,VWS V14.01,2013-01-07 13:12:00,
2013-01-07 08:13:00,21.1,18.4,30.30,SE,135,0.0,0.0,89,0.00,,,0.00,VWS V14.01,2013-01-07 13:13:00,
2013-01-07 08:14:00,21.1,18.4,30.30,SE,135,0.0,0.0,89,0.00,,,0.00,VWS V14.01,2013-01-07 13:14:00,
2013-01-07 08:15:00,21.1,18.4,30.30,SE,135,0.0,0.0,89,0.00,,,0.00,VWS V14.01,2013-01-07 13:15:00,
2013-01-07 08:16:00,20.9,17.9,30.33,SSE,158,0.0,0.0,88,0.00,,,0.00,VWS V14.01,2013-01-07 13:16:00,
2013-01-07 08:17:00,21.1,18.4,30.30,SSE,158,0.0,0.0,89,0.00,,,0.00,VWS V14.01,2013-01-07 13:17:00,
2013-01-07 08:18:00,21.1,18.4,30.33,SSE,158,0.0,0.0,89,0.00,,,0.00,VWS V14.01,2013-01-07 13:18:00,
2013-01-07 08:19:00,20.9,17.9,30.33,SSE,158,0.0,0.0,88,0.00,,,0.00,VWS V14.01,2013-01-07 13:19:00,
2013-01-07 08:20:00,20.9,17.9,30.33,SSE,158,0.0,0.0,88,0.00,,,0.00,VWS V14.01,2013-01-07 13:20:00,
2013-01-07 08:21:00,21.5,18.7,30.33,SSE,158,0.0,0.0,89,0.00,,,0.00,VWS V14.01,2013-01-07 13:21:00,
2013-01-07 08:22:00,20.9,17.9,30.33,SSE,158,0.0,0.0,88,0.00,,,0.00,VWS V14.01,2013-01-07 13:22:00,
2013-01-07 08:23:00,21.5,18.7,30.33,SSE,158,0.0,0.0,89,0.00,,,0.00,VWS V14.01,2013-01-07 13:23:00,
2013-01-07 08:24:00,21.5,18.7,30.33,SSE,158,0.0,0.0,89,0.00,,,0.00,VWS V14.01,2013-01-07 13:24:00,
2013-01-07 08:25:00,21.3,18.5,30.33,SSE,158,0.0,0.0,89,0.00,,,0.00,VWS V14.01,2013-01-07 13:25:00,
2013-01-07 08:26:00,21.3,18.8,30.33,SSE,158,0.0,0.0,90,0.00,,,0.00,VWS V14.01,2013-01-07 13:26:00,
2013-01-07 08:27:00,21.3,18.8,30.33,SSE,158,0.0,0.0,90,0.00,,,0.00,VWS V14.01,2013-01-07 13:27:00,
2013-01-07 08:28:00,21.3,18.8,30.33,SSE,158,0.0,0.0,90,0.00,,,0.00,VWS V14.01,2013-01-07 13:28:00,
2013-01-07 08:29:00,21.3,18.8,30.33,SSE,158,0.0,0.0,90,0.00,,,0.00,VWS V14.01,2013-01-07 13:29:00,
2013-01-07 08:30:00,21.3,18.8,30.33,SSE,158,0.0,0.0,90,0.00,,,0.00,VWS V14.01,2013-01-07 13:30:00,
2013-01-07 08:31:00,21.3,18.8,30.33,SSE,158,0.0,0.0,90,0.00,,,0.00,VWS V14.01,2013-01-07 13:31:00,
2013-01-07 08:32:00,21.3,18.8,30.33,SSE,158,0.0,0.0,90,0.00,,,0.00,VWS V14.01,2013-01-07 13:32:00,
2013-01-07 08:33:00,21.3,18.8,30.33,SSE,158,0.0,0.0,90,0.00,,,0.00,VWS V14.01,2013-01-07 13:33:00,
2013-01-07 08:34:00,21.3,18.8,30.33,SSE,158,0.0,0.0,90,0.00,,,0.00,VWS V14.01,2013-01-07 13:34:00,
2013-01-07 08:35:00,21.3,18.8,30.33,SSE,158,0.0,0.0,90,0.00,,,0.00,VWS V14.01,2013-01-07 13:35:00,
2013-01-07 08:36:00,21.1,18.6,30.33,SSE,158,2.0,2.2,90,0.00,,,0.00,VWS V14.01,2013-01-07 13:36:00,
2013-01-07 08:37:00,20.9,18.5,30.33,SSE,158,0.0,0.0,90,0.00,,,0.00,VWS V14.01,2013-01-07 13:37:00,
2013-01-07 08:38:00,21.1,18.6,30.33,SSE,158,2.2,2.2,90,0.00,,,0.00,VWS V14.01,2013-01-07 13:38:00,
2013-01-07 08:39:00,31.0,23.0,30.33,SE,135,1.3,2.0,72,0.00,,,0.00,VWS V14.01,2013-01-07 13:39:00,
2013-01-07 08:40:00,21.1,18.6,30.33,SSE,158,2.0,2.2,90,0.00,,,0.00,VWS V14.01,2013-01-07 13:40:00,
2013-01-07 08:41:00,21.3,18.8,30.33,SSE,158,2.7,2.7,90,0.00,,,0.00,VWS V14.01,2013-01-07 13:41:00,
2013-01-07 08:42:00,21.3,18.8,30.33,South,180,2.0,2.0,90,0.00,,,0.00,VWS V14.01,2013-01-07 13:42:00,
2013-01-07 08:43:00,21.3,18.8,30.33,SSE,158,2.5,2.5,90,0.00,,,0.00,VWS V14.01,2013-01-07 13:43:00,
2013-01-07 08:44:00,21.3,18.8,30.33,SSE,158,2.2,2.7,90,0.00,,,0.00,VWS V14.01,2013-01-07 13:44:00,
2013-01-07 08:45:00,21.3,18.8,30.33,SSE,158,1.3,2.2,90,0.00,,,0.00,VWS V14.01,2013-01-07 13:45:00,
2013-01-07 08:46:00,23.8,22.3,30.33,SSE,158,1.1,1.3,94,0.00,,,0.00,VWS V14.01,2013-01-07 13:46:00,
2013-01-07 08:47:00,23.1,21.4,30.33,SSE,158,1.3,1.3,93,0.00,,,0.00,VWS V14.01,2013-01-07 13:47:00,
2013-01-07 08:48:00,23.4,22.0,30.33,SSE,158,1.3,1.3,94,0.00,,,0.00,VWS V14.01,2013-01-07 13:48:00,
2013-01-07 08:49:00,23.8,22.3,30.33,SSE,158,1.1,1.3,94,0.00,,,0.00,VWS V14.01,2013-01-07 13:49:00,
2013-01-07 08:50:00,24.0,22.8,30.33,SSE,158,0.0,1.1,95,0.00,,,0.00,VWS V14.01,2013-01-07 13:50:00,
2013-01-07 08:51:00,24.7,24.0,30.33,South,180,0.0,2.2,97,0.00,,,0.00,VWS V14.01,2013-01-07 13:51:00,
2013-01-07 08:52:00,24.7,24.0,30.33,SSE,158,2.5,2.5,97,0.00,,,0.00,VWS V14.01,2013-01-07 13:52:00,
2013-01-07 08:53:00,24.7,24.0,30.33,SSE,158,2.2,2.5,97,0.00,,,0.00,VWS V14.01,2013-01-07 13:53:00,
2013-01-07 08:54:00,24.7,24.0,30.33,South,180,0.0,2.2,97,0.00,,,0.00,VWS V14.01,2013-01-07 13:54:00,
2013-01-07 08:55:00,24.7,24.0,30.33,South,180,0.0,0.0,97,0.00,,,0.00,VWS V14.01,2013-01-07 13:55:00,
2013-01-07 08:56:00,25.8,25.5,30.33,South,180,0.0,0.0,99,0.00,,,0.00,VWS V14.01,2013-01-07 13:56:00,
2013-01-07 08:57:00,25.4,25.2,30.33,South,180,0.0,0.0,99,0.00,,,0.00,VWS V14.01,2013-01-07 13:57:00,
2013-01-07 08:58:00,25.6,25.6,30.33,South,180,0.0,0.0,100,0.00,,,0.00,VWS V14.01,2013-01-07 13:58:00,
2013-01-07 08:59:00,25.8,25.5,30.33,South,180,0.0,0.0,99,0.00,,,0.00,VWS V14.01,2013-01-07 13:59:00,
2013-01-07 09:00:00,26.0,26.0,30.33,South,180,0.0,0.0,100,0.00,,,0.00,VWS V14.01,2013-01-07 14:00:00,
2013-01-07 09:01:00,26.1,26.1,30.33,South,180,0.0,0.0,100,0.00,,,0.00,VWS V14.01,2013-01-07 14:01:00,
2013-01-07 09:02:00,26.1,26.1,30.33,South,180,0.0,0.0,100,0.00,,,0.00,VWS V14.01,2013-01-07 14:02:00,
2013-01-07 09:03:00,26.1,26.1,30.33,South,180,0.0,0.0,100,0.00,,,0.00,VWS V14.01,2013-01-07 14:03:00,
2013-01-07 09:04:00,26.1,26.1,30.33,South,180,0.0,0.0,100,0.00,,,0.00,VWS V14.01,2013-01-07 14:04:00,
2013-01-07 09:05:00,26.1,26.1,30.33,South,180,0.0,0.0,100,0.00,,,0.00,VWS V14.01,2013-01-07 14:05:00,
2013-01-07 09:06:00,27.2,27.2,30.33,South,180,0.0,0.0,100,0.00,,,0.00,VWS V14.01,2013-01-07 14:06:00,
2013-01-07 09:07:00,27.0,27.0,30.33,South,180,0.0,0.0,100,0.00,,,0.00,VWS V14.01,2013-01-07 14:07:00,
2013-01-07 09:08:00,27.0,27.0,30.33,South,180,0.0,0.0,100,0.00,,,0.00,VWS V14.01,2013-01-07 14:08:00,
2013-01-07 09:09:00,27.2,27.2,30.33,South,180,0.0,0.0,100,0.00,,,0.00,VWS V14.01,2013-01-07 14:09:00,
2013-01-07 09:10:00,27.6,27.6,30.33,ENE,68,0.0,0.0,100,0.00,,,0.00,VWS V14.01,2013-01-07 14:10:00,
2013-01-07 09:11:00,27.6,27.6,30.33,South,180,0.0,0.0,100,0.00,,,0.00,VWS V14.01,2013-01-07 14:11:00,
2013-01-07 09:12:00,27.6,27.6,30.33,ENE,68,0.0,0.0,100,0.00,,,0.00,VWS V14.01,2013-01-07 14:12:00,
2013-01-07 09:13:00,27.6,27.6,30.33,NE,45,0.0,0.0,100,0.00,,,0.00,VWS V14.01,2013-01-07 14:13:00,
2013-01-07 09:14:00,27.6,27.6,30.33,ENE,68,0.0,0.0,100,0.00,,,0.00,VWS V14.01,2013-01-07 14:14:00,
2013-01-07 09:15:00,28.5,28.5,30.36,ENE,68,0.0,0.0,100,0.00,,,0.00,VWS V14.01,2013-01-07 14:15:00,
2013-01-07 09:16:00,28.3,28.3,30.33,ESE,112,0.0,0.0,100,0.00,,,0.00,VWS V14.01,2013-01-07 14:16:00,
2013-01-07 09:17:00,28.5,28.5,30.36,ENE,68,0.0,0.0,100,0.00,,,0.00,VWS V14.01,2013-01-07 14:17:00,
2013-01-07 09:18:00,28.5,28.5,30.36,ENE,68,0.0,0.0,100,0.00,,,0.00,VWS V14.01,2013-01-07 14:18:00,
2013-01-07 09:19:00,28.5,28.5,30.36,ENE,68,0.0,0.0,100,0.00,,,0.00,VWS V14.01,2013-01-07 14:19:00,
2013-01-07 09:20:00,29.2,28.7,30.36,SSE,158,1.6,1.6,98,0.00,,,0.29,VWS V14.01,2013-01-07 14:20:00,
2013-01-07 09:21:00,28.7,28.7,30.36,SSE,158,0.0,0.0,100,0.00,,,0.00,VWS V14.01,2013-01-07 14:21:00,
2013-01-07 09:22:00,28.7,28.7,30.36,SSE,158,0.0,0.0,100,0.00,,,0.00,VWS V14.01,2013-01-07 14:22:00,
2013-01-07 09:23:00,28.7,28.7,30.36,SSE,158,0.0,0.0,100,0.00,,,0.00,VWS V14.01,2013-01-07 14:23:00,
2013-01-07 09:24:00,28.7,28.7,30.36,SSE,158,1.6,1.6,100,0.00,,,0.00,VWS V14.01,2013-01-07 14:24:00,
2013-01-07 09:25:00,30.5,28.9,30.36,SSE,158,1.6,1.6,94,0.00,,,0.00,VWS V14.01,2013-01-07 14:25:00,
2013-01-07 09:26:00,29.6,28.6,30.36,SSE,158,1.6,1.6,96,0.00,,,0.00,VWS V14.01,2013-01-07 14:26:00,
2013-01-07 09:27:00,29.9,28.9,30.36,SSE,158,1.6,1.6,96,0.00,,,0.00,VWS V14.01,2013-01-07 14:27:00,
2013-01-07 09:28:00,30.1,28.8,30.36,SSE,158,1.6,1.6,95,0.00,,,0.00,VWS V14.01,2013-01-07 14:28:00,
2013-01-07 09:29:00,30.5,28.9,30.36,SSE,158,1.6,1.6,94,0.00,,,0.00,VWS V14.01,2013-01-07 14:29:00,
2013-01-07 09:30:00,31.2,28.3,30.33,SE,135,0.0,0.0,89,0.00,,,0.00,VWS V14.01,2013-01-07 14:30:00,
2013-01-07 09:31:00,31.0,28.7,30.36,SSE,158,0.0,1.6,91,0.00,,,0.00,VWS V14.01,2013-01-07 14:31:00,
2013-01-07 09:32:00,31.2,28.3,30.33,SE,135,0.0,0.0,89,0.00,,,0.00,VWS V14.01,2013-01-07 14:32:00,
2013-01-07 09:33:00,31.2,28.3,30.33,SE,135,0.0,0.0,89,0.00,,,0.00,VWS V14.01,2013-01-07 14:33:00,
2013-01-07 09:34:00,31.2,28.3,30.33,SE,135,2.0,2.0,89,0.00,,,0.00,VWS V14.01,2013-01-07 14:34:00,
2013-01-07 09:35:00,31.0,23.0,30.33,SE,135,1.3,2.0,72,0.00,,,0.00,VWS V14.01,2013-01-07 14:35:00,
2013-01-07 09:36:00,31.0,25.0,30.33,SE,135,1.3,2.7,78,0.00,,,0.00,VWS V14.01,2013-01-07 14:36:00,
2013-01-07 09:37:00,31.0,25.0,30.33,SE,135,1.6,1.6,78,0.00,,,0.00,VWS V14.01,2013-01-07 14:37:00,
2013-01-07 09:38:00,31.2,23.9,30.33,SE,135,2.0,2.0,74,0.00,,,0.00,VWS V14.01,2013-01-07 14:38:00,
2013-01-07 09:39:00,31.0,23.0,30.33,SE,135,1.3,2.0,72,0.00,,,0.00,VWS V14.01,2013-01-07 14:39:00,
2013-01-07 09:40:00,31.4,23.4,30.33,SE,135,1.6,1.6,72,0.00,,,0.00,VWS V14.01,2013-01-07 14:40:00,
2013-01-07 09:41:00,31.4,23.4,30.33,SE,135,1.6,1.6,72,0.00,,,0.00,VWS V14.01,2013-01-07 14:41:00,
2013-01-07 09:42:00,31.4,23.4,30.33,SE,135,1.6,1.6,72,0.00,,,0.00,VWS V14.01,2013-01-07 14:42:00,
2013-01-07 09:43:00,31.4,23.4,30.33,SE,135,1.6,1.6,72,0.00,,,0.00,VWS V14.01,2013-01-07 14:43:00,
2013-01-07 09:44:00,31.4,23.4,30.33,SE,135,1.6,1.6,72,0.00,,,0.00,VWS V14.01,2013-01-07 14:44:00,
2013-01-07 09:45:00,31.7,21.3,30.36,SE,135,2.2,2.2,65,0.00,,,0.00,VWS V14.01,2013-01-07 14:45:00,
2013-01-07 09:46:00,31.4,21.3,30.33,SE,135,2.5,2.5,66,0.00,,,0.00,VWS V14.01,2013-01-07 14:46:00,
2013-01-07 09:47:00,31.4,20.6,30.36,SE,135,2.5,2.5,64,0.00,,,0.00,VWS V14.01,2013-01-07 14:47:00,
2013-01-07 09:48:00,31.5,20.4,30.36,SE,135,2.2,2.5,63,0.00,,,0.00,VWS V14.01,2013-01-07 14:48:00,
2013-01-07 09:49:00,31.7,21.3,30.36,SE,135,2.2,2.2,65,0.00,,,0.00,VWS V14.01,2013-01-07 14:49:00,
2013-01-07 09:50:00,31.9,21.1,30.36,SSE,158,1.1,1.6,64,0.00,,,0.00,VWS V14.01,2013-01-07 14:50:00,
2013-01-07 09:51:00,31.9,21.1,30.36,SSE,158,0.0,0.0,64,0.00,,,0.00,VWS V14.01,2013-01-07 14:51:00,
2013-01-07 09:52:00,31.9,21.1,30.36,SSE,158,0.0,0.0,64,0.00,,,0.00,VWS V14.01,2013-01-07 14:52:00,
2013-01-07 09:53:00,31.9,21.1,30.36,SSE,158,0.9,0.9,64,0.00,,,0.00,VWS V14.01,2013-01-07 14:53:00,
2013-01-07 09:54:00,31.9,21.1,30.36,SSE,158,1.1,1.6,64,0.00,,,0.00,VWS V14.01,2013-01-07 14:54:00,
2013-01-07 09:55:00,33.3,20.2,30.36,SSE,158,0.0,1.6,58,0.00,,,0.00,VWS V14.01,2013-01-07 14:55:00,
2013-01-07 09:56:00,32.8,20.5,30.36,SSE,158,1.6,2.7,60,0.00,,,0.00,VWS V14.01,2013-01-07 14:56:00,
2013-01-07 09:57:00,32.8,19.7,30.36,SSE,158,0.0,1.6,58,0.00,,,0.00,VWS V14.01,2013-01-07 14:57:00,
2013-01-07 09:58:00,33.0,19.8,30.36,SSE,158,1.6,1.6,58,0.00,,,0.00,VWS V14.01,2013-01-07 14:58:00,
2013-01-07 09:59:00,33.3,20.2,30.36,SSE,158,0.0,1.6,58,0.00,,,0.00,VWS V14.01,2013-01-07 14:59:00,
2013-01-07 10:00:00,33.9,20.3,30.33,SE,135,2.5,2.5,57,0.00,,,0.00,VWS V14.01,2013-01-07 15:00:00,
2013-01-07 10:01:00,33.3,19.8,30.36,SE,135,0.0,2.2,57,0.00,,,0.00,VWS V14.01,2013-01-07 15:01:00,
2013-01-07 10:02:00,33.3,19.8,30.36,SE,135,0.0,0.0,57,0.00,,,0.00,VWS V14.01,2013-01-07 15:02:00,
2013-01-07 10:03:00,33.9,20.7,30.33,SE,135,0.0,0.0,58,0.00,,,0.00,VWS V14.01,2013-01-07 15:03:00,
2013-01-07 10:04:00,33.9,20.3,30.33,SE,135,2.5,2.5,57,0.00,,,0.00,VWS V14.01,2013-01-07 15:04:00,
2013-01-07 10:05:00,34.2,21.0,30.33,SSE,158,2.5,2.5,58,0.00,,,0.00,VWS V14.01,2013-01-07 15:05:00,
2013-01-07 10:06:00,34.1,20.9,30.33,NE,45,2.0,2.5,58,0.00,,,0.00,VWS V14.01,2013-01-07 15:06:00,
2013-01-07 10:07:00,34.1,20.4,30.33,SSE,158,2.2,2.2,57,0.00,,,0.00,VWS V14.01,2013-01-07 15:07:00,
2013-01-07 10:08:00,34.2,21.0,30.33,ESE,112,1.6,2.2,58,0.00,,,0.00,VWS V14.01,2013-01-07 15:08:00,
2013-01-07 10:09:00,34.2,21.0,30.33,SSE,158,2.5,2.5,58,0.00,,,0.00,VWS V14.01,2013-01-07 15:09:00,
2013-01-07 10:10:00,34.4,19.5,30.33,South,180,2.2,2.2,54,0.00,,,0.00,VWS V14.01,2013-01-07 15:10:00,
2013-01-07 10:11:00,34.2,19.8,30.33,SSE,158,1.1,1.1,55,0.00,,,0.00,VWS V14.01,2013-01-07 15:11:00,
2013-01-07 10:12:00,34.2,19.8,30.33,SSE,158,1.1,1.1,55,0.00,,,0.00,VWS V14.01,2013-01-07 15:12:00,
2013-01-07 10:13:00,34.2,19.8,30.33,SSE,158,2.0,2.7,55,0.00,,,0.00,VWS V14.01,2013-01-07 15:13:00,
2013-01-07 10:14:00,34.4,19.5,30.33,South,180,2.2,2.2,54,0.00,,,0.00,VWS V14.01,2013-01-07 15:14:00,
2013-01-07 10:15:00,34.8,19.0,30.30,South,180,1.6,2.9,52,0.00,,,0.00,VWS V14.01,2013-01-07 15:15:00,
2013-01-07 10:16:00,34.4,19.9,30.33,SSE,158,3.1,3.1,55,0.00,,,0.00,VWS V14.01,2013-01-07 15:16:00,
2013-01-07 10:17:00,34.4,19.9,30.30,South,180,2.7,3.1,55,0.00,,,0.00,VWS V14.01,2013-01-07 15:17:00,
2013-01-07 10:18:00,34.8,19.0,30.30,South,180,2.9,3.1,52,0.00,,,0.00,VWS V14.01,2013-01-07 15:18:00,
2013-01-07 10:19:00,34.8,19.0,30.30,South,180,1.6,2.9,52,0.00,,,0.00,VWS V14.01,2013-01-07 15:19:00,
2013-01-07 10:20:00,34.6,18.8,30.30,SSE,158,1.3,1.6,52,0.00,,,0.00,VWS V14.01,2013-01-07 15:20:00,
2013-01-07 10:21:00,39.6,18.5,30.33,NNW,338,0.0,1.1,42,0.00,,,0.00,VWS V14.01,2013-01-07 15:21:00,
2013-01-07 10:22:00,34.6,18.8,30.30,SE,135,2.2,2.7,52,0.00,,,0.00,VWS V14.01,2013-01-07 15:22:00,
2013-01-07 10:23:00,34.6,18.8,30.30,SSE,158,1.6,2.5,52,0.00,,,0.00,VWS V14.01,2013-01-07 15:23:00,
2013-01-07 10:24:00,34.6,18.8,30.30,SSE,158,1.1,1.6,52,0.00,,,0.00,VWS V14.01,2013-01-07 15:24:00,
2013-01-07 10:25:00,35.9,18.6,30.30,South,180,1.1,3.1,49,0.00,,,0.00,VWS V14.01,2013-01-07 15:25:00,
2013-01-07 10:26:00,35.7,19.4,30.30,South,180,0.0,1.1,51,0.00,,,0.00,VWS V14.01,2013-01-07 15:26:00,
2013-01-07 10:27:00,35.9,20.0,30.30,SSE,158,1.1,1.1,52,0.00,,,0.00,VWS V14.01,2013-01-07 15:27:00,
2013-01-07 10:28:00,36.0,19.7,30.30,SSE,158,3.1,3.1,51,0.00,,,0.00,VWS V14.01,2013-01-07 15:28:00,
2013-01-07 10:29:00,35.9,18.6,30.30,South,180,1.1,3.1,49,0.00,,,0.00,VWS V14.01,2013-01-07 15:29:00,
2013-01-07 10:30:00,36.8,20.4,30.33,ESE,112,1.6,1.6,51,0.00,,,0.00,VWS V14.01,2013-01-07 15:30:00,
2013-01-07 10:31:00,36.2,18.9,30.30,ENE,68,0.0,1.1,49,0.00,,,0.00,VWS V14.01,2013-01-07 15:31:00,
2013-01-07 10:32:00,36.2,18.9,30.33,ENE,68,0.0,0.0,49,0.00,,,0.00,VWS V14.01,2013-01-07 15:32:00,
2013-01-07 10:33:00,36.6,20.2,30.33,ENE,68,0.0,0.0,51,0.00,,,0.00,VWS V14.01,2013-01-07 15:33:00,
2013-01-07 10:34:00,36.8,20.4,30.33,ESE,112,1.6,1.6,51,0.00,,,0.00,VWS V14.01,2013-01-07 15:34:00,
2013-01-07 10:35:00,37.1,19.7,30.33,SSE,158,2.7,2.9,49,0.00,,,0.00,VWS V14.01,2013-01-07 15:35:00,
2013-01-07 10:36:00,36.8,18.9,30.33,SSE,158,2.9,3.1,48,0.00,,,0.00,VWS V14.01,2013-01-07 15:36:00,
2013-01-07 10:37:00,36.8,18.4,30.33,SSW,202,2.2,2.9,47,0.00,,,0.00,VWS V14.01,2013-01-07 15:37:00,
2013-01-07 10:38:00,36.8,18.4,30.33,South,180,2.7,2.7,47,0.00,,,0.00,VWS V14.01,2013-01-07 15:38:00,
2013-01-07 10:39:00,37.1,19.7,30.33,SSE,158,2.7,2.9,49,0.00,,,0.00,VWS V14.01,2013-01-07 15:39:00,
2013-01-07 10:40:00,37.5,18.1,30.33,SSE,158,0.0,0.0,45,0.00,,,0.00,VWS V14.01,2013-01-07 15:40:00,
2013-01-07 10:41:00,36.9,18.1,30.33,SSE,158,0.0,3.1,46,0.00,,,0.00,VWS V14.01,2013-01-07 15:41:00,
2013-01-07 10:42:00,36.9,18.1,30.33,SSE,158,0.0,1.6,46,0.00,,,0.00,VWS V14.01,2013-01-07 15:42:00,
2013-01-07 10:43:00,36.9,18.1,30.33,SSE,158,0.0,0.0,46,0.00,,,0.00,VWS V14.01,2013-01-07 15:43:00,
2013-01-07 10:44:00,37.5,18.1,30.33,SSE,158,0.0,0.0,45,0.00,,,0.00,VWS V14.01,2013-01-07 15:44:00,
2013-01-07 10:45:00,38.2,18.2,30.33,SE,135,0.0,0.0,44,0.00,,,0.00,VWS V14.01,2013-01-07 15:45:00,
2013-01-07 10:46:00,37.5,18.1,30.33,SE,135,0.0,0.0,45,0.00,,,0.00,VWS V14.01,2013-01-07 15:46:00,
2013-01-07 10:47:00,38.0,18.6,30.33,SE,135,0.0,0.0,45,0.00,,,0.00,VWS V14.01,2013-01-07 15:47:00,
2013-01-07 10:48:00,38.2,18.8,30.33,SE,135,0.0,0.0,45,0.00,,,0.00,VWS V14.01,2013-01-07 15:48:00,
2013-01-07 10:49:00,38.2,18.2,30.33,SE,135,0.0,0.0,44,0.00,,,0.00,VWS V14.01,2013-01-07 15:49:00,
2013-01-07 10:50:00,37.1,17.8,30.33,NW,315,0.9,0.9,45,0.00,,,0.00,VWS V14.01,2013-01-07 15:50:00,
2013-01-07 10:51:00,37.8,18.4,30.33,NW,315,0.9,0.9,45,0.00,,,0.00,VWS V14.01,2013-01-07 15:51:00,
2013-01-07 10:52:00,37.5,18.1,30.33,NW,315,0.9,0.9,45,0.00,,,0.00,VWS V14.01,2013-01-07 15:52:00,
2013-01-07 10:53:00,37.5,17.6,30.33,NW,315,0.9,0.9,44,0.00,,,0.00,VWS V14.01,2013-01-07 15:53:00,
2013-01-07 10:54:00,37.1,17.8,30.33,NW,315,0.9,0.9,45,0.00,,,0.00,VWS V14.01,2013-01-07 15:54:00,
2013-01-07 10:55:00,37.8,18.4,30.33,SSW,202,0.0,0.0,45,0.00,,,0.00,VWS V14.01,2013-01-07 15:55:00,
2013-01-07 10:56:00,36.9,17.6,30.33,WNW,292,2.2,2.2,45,0.00,,,0.00,VWS V14.01,2013-01-07 15:56:00,
2013-01-07 10:57:00,36.9,17.6,30.33,WNW,292,2.2,2.2,45,0.00,,,0.00,VWS V14.01,2013-01-07 15:57:00,
2013-01-07 10:58:00,37.3,17.9,30.33,SW,225,0.0,2.2,45,0.00,,,0.00,VWS V14.01,2013-01-07 15:58:00,
2013-01-07 10:59:00,37.8,18.4,30.33,SSE,158,1.1,1.1,45,0.00,,,0.00,VWS V14.01,2013-01-07 15:59:00,
2013-01-07 11:00:00,38.0,18.6,30.33,NW,315,1.3,1.3,45,0.00,,,0.00,VWS V14.01,2013-01-07 16:00:00,
2013-01-07 11:01:00,38.4,18.9,30.33,NNW,338,2.0,2.0,45,0.00,,,0.00,VWS V14.01,2013-01-07 16:01:00,
2013-01-07 11:02:00,38.0,18.1,30.33,NNW,338,2.0,2.0,44,0.00,,,0.00,VWS V14.01,2013-01-07 16:02:00,
2013-01-07 11:03:00,37.8,17.9,30.33,WNW,292,1.3,2.0,44,0.00,,,0.00,VWS V14.01,2013-01-07 16:03:00,
2013-01-07 11:04:00,38.0,18.6,30.33,NNE,22,1.3,1.3,45,0.00,,,0.00,VWS V14.01,2013-01-07 16:04:00,
2013-01-07 11:05:00,37.8,17.9,30.33,East,90,1.6,2.0,44,0.00,,,0.00,VWS V14.01,2013-01-07 16:05:00,
2013-01-07 11:06:00,37.8,17.9,30.33,NNE,22,2.5,2.5,44,0.00,,,0.00,VWS V14.01,2013-01-07 16:06:00,
2013-01-07 11:07:00,37.5,17.6,30.33,WNW,292,4.0,4.0,44,0.00,,,0.00,VWS V14.01,2013-01-07 16:07:00,
2013-01-07 11:08:00,37.8,18.4,30.33,NNE,22,2.0,4.0,45,0.00,,,0.00,VWS V14.01,2013-01-07 16:08:00,
2013-01-07 11:09:00,37.8,17.9,30.33,East,90,1.6,2.0,44,0.00,,,0.00,VWS V14.01,2013-01-07 16:09:00,
2013-01-07 11:10:00,38.7,18.2,30.33,SSW,202,1.1,1.1,43,0.00,,,0.00,VWS V14.01,2013-01-07 16:10:00,
2013-01-07 11:11:00,38.7,18.2,30.33,SSE,158,2.5,2.5,43,0.00,,,0.00,VWS V14.01,2013-01-07 16:11:00,
2013-01-07 11:12:00,38.7,18.7,30.33,SSW,202,1.1,2.5,44,0.00,,,0.00,VWS V14.01,2013-01-07 16:12:00,
2013-01-07 11:13:00,38.7,18.7,30.33,SSW,202,1.1,1.1,44,0.00,,,0.00,VWS V14.01,2013-01-07 16:13:00,
2013-01-07 11:14:00,38.7,18.2,30.33,SSW,202,1.1,1.1,43,0.00,,,0.00,VWS V14.01,2013-01-07 16:14:00,
2013-01-07 11:15:00,39.6,18.5,30.33,NNE,22,1.1,1.1,42,0.00,,,0.00,VWS V14.01,2013-01-07 16:15:00,
2013-01-07 11:16:00,39.1,19.0,30.33,SSW,202,1.1,1.1,44,0.00,,,0.00,VWS V14.01,2013-01-07 16:16:00,
2013-01-07 11:17:00,39.1,19.0,30.33,SSW,202,1.1,1.1,44,0.00,,,0.00,VWS V14.01,2013-01-07 16:17:00,
2013-01-07 11:18:00,39.3,18.7,30.33,NNE,22,1.1,1.1,43,0.00,,,0.00,VWS V14.01,2013-01-07 16:18:00,
2013-01-07 11:19:00,39.6,18.5,30.33,NNE,22,1.1,1.1,42,0.00,,,0.00,VWS V14.01,2013-01-07 16:19:00,
2013-01-07 11:20:00,39.5,17.7,30.33,NNW,338,2.7,2.7,41,0.00,,,0.00,VWS V14.01,2013-01-07 16:20:00,
2013-01-07 11:21:00,39.6,18.5,30.33,NNW,338,0.0,1.1,42,0.00,,,0.00,VWS V14.01,2013-01-07 16:21:00,
2013-01-07 11:22:00,39.8,18.6,30.33,NNW,338,1.1,1.1,42,0.00,,,0.00,VWS V14.01,2013-01-07 16:22:00,
2013-01-07 11:23:00,39.6,17.9,30.33,NNW,338,2.7,2.7,41,0.00,,,0.00,VWS V14.01,2013-01-07 16:23:00,
2013-01-07 11:24:00,39.5,17.7,30.33,WSW,248,0.9,2.7,41,0.00,,,0.00,VWS V14.01,2013-01-07 16:24:00,
2013-01-07 11:25:00,40.4,18.5,30.33,SE,135,0.0,0.0,41,0.00,,,0.00,VWS V14.01,2013-01-07 16:25:00,
2013-01-07 11:26:00,39.6,17.9,30.33,WNW,292,1.6,1.6,41,0.00,,,0.00,VWS V14.01,2013-01-07 16:26:00,
2013-01-07 11:27:00,39.8,18.0,30.33,WNW,292,1.6,1.6,41,0.00,,,0.00,VWS V14.01,2013-01-07 16:27:00,
2013-01-07 11:28:00,40.4,18.5,30.33,SE,135,0.0,1.6,41,0.00,,,0.00,VWS V14.01,2013-01-07 16:28:00,
2013-01-07 11:29:00,40.4,18.5,30.33,SE,135,0.0,0.0,41,0.00,,,0.00,VWS V14.01,2013-01-07 16:29:00,
2013-01-07 11:30:00,40.7,18.3,30.33,WNW,292,0.0,0.0,40,0.00,,,0.00,VWS V14.01,2013-01-07 16:30:00,
2013-01-07 11:31:00,40.2,17.8,30.33,WNW,292,2.7,2.7,40,0.00,,,0.00,VWS V14.01,2013-01-07 16:31:00,
2013-01-07 11:32:00,40.2,17.8,30.33,West,270,2.2,2.7,40,0.00,,,0.00,VWS V14.01,2013-01-07 16:32:00,
2013-01-07 11:33:00,40.4,18.0,30.33,SW,225,0.0,2.2,40,0.00,,,0.00,VWS V14.01,2013-01-07 16:33:00,
2013-01-07 11:34:00,40.9,18.5,30.33,WNW,292,0.0,0.0,40,0.00,,,0.00,VWS V14.01,2013-01-07 16:34:00,
2013-01-07 11:35:00,40.5,18.1,30.33,WNW,292,1.1,2.0,40,0.00,,,0.00,VWS V14.01,2013-01-07 16:35:00,
2013-01-07 11:36:00,40.5,18.1,30.33,WNW,292,0.0,0.0,40,0.00,,,0.00,VWS V14.01,2013-01-07 16:36:00,
2013-01-07 11:37:00,40.5,18.1,30.33,WNW,292,2.0,2.0,40,0.00,,,0.00,VWS V14.01,2013-01-07 16:37:00,
2013-01-07 11:38:00,40.4,18.0,30.33,WNW,292,2.0,2.0,40,0.00,,,0.00,VWS V14.01,2013-01-07 16:38:00,
2013-01-07 11:39:00,40.5,18.1,30.33,WNW,292,0.0,2.0,40,0.00,,,0.00,VWS V14.01,2013-01-07 16:39:00,
2013-01-07 11:40:00,41.1,17.4,30.33,NW,315,1.6,2.2,38,0.00,,,0.00,VWS V14.01,2013-01-07 16:40:00,
2013-01-07 11:41:00,40.9,18.5,30.33,West,270,2.5,2.5,40,0.00,,,0.00,VWS V14.01,2013-01-07 16:41:00,
2013-01-07 11:42:00,40.9,18.5,30.33,WNW,292,1.1,2.5,40,0.00,,,0.00,VWS V14.01,2013-01-07 16:42:00,
2013-01-07 11:43:00,40.9,18.5,30.33,WNW,292,1.1,1.1,40,0.00,,,0.00,VWS V14.01,2013-01-07 16:43:00,
2013-01-07 11:44:00,41.1,17.4,30.33,NW,315,1.6,2.2,38,0.00,,,0.00,VWS V14.01,2013-01-07 16:44:00,
2013-01-07 11:45:00,42.7,18.9,30.33,South,180,0.0,1.3,38,0.00,,,0.00,VWS V14.01,2013-01-07 16:45:00,
2013-01-07 11:46:00,41.4,18.4,30.33,SE,135,2.5,2.5,39,0.00,,,0.00,VWS V14.01,2013-01-07 16:46:00,
2013-01-07 11:47:00,42.0,18.2,30.33,South,180,1.1,2.5,38,0.00,,,0.00,VWS V14.01,2013-01-07 16:47:00,
2013-01-07 11:48:00,42.3,18.6,30.33,SSW,202,1.1,2.7,38,0.00,,,0.00,VWS V14.01,2013-01-07 16:48:00,
2013-01-07 11:49:00,42.7,18.9,30.33,South,180,0.0,1.3,38,0.00,,,0.00,VWS V14.01,2013-01-07 16:49:00,
2013-01-07 11:50:00,42.3,17.9,30.33,WNW,292,2.0,2.0,37,0.00,,,0.00,VWS V14.01,2013-01-07 16:50:00,
2013-01-07 11:51:00,42.7,20.1,30.33,WNW,292,1.6,2.5,40,0.00,,,0.00,VWS V14.01,2013-01-07 16:51:00,
2013-01-07 11:52:00,42.7,20.1,30.33,WNW,292,2.0,2.0,40,0.00,,,0.00,VWS V14.01,2013-01-07 16:52:00,
2013-01-07 11:53:00,42.3,18.6,30.33,WNW,292,2.0,2.0,38,0.00,,,0.00,VWS V14.01,2013-01-07 16:53:00,
2013-01-07 11:54:00,42.3,17.9,30.33,West,270,0.9,2.0,37,0.00,,,0.00,VWS V14.01,2013-01-07 16:54:00,
2013-01-07 11:55:00,43.8,19.2,30.33,SE,135,3.6,3.6,37,0.00,,,0.00,VWS V14.01,2013-01-07 16:55:00,
2013-01-07 11:56:00,42.9,19.0,30.33,SSW,202,0.0,0.9,38,0.00,,,0.00,VWS V14.01,2013-01-07 16:56:00,
2013-01-07 11:57:00,42.9,19.0,30.33,SSW,202,2.2,2.2,38,0.00,,,0.00,VWS V14.01,2013-01-07 16:57:00,
2013-01-07 11:58:00,44.0,20.6,30.33,SSE,158,1.6,2.2,39,0.00,,,0.00,VWS V14.01,2013-01-07 16:58:00,
2013-01-07 11:59:00,43.8,19.2,30.33,SSE,158,4.0,4.0,37,0.00,,,0.00,VWS V14.01,2013-01-07 16:59:00,
2013-01-07 12:00:00,43.8,19.9,30.30,NNE,22,2.5,2.5,38,0.00,,,0.00,VWS V14.01,2013-01-07 17:00:00,
2013-01-07 12:01:00,43.2,18.7,30.33,SE,135,2.7,3.4,37,0.00,,,0.00,VWS V14.01,2013-01-07 17:01:00,
2013-01-07 12:02:00,43.6,19.1,30.30,NNE,22,0.0,2.7,37,0.00,,,0.00,VWS V14.01,2013-01-07 17:02:00,
2013-01-07 12:03:00,43.8,20.5,30.30,NNE,22,2.5,2.5,39,0.00,,,0.00,VWS V14.01,2013-01-07 17:03:00,
2013-01-07 12:04:00,43.8,19.8,30.30,NNE,22,2.5,2.5,38,0.00,,,0.00,VWS V14.01,2013-01-07 17:04:00,
2013-01-07 12:05:00,45.4,20.0,30.30,SSW,202,0.9,2.2,36,0.00,,,0.00,VWS V14.01,2013-01-07 17:05:00,
2013-01-07 12:06:00,44.1,19.5,30.30,SSW,202,2.2,2.5,37,0.00,,,0.00,VWS V14.01,2013-01-07 17:06:00,
2013-01-07 12:07:00,44.1,19.5,30.30,SSW,202,2.2,2.2,37,0.00,,,0.00,VWS V14.01,2013-01-07 17:07:00,
2013-01-07 12:08:00,44.1,19.5,30.30,SSW,202,2.2,2.2,37,0.00,,,0.00,VWS V14.01,2013-01-07 17:08:00,
2013-01-07 12:09:00,45.4,20.0,30.30,SSW,202,0.9,2.2,36,0.00,,,0.00,VWS V14.01,2013-01-07 17:09:00,
2013-01-07 12:10:00,45.9,20.5,30.30,East,90,2.2,2.2,36,0.00,,,0.00,VWS V14.01,2013-01-07 17:10:00,
2013-01-07 12:11:00,45.4,20.0,30.30,SSE,158,0.9,1.3,36,0.00,,,0.00,VWS V14.01,2013-01-07 17:11:00,
2013-01-07 12:12:00,45.9,20.5,30.30,NNE,22,0.0,0.9,36,0.00,,,0.00,VWS V14.01,2013-01-07 17:12:00,
2013-01-07 12:13:00,45.9,20.5,30.30,East,90,2.2,2.2,36,0.00,,,0.00,VWS V14.01,2013-01-07 17:13:00,
2013-01-07 12:14:00,45.9,20.5,30.30,East,90,2.2,2.2,36,0.00,,,0.00,VWS V14.01,2013-01-07 17:14:00,
2013-01-07 12:15:00,46.3,20.2,30.30,SE,135,2.0,2.0,35,0.00,,,0.00,VWS V14.01,2013-01-07 17:15:00,
2013-01-07 12:16:00,46.3,20.8,30.30,ESE,112,2.5,2.5,36,0.00,,,0.00,VWS V14.01,2013-01-07 17:16:00,
2013-01-07 12:17:00,46.3,20.8,30.30,SSE,158,1.3,2.7,36,0.00,,,0.00,VWS V14.01,2013-01-07 17:17:00,
2013-01-07 12:18:00,46.3,20.2,30.30,SE,135,1.1,1.3,35,0.00,,,0.00,VWS V14.01,2013-01-07 17:18:00,
2013-01-07 12:19:00,46.5,20.3,30.30,SE,135,1.6,2.0,35,0.00,,,0.00,VWS V14.01,2013-01-07 17:19:00,
2013-01-07 12:20:00,46.7,20.5,30.30,WSW,248,2.5,2.5,35,0.00,,,0.00,VWS V14.01,2013-01-07 17:20:00,
2013-01-07 12:21:00,46.5,19.6,30.30,South,180,2.0,2.7,34,0.00,,,0.00,VWS V14.01,2013-01-07 17:21:00,
2013-01-07 12:22:00,46.7,19.8,30.30,WNW,292,1.6,2.0,34,0.00,,,0.00,VWS V14.01,2013-01-07 17:22:00,
2013-01-07 12:23:00,46.7,20.5,30.30,SSW,202,0.9,1.6,35,0.00,,,0.00,VWS V14.01,2013-01-07 17:23:00,
2013-01-07 12:24:00,46.7,20.5,30.30,SSW,202,2.2,2.5,35,0.00,,,0.00,VWS V14.01,2013-01-07 17:24:00,
2013-01-07 12:25:00,47.7,20.8,30.30,NE,45,1.3,1.3,34,0.00,,,0.00,VWS V14.01,2013-01-07 17:25:00,
2013-01-07 12:26:00,47.2,20.3,30.30,WSW,248,0.0,0.0,34,0.00,,,0.00,VWS V14.01,2013-01-07 17:26:00,
2013-01-07 12:27:00,47.6,20.6,30.30,SSW,202,0.0,0.9,34,0.00,,,0.00,VWS V14.01,2013-01-07 17:27:00,
2013-01-07 12:28:00,47.7,20.8,30.30,SSW,202,0.0,0.0,34,0.00,,,0.00,VWS V14.01,2013-01-07 17:28:00,
2013-01-07 12:29:00,47.7,20.8,30.30,SSE,158,1.1,1.3,34,0.00,,,0.00,VWS V14.01,2013-01-07 17:29:00,
2013-01-07 12:30:00,48.1,20.4,30.27,ESE,112,1.3,2.2,33,0.00,,,0.00,VWS V14.01,2013-01-07 17:30:00,
2013-01-07 12:31:00,47.9,20.2,30.30,SE,135,1.3,1.3,33,0.00,,,0.00,VWS V14.01,2013-01-07 17:31:00,
2013-01-07 12:32:00,48.1,20.4,30.27,South,180,3.4,3.4,33,0.00,,,0.00,VWS V14.01,2013-01-07 17:32:00,
2013-01-07 12:33:00,48.1,20.4,30.27,SE,135,1.1,3.4,33,0.00,,,0.00,VWS V14.01,2013-01-07 17:33:00,
2013-01-07 12:34:00,48.1,20.4,30.27,NNE,22,1.3,2.2,33,0.00,,,0.00,VWS V14.01,2013-01-07 17:34:00,
2013-01-07 12:35:00,47.7,19.3,30.27,WSW,248,1.6,2.7,32,0.00,,,0.00,VWS V14.01,2013-01-07 17:35:00,
2013-01-07 12:36:00,47.9,19.5,30.27,NNW,338,2.5,2.7,32,0.00,,,0.00,VWS V14.01,2013-01-07 17:36:00,
2013-01-07 12:37:00,47.9,19.5,30.27,NW,315,2.7,2.7,32,0.00,,,0.00,VWS V14.01,2013-01-07 17:37:00,
2013-01-07 12:38:00,47.7,19.3,30.27,West,270,2.7,2.7,32,0.00,,,0.00,VWS V14.01,2013-01-07 17:38:00,
2013-01-07 12:39:00,47.7,19.3,30.27,WSW,248,1.6,2.7,32,0.00,,,0.00,VWS V14.01,2013-01-07 17:39:00,
2013-01-07 12:40:00,48.5,20.7,30.27,NW,315,1.3,1.3,33,0.00,,,0.00,VWS V14.01,2013-01-07 17:40:00,
2013-01-07 12:41:00,48.1,19.6,30.27,SSW,202,0.0,1.1,32,0.00,,,0.00,VWS V14.01,2013-01-07 17:41:00,
2013-01-07 12:42:00,53.7,15.8,30.27,South,180,1.3,2.0,22,0.00,,,0.00,VWS V14.01,2013-01-07 17:42:00,
2013-01-07 12:43:00,48.5,20.7,30.27,WNW,292,0.9,0.9,33,0.00,,,0.00,VWS V14.01,2013-01-07 17:43:00,
2013-01-07 12:44:00,48.5,20.7,30.27,NNW,338,3.1,3.1,33,0.00,,,0.00,VWS V14.01,2013-01-07 17:44:00,
2013-01-07 12:45:00,48.8,20.3,30.27,WNW,292,1.6,1.6,32,0.00,,,0.00,VWS V14.01,2013-01-07 17:45:00,
2013-01-07 12:46:00,48.8,20.3,30.27,NNE,22,2.5,2.5,32,0.00,,,0.00,VWS V14.01,2013-01-07 17:46:00,
2013-01-07 12:47:00,48.8,20.3,30.27,NNE,22,2.5,2.5,32,0.00,,,0.00,VWS V14.01,2013-01-07 17:47:00,
2013-01-07 12:48:00,48.8,20.3,30.27,WNW,292,1.6,2.5,32,0.00,,,0.00,VWS V14.01,2013-01-07 17:48:00,
2013-01-07 12:49:00,48.8,20.3,30.27,WNW,292,1.6,1.6,32,0.00,,,0.00,VWS V14.01,2013-01-07 17:49:00,
2013-01-07 12:50:00,48.8,19.5,30.27,ENE,68,2.0,2.0,31,0.00,,,0.00,VWS V14.01,2013-01-07 17:50:00,
2013-01-07 12:51:00,48.3,19.1,30.27,WNW,292,2.9,3.4,31,0.00,,,0.00,VWS V14.01,2013-01-07 17:51:00,
2013-01-07 12:52:00,48.5,19.2,30.27,NW,315,1.3,2.9,31,0.00,,,0.00,VWS V14.01,2013-01-07 17:52:00,
2013-01-07 12:53:00,48.8,19.5,30.27,NE,45,1.6,1.6,31,0.00,,,0.00,VWS V14.01,2013-01-07 17:53:00,
2013-01-07 12:54:00,48.8,19.5,30.27,NE,45,1.3,2.0,31,0.00,,,0.00,VWS V14.01,2013-01-07 17:54:00,
2013-01-07 12:55:00,49.5,19.4,30.27,West,270,0.0,0.9,30,0.00,,,0.00,VWS V14.01,2013-01-07 17:55:00,
2013-01-07 12:56:00,52.4,15.7,30.27,NW,315,4.7,4.7,23,0.00,,,0.00,VWS V14.01,2013-01-07 17:56:00,
2013-01-07 12:57:00,48.8,19.5,30.27,NNE,22,2.2,2.7,31,0.00,,,0.00,VWS V14.01,2013-01-07 17:57:00,
2013-01-07 12:58:00,48.8,19.5,30.27,West,270,0.9,2.2,31,0.00,,,0.00,VWS V14.01,2013-01-07 17:58:00,
2013-01-07 12:59:00,49.5,19.4,30.27,West,270,0.0,0.9,30,0.00,,,0.00,VWS V14.01,2013-01-07 17:59:00,
2013-01-07 13:00:00,49.7,19.6,30.24,NNE,22,0.9,2.7,30,0.00,,,0.00,VWS V14.01,2013-01-07 18:00:00,
2013-01-07 13:01:00,50.1,19.9,30.27,WNW,292,0.9,1.3,30,0.00,,,0.00,VWS V14.01,2013-01-07 18:01:00,
2013-01-07 13:02:00,49.7,19.6,30.24,NW,315,2.7,2.7,30,0.00,,,0.00,VWS V14.01,2013-01-07 18:02:00,
2013-01-07 13:03:00,49.7,19.6,30.24,NW,315,2.7,2.7,30,0.00,,,0.00,VWS V14.01,2013-01-07 18:03:00,
2013-01-07 13:04:00,49.7,19.6,30.24,NNE,22,0.9,2.7,30,0.00,,,0.00,VWS V14.01,2013-01-07 18:04:00,
2013-01-07 13:05:00,50.6,19.5,30.24,South,180,1.6,1.6,29,0.00,,,0.00,VWS V14.01,2013-01-07 18:05:00,
2013-01-07 13:06:00,49.7,19.6,30.24,SE,135,1.3,2.5,30,0.00,,,0.00,VWS V14.01,2013-01-07 18:06:00,
2013-01-07 13:07:00,50.6,19.5,30.24,South,180,1.6,1.6,29,0.00,,,0.00,VWS V14.01,2013-01-07 18:07:00,
2013-01-07 13:08:00,50.6,19.5,30.24,South,180,1.6,1.6,29,0.00,,,0.00,VWS V14.01,2013-01-07 18:08:00,
2013-01-07 13:09:00,50.6,19.5,30.24,South,180,1.6,1.6,29,0.00,,,0.00,VWS V14.01,2013-01-07 18:09:00,
2013-01-07 13:10:00,50.4,19.4,30.24,NNE,22,1.3,2.2,29,0.00,,,0.00,VWS V14.01,2013-01-07 18:10:00,
2013-01-07 13:11:00,50.6,19.5,30.24,WNW,292,3.1,3.1,29,0.00,,,0.00,VWS V14.01,2013-01-07 18:11:00,
2013-01-07 13:12:00,50.4,19.4,30.24,NNW,338,1.6,3.1,29,0.00,,,0.00,VWS V14.01,2013-01-07 18:12:00,
2013-01-07 13:13:00,50.4,19.4,30.24,NW,315,2.2,2.5,29,0.00,,,0.00,VWS V14.01,2013-01-07 18:13:00,
2013-01-07 13:14:00,50.4,19.4,30.24,WNW,292,0.0,2.2,29,0.00,,,0.00,VWS V14.01,2013-01-07 18:14:00,
2013-01-07 13:15:00,51.7,19.7,30.27,West,270,0.9,1.3,28,0.00,,,0.00,VWS V14.01,2013-01-07 18:15:00,
2013-01-07 13:16:00,50.4,19.4,30.24,SSW,202,1.3,2.9,29,0.00,,,0.00,VWS V14.01,2013-01-07 18:16:00,
2013-01-07 13:17:00,51.3,19.4,30.27,WSW,248,2.0,2.0,28,0.00,,,0.00,VWS V14.01,2013-01-07 18:17:00,
2013-01-07 13:18:00,51.5,19.5,30.27,WNW,292,1.3,2.0,28,0.00,,,0.00,VWS V14.01,2013-01-07 18:18:00,
2013-01-07 13:19:00,51.7,19.7,30.27,West,270,0.9,1.3,28,0.00,,,0.00,VWS V14.01,2013-01-07 18:19:00,
2013-01-07 13:20:00,51.9,19.8,30.27,WNW,292,1.6,1.6,28,0.00,,,0.00,VWS V14.01,2013-01-07 18:20:00,
2013-01-07 13:21:00,51.9,19.8,30.27,WSW,248,2.0,2.9,28,0.00,,,0.00,VWS V14.01,2013-01-07 18:21:00,
2013-01-07 13:22:00,51.9,19.8,30.27,WNW,292,1.6,2.5,28,0.00,,,0.00,VWS V14.01,2013-01-07 18:22:00,
2013-01-07 13:23:00,53.3,15.5,30.27,NNW,338,2.7,4.0,22,0.00,,,0.00,VWS V14.01,2013-01-07 18:23:00,
2013-01-07 13:24:00,51.9,19.8,30.27,WNW,292,1.6,1.6,28,0.00,,,0.00,VWS V14.01,2013-01-07 18:24:00,
2013-01-07 13:25:00,52.1,17.3,30.27,SSW,202,0.0,2.9,25,0.00,,,0.00,VWS V14.01,2013-01-07 18:25:00,
2013-01-07 13:26:00,51.9,19.8,30.27,SSE,158,2.7,2.7,28,0.00,,,0.00,VWS V14.01,2013-01-07 18:26:00,
2013-01-07 13:27:00,51.5,16.9,30.27,West,270,2.9,2.9,25,0.00,,,0.00,VWS V14.01,2013-01-07 18:27:00,
2013-01-07 13:28:00,51.3,16.7,30.27,West,270,2.9,2.9,25,0.00,,,0.00,VWS V14.01,2013-01-07 18:28:00,
2013-01-07 13:29:00,52.1,17.3,30.27,South,180,1.6,2.9,25,0.00,,,0.00,VWS V14.01,2013-01-07 18:29:00,
2013-01-07 13:30:00,52.8,18.0,30.27,WNW,292,2.0,2.5,25,0.00,,,0.00,VWS V14.01,2013-01-07 18:30:00,
2013-01-07 13:31:00,52.6,17.8,30.27,South,180,0.0,2.5,25,0.00,,,0.00,VWS V14.01,2013-01-07 18:31:00,
2013-01-07 13:32:00,52.8,18.0,30.27,South,180,0.0,0.0,25,0.00,,,0.00,VWS V14.01,2013-01-07 18:32:00,
2013-01-07 13:33:00,52.8,18.0,30.27,NE,45,1.6,1.6,25,0.00,,,0.00,VWS V14.01,2013-01-07 18:33:00,
2013-01-07 13:34:00,52.8,18.0,30.27,WNW,292,1.3,2.5,25,0.00,,,0.00,VWS V14.01,2013-01-07 18:34:00,
2013-01-07 13:35:00,52.6,17.8,30.27,NW,315,1.1,1.1,25,0.00,,,0.00,VWS V14.01,2013-01-07 18:35:00,
2013-01-07 13:36:00,52.8,18.0,30.27,WNW,292,1.3,1.3,25,0.00,,,0.00,VWS V14.01,2013-01-07 18:36:00,
2013-01-07 13:37:00,52.8,18.0,30.27,NW,315,1.1,1.3,25,0.00,,,0.00,VWS V14.01,2013-01-07 18:37:00,
2013-01-07 13:38:00,52.8,18.0,30.27,NW,315,1.1,1.1,25,0.00,,,0.00,VWS V14.01,2013-01-07 18:38:00,
2013-01-07 13:39:00,52.6,17.8,30.27,South,180,0.0,1.1,25,0.00,,,0.00,VWS V14.01,2013-01-07 18:39:00,
2013-01-07 13:40:00,53.7,15.8,30.27,NNW,338,2.5,2.5,22,0.00,,,0.00,VWS V14.01,2013-01-07 18:40:00,
2013-01-07 13:41:00,53.3,18.4,30.27,SW,225,2.0,2.0,25,0.00,,,0.00,VWS V14.01,2013-01-07 18:41:00,
2013-01-07 13:42:00,53.7,15.8,30.27,South,180,1.3,2.0,22,0.00,,,0.00,VWS V14.01,2013-01-07 18:42:00,
2013-01-07 13:43:00,53.7,15.8,30.27,WNW,292,2.2,2.2,22,0.00,,,0.00,VWS V14.01,2013-01-07 18:43:00,
2013-01-07 13:44:00,53.7,15.8,30.27,NNW,338,2.5,2.5,22,0.00,,,0.00,VWS V14.01,2013-01-07 18:44:00,
2013-01-07 13:45:00,52.1,15.4,30.27,NNW,338,2.0,3.1,23,0.00,,,0.00,VWS V14.01,2013-01-07 18:45:00,
2013-01-07 13:46:00,53.0,13.0,30.27,WSW,248,2.0,2.7,20,0.00,,,0.00,VWS V14.01,2013-01-07 18:46:00,
2013-01-07 13:47:00,52.1,15.4,30.27,WNW,292,2.7,3.1,23,0.00,,,0.00,VWS V14.01,2013-01-07 18:47:00,
2013-01-07 13:48:00,52.1,15.4,30.27,NW,315,3.1,3.1,23,0.00,,,0.00,VWS V14.01,2013-01-07 18:48:00,
2013-01-07 13:49:00,52.4,15.7,30.27,NNW,338,2.0,3.1,23,0.00,,,0.00,VWS V14.01,2013-01-07 18:49:00,
2013-01-07 13:50:00,52.4,15.7,30.27,WNW,292,4.3,4.3,23,0.00,,,0.00,VWS V14.01,2013-01-07 18:50:00,
2013-01-07 13:51:00,52.2,15.6,30.27,NW,315,3.1,4.3,23,0.00,,,0.00,VWS V14.01,2013-01-07 18:51:00,
2013-01-07 13:52:00,52.4,15.7,30.27,WNW,292,1.6,3.1,23,0.00,,,0.00,VWS V14.01,2013-01-07 18:52:00,
2013-01-07 13:53:00,52.4,15.7,30.27,WNW,292,1.3,1.6,23,0.00,,,0.00,VWS V14.01,2013-01-07 18:53:00,
2013-01-07 13:54:00,52.4,15.7,30.27,WNW,292,4.3,4.3,23,0.00,,,0.00,VWS V14.01,2013-01-07 18:54:00,
2013-01-07 13:55:00,51.7,15.1,30.27,NW,315,3.6,6.5,23,0.00,,,0.00,VWS V14.01,2013-01-07 18:55:00,
2013-01-07 13:56:00,52.4,15.7,30.27,NW,315,4.7,4.7,23,0.00,,,0.00,VWS V14.01,2013-01-07 18:56:00,
2013-01-07 13:57:00,51.3,14.8,30.27,NNW,338,4.0,4.7,23,0.00,,,0.00,VWS V14.01,2013-01-07 18:57:00,
2013-01-07 13:58:00,51.5,15.0,30.27,NNW,338,6.5,6.5,23,0.00,,,0.00,VWS V14.01,2013-01-07 18:58:00,
2013-01-07 13:59:00,51.7,15.1,30.27,NNW,338,3.1,6.5,23,0.00,,,0.00,VWS V14.01,2013-01-07 18:59:00,
2013-01-07 14:00:00,51.9,15.3,30.27,WNW,292,2.7,2.7,23,0.00,,,0.00,VWS V14.01,2013-01-07 19:00:00,
2013-01-07 14:01:00,51.9,15.3,30.27,NW,315,2.0,3.8,23,0.00,,,0.00,VWS V14.01,2013-01-07 19:01:00,
2013-01-07 14:02:00,51.9,15.3,30.27,WNW,292,2.7,2.7,23,0.00,,,0.00,VWS V14.01,2013-01-07 19:02:00,
2013-01-07 14:03:00,51.9,15.3,30.27,WNW,292,2.7,2.7,23,0.00,,,0.00,VWS V14.01,2013-01-07 19:03:00,
2013-01-07 14:04:00,51.9,15.3,30.27,NW,315,3.1,3.1,23,0.00,,,0.00,VWS V14.01,2013-01-07 19:04:00,
2013-01-07 14:05:00,52.2,12.4,30.27,NNW,338,1.6,2.9,20,0.00,,,0.00,VWS V14.01,2013-01-07 19:05:00,
2013-01-07 14:06:00,52.2,15.6,30.27,West,270,2.7,2.9,23,0.00,,,0.00,VWS V14.01,2013-01-07 19:06:00,
2013-01-07 14:07:00,52.2,15.6,30.27,WNW,292,2.7,3.6,23,0.00,,,0.00,VWS V14.01,2013-01-07 19:07:00,
2013-01-07 14:08:00,52.1,15.4,30.27,NNW,338,2.7,2.7,23,0.00,,,0.00,VWS V14.01,2013-01-07 19:08:00,
2013-01-07 14:09:00,52.2,12.4,30.27,NNW,338,1.6,2.9,20,0.00,,,0.00,VWS V14.01,2013-01-07 19:09:00,
2013-01-07 14:10:00,52.8,15.0,30.27,West,270,2.5,2.5,22,0.00,,,0.00,VWS V14.01,2013-01-07 19:10:00,
2013-01-07 14:11:00,52.4,15.7,30.27,WNW,292,3.1,3.1,23,0.00,,,0.00,VWS V14.01,2013-01-07 19:11:00,
2013-01-07 14:12:00,52.6,14.9,30.27,West,270,1.3,3.4,22,0.00,,,0.00,VWS V14.01,2013-01-07 19:12:00,
2013-01-07 14:13:00,52.8,15.0,30.27,NNW,338,1.6,1.6,22,0.00,,,0.00,VWS V14.01,2013-01-07 19:13:00,
2013-01-07 14:14:00,52.8,15.0,30.27,West,270,2.5,2.5,22,0.00,,,0.00,VWS V14.01,2013-01-07 19:14:00,
2013-01-07 14:15:00,53.3,15.5,30.27,SE,135,2.5,2.9,22,0.00,,,0.00,VWS V14.01,2013-01-07 19:15:00,
2013-01-07 14:16:00,52.8,15.0,30.27,NNW,338,2.7,2.7,22,0.00,,,0.00,VWS V14.01,2013-01-07 19:16:00,
2013-01-07 14:17:00,52.8,15.0,30.27,NW,315,0.0,3.8,22,0.00,,,0.00,VWS V14.01,2013-01-07 19:17:00,
2013-01-07 14:18:00,53.3,15.5,30.27,ENE,68,2.2,2.2,22,0.00,,,0.00,VWS V14.01,2013-01-07 19:18:00,
2013-01-07 14:19:00,53.3,15.5,30.27,NE,45,2.0,2.9,22,0.00,,,0.00,VWS V14.01,2013-01-07 19:19:00,
2013-01-07 14:20:00,53.3,15.5,30.27,West,270,4.3,4.3,22,0.00,,,0.00,VWS V14.01,2013-01-07 19:20:00,
2013-01-07 14:21:00,53.5,13.4,30.27,NNW,338,0.0,2.0,20,0.00,,,0.00,VWS V14.01,2013-01-07 19:21:00,
2013-01-07 14:22:00,53.3,15.5,30.27,WNW,292,4.0,4.0,22,0.00,,,0.00,VWS V14.01,2013-01-07 19:22:00,
2013-01-07 14:23:00,53.3,15.5,30.27,NNW,338,2.7,4.0,22,0.00,,,0.00,VWS V14.01,2013-01-07 19:23:00,
2013-01-07 14:24:00,53.3,15.5,30.27,West,270,4.3,4.3,22,0.00,,,0.00,VWS V14.01,2013-01-07 19:24:00,
2013-01-07 14:25:00,53.0,13.0,30.27,NW,315,2.9,3.6,20,0.00,,,0.00,VWS V14.01,2013-01-07 19:25:00,
2013-01-07 14:26:00,53.3,15.5,30.27,NNW,338,4.7,4.7,22,0.00,,,0.00,VWS V14.01,2013-01-07 19:26:00,
2013-01-07 14:27:00,53.0,15.2,30.27,NNW,338,3.4,4.7,22,0.00,,,0.00,VWS V14.01,2013-01-07 19:27:00,
2013-01-07 14:28:00,52.8,12.8,30.27,WNW,292,2.5,3.4,20,0.00,,,0.00,VWS V14.01,2013-01-07 19:28:00,
2013-01-07 14:29:00,53.0,13.0,30.27,SE,135,4.0,4.0,20,0.00,,,0.00,VWS V14.01,2013-01-07 19:29:00,
2013-01-07 14:30:00,52.8,12.8,30.27,West,270,2.7,2.7,20,0.00,,,0.00,VWS V14.01,2013-01-07 19:30:00,
2013-01-07 14:31:00,53.0,13.0,30.27,North,0,2.5,3.4,20,0.00,,,0.00,VWS V14.01,2013-01-07 19:31:00,
2013-01-07 14:32:00,52.8,12.8,30.27,WNW,292,3.1,3.8,20,0.00,,,0.00,VWS V14.01,2013-01-07 19:32:00,
2013-01-07 14:33:00,52.8,12.8,30.27,West,270,2.7,3.1,20,0.00,,,0.00,VWS V14.01,2013-01-07 19:33:00,
2013-01-07 14:34:00,52.8,12.8,30.27,West,270,2.7,2.7,20,0.00,,,0.00,VWS V14.01,2013-01-07 19:34:00,
2013-01-07 14:35:00,53.0,15.2,30.27,WNW,292,2.7,2.9,22,0.00,,,0.00,VWS V14.01,2013-01-07 19:35:00,
2013-01-07 14:36:00,53.3,13.3,30.27,NNW,338,2.0,2.0,20,0.00,,,0.00,VWS V14.01,2013-01-07 19:36:00,
2013-01-07 14:37:00,53.3,13.3,30.27,NW,315,2.9,2.9,20,0.00,,,0.00,VWS V14.01,2013-01-07 19:37:00,
2013-01-07 14:38:00,53.1,13.1,30.27,WNW,292,2.9,2.9,20,0.00,,,0.00,VWS V14.01,2013-01-07 19:38:00,
2013-01-07 14:39:00,53.0,15.2,30.27,WNW,292,3.4,3.4,22,0.00,,,0.00,VWS V14.01,2013-01-07 19:39:00,
2013-01-07 14:40:00,53.0,13.0,30.27,ESE,112,2.7,3.1,20,0.00,,,0.00,VWS V14.01,2013-01-07 19:40:00,
2013-01-07 14:41:00,52.8,12.8,30.27,NNW,338,2.0,3.4,20,0.00,,,0.00,VWS V14.01,2013-01-07 19:41:00,
2013-01-07 14:42:00,53.0,13.0,30.27,NNW,338,3.1,3.8,20,0.00,,,0.00,VWS V14.01,2013-01-07 19:42:00,
2013-01-07 14:43:00,53.0,13.0,30.27,ESE,112,2.7,3.1,20,0.00,,,0.00,VWS V14.01,2013-01-07 19:43:00,
2013-01-07 14:44:00,53.0,13.0,30.27,ESE,112,2.7,2.7,20,0.00,,,0.00,VWS V14.01,2013-01-07 19:44:00,
2013-01-07 14:45:00,53.3,13.3,30.27,WNW,292,0.0,2.7,20,0.00,,,0.00,VWS V14.01,2013-01-07 19:45:00,
2013-01-07 14:46:00,53.0,13.0,30.27,WSW,248,2.0,2.7,20,0.00,,,0.00,VWS V14.01,2013-01-07 19:46:00,
2013-01-07 14:47:00,53.0,13.0,30.27,SSW,202,4.0,4.9,20,0.00,,,0.00,VWS V14.01,2013-01-07 19:47:00,
2013-01-07 14:48:00,53.1,13.1,30.27,WSW,248,2.7,4.0,20,0.00,,,0.00,VWS V14.01,2013-01-07 19:48:00,
2013-01-07 14:49:00,53.3,13.3,30.27,NNW,338,0.0,2.7,20,0.00,,,0.00,VWS V14.01,2013-01-07 19:49:00,
2013-01-07 14:50:00,53.7,13.6,30.27,SSE,158,2.7,2.7,20,0.00,,,0.00,VWS V14.01,2013-01-07 19:50:00,
2013-01-07 14:51:00,53.0,13.0,30.27,NNW,338,3.4,3.8,20,0.00,,,0.00,VWS V14.01,2013-01-07 19:51:00,
2013-01-07 14:52:00,53.3,13.3,30.27,WNW,292,1.6,3.4,20,0.00,,,0.00,VWS V14.01,2013-01-07 19:52:00,
2013-01-07 14:53:00,53.7,13.6,30.27,SSE,158,2.0,3.6,20,0.00,,,0.00,VWS V14.01,2013-01-07 19:53:00,
2013-01-07 14:54:00,53.7,13.6,30.27,NE,45,2.2,2.7,20,0.00,,,0.00,VWS V14.01,2013-01-07 19:54:00,
2013-01-07 14:55:00,53.0,13.0,30.27,SSE,158,2.7,4.0,20,0.00,,,0.00,VWS V14.01,2013-01-07 19:55:00,
2013-01-07 14:56:00,53.7,13.6,30.27,NNW,338,3.1,4.3,20,0.00,,,0.00,VWS V14.01,2013-01-07 19:56:00,
2013-01-07 14:57:00,53.3,13.3,30.27,NNW,338,3.1,3.1,20,0.00,,,0.00,VWS V14.01,2013-01-07 19:57:00,
2013-01-07 14:58:00,53.0,13.0,30.27,WSW,248,4.0,4.0,20,0.00,,,0.00,VWS V14.01,2013-01-07 19:58:00,
2013-01-07 14:59:00,53.1,13.1,30.27,SSE,158,2.7,4.0,20,0.00,,,0.00,VWS V14.01,2013-01-07 19:59:00,
2013-01-07 15:00:00,53.1,13.1,30.27,ESE,112,0.0,2.5,20,0.00,,,0.00,VWS V14.01,2013-01-07 20:00:00,
2013-01-07 15:01:00,53.3,13.3,30.27,West,270,0.0,2.9,20,0.00,,,0.00,VWS V14.01,2013-01-07 20:01:00,
2013-01-07 15:02:00,51.2,11.5,30.27,SW,225,0.0,0.0,20,0.00,,,0.00,VWS V14.01,2013-01-07 20:02:00,
2013-01-07 15:03:00,53.1,13.1,30.27,West,270,2.5,2.5,20,0.00,,,0.00,VWS V14.01,2013-01-07 20:03:00,
2013-01-07 15:04:00,53.1,13.1,30.27,SE,135,4.0,4.0,20,0.00,,,0.00,VWS V14.01,2013-01-07 20:04:00,
2013-01-07 15:05:00,52.8,12.8,30.27,SSE,158,5.6,5.6,20,0.00,,,0.00,VWS V14.01,2013-01-07 20:05:00,
2013-01-07 15:06:00,53.0,13.0,30.27,NE,45,6.0,6.0,20,0.00,,,0.00,VWS V14.01,2013-01-07 20:06:00,
2013-01-07 15:07:00,53.0,13.0,30.27,NNW,338,2.5,6.0,20,0.00,,,0.00,VWS V14.01,2013-01-07 20:07:00,
2013-01-07 15:08:00,53.0,13.0,30.27,SSE,158,4.3,4.3,20,0.00,,,0.00,VWS V14.01,2013-01-07 20:08:00,
2013-01-07 15:09:00,52.8,12.8,30.27,SSE,158,5.6,5.6,20,0.00,,,0.00,VWS V14.01,2013-01-07 20:09:00,
2013-01-07 15:10:00,52.8,12.8,30.27,NNW,338,2.0,2.0,20,0.00,,,0.00,VWS V14.01,2013-01-07 20:10:00,
2013-01-07 15:11:00,52.8,12.8,30.27,NNW,338,2.0,2.0,20,0.00,,,0.00,VWS V14.01,2013-01-07 20:11:00,
2013-01-07 15:12:00,52.8,12.8,30.27,NNW,338,2.0,2.0,20,0.00,,,0.00,VWS V14.01,2013-01-07 20:12:00,
2013-01-07 15:13:00,52.8,12.8,30.27,NNW,338,2.0,2.0,20,0.00,,,0.00,VWS V14.01,2013-01-07 20:13:00,
2013-01-07 15:14:00,52.8,12.8,30.27,NNW,338,2.0,2.0,20,0.00,,,0.00,VWS V14.01,2013-01-07 20:14:00,
2013-01-07 15:15:00,53.0,13.0,30.27,WSW,248,0.0,0.0,20,0.00,,,0.00,VWS V14.01,2013-01-07 20:15:00,
2013-01-07 15:16:00,52.8,12.8,30.27,NNE,22,1.3,1.6,20,0.00,,,0.00,VWS V14.01,2013-01-07 20:16:00,
2013-01-07 15:17:00,53.0,13.0,30.27,NNE,22,1.3,1.3,20,0.00,,,0.00,VWS V14.01,2013-01-07 20:17:00,
2013-01-07 15:18:00,53.0,13.0,30.27,WSW,248,0.0,1.3,20,0.00,,,0.00,VWS V14.01,2013-01-07 20:18:00,
2013-01-07 15:19:00,52.8,12.8,30.27,NW,315,3.8,3.8,20,0.00,,,0.00,VWS V14.01,2013-01-07 20:19:00,
2013-01-07 15:20:00,53.1,13.1,30.27,SSW,202,0.0,0.0,20,0.00,,,0.00,VWS V14.01,2013-01-07 20:20:00,
2013-01-07 15:21:00,53.1,13.1,30.27,NNW,338,1.3,1.3,20,0.00,,,0.00,VWS V14.01,2013-01-07 20:21:00,
2013-01-07 15:22:00,52.8,12.8,30.27,NW,315,3.8,3.8,20,0.00,,,0.00,VWS V14.01,2013-01-07 20:22:00,
2013-01-07 15:23:00,52.8,12.8,30.27,NNW,338,2.9,3.8,20,0.00,,,0.00,VWS V14.01,2013-01-07 20:23:00,
2013-01-07 15:24:00,53.0,13.0,30.27,SSE,158,2.0,2.5,20,0.00,,,0.00,VWS V14.01,2013-01-07 20:24:00,
2013-01-07 15:25:00,53.0,13.0,30.27,NNW,338,2.9,2.9,20,0.00,,,0.00,VWS V14.01,2013-01-07 20:25:00,
2013-01-07 15:26:00,53.0,13.0,30.27,NNW,338,1.6,2.9,20,0.00,,,0.00,VWS V14.01,2013-01-07 20:26:00,
2013-01-07 15:27:00,53.0,13.0,30.27,SSE,158,2.5,2.5,20,0.00,,,0.00,VWS V14.01,2013-01-07 20:27:00,
2013-01-07 15:28:00,53.0,13.0,30.27,South,180,5.8,5.8,20,0.00,,,0.00,VWS V14.01,2013-01-07 20:28:00,
2013-01-07 15:29:00,53.1,13.1,30.27,WNW,292,2.9,2.9,20,0.00,,,0.00,VWS V14.01,2013-01-07 20:29:00,
2013-01-07 15:30:00,53.1,13.1,30.27,South,180,0.0,2.0,20,0.00,,,0.00,VWS V14.01,2013-01-07 20:30:00,
2013-01-07 15:31:00,53.1,13.1,30.27,NNW,338,0.0,0.0,20,0.00,,,0.00,VWS V14.01,2013-01-07 20:31:00,
2013-01-07 15:32:00,53.1,13.1,30.27,WNW,292,2.9,2.9,20,0.00,,,0.00,VWS V14.01,2013-01-07 20:32:00,
2013-01-07 15:33:00,52.6,12.7,30.27,SSW,202,4.3,4.3,20,0.00,,,0.00,VWS V14.01,2013-01-07 20:33:00,
2013-01-07 15:34:00,52.6,12.7,30.27,South,180,1.6,2.0,20,0.00,,,0.00,VWS V14.01,2013-01-07 20:34:00,
2013-01-07 15:35:00,52.6,12.7,30.27,WNW,292,2.0,3.4,20,0.00,,,0.00,VWS V14.01,2013-01-07 20:35:00,
2013-01-07 15:36:00,52.4,12.5,30.27,NW,315,2.0,2.9,20,0.00,,,0.00,VWS V14.01,2013-01-07 20:36:00,
2013-01-07 15:37:00,52.6,12.7,30.27,South,180,1.6,2.0,20,0.00,,,0.00,VWS V14.01,2013-01-07 20:37:00,
2013-01-07 15:38:00,52.4,12.5,30.27,SSW,202,4.0,5.8,20,0.00,,,0.00,VWS V14.01,2013-01-07 20:38:00,
2013-01-07 15:39:00,52.2,12.4,30.27,ESE,112,1.1,1.3,20,0.00,,,0.00,VWS V14.01,2013-01-07 20:39:00,
2013-01-07 15:40:00,52.2,12.4,30.27,SE,135,1.6,4.0,20,0.00,,,0.00,VWS V14.01,2013-01-07 20:40:00,
2013-01-07 15:41:00,52.2,12.4,30.27,SSE,158,0.0,1.6,20,0.00,,,0.00,VWS V14.01,2013-01-07 20:41:00,
2013-01-07 15:42:00,52.2,12.4,30.27,ESE,112,1.1,1.3,20,0.00,,,0.00,VWS V14.01,2013-01-07 20:42:00,
2013-01-07 15:43:00,52.2,12.4,30.27,ESE,112,1.1,1.1,20,0.00,,,0.00,VWS V14.01,2013-01-07 20:43:00,
2013-01-07 15:44:00,52.1,12.2,30.27,SSW,202,2.0,2.0,20,0.00,,,0.00,VWS V14.01,2013-01-07 20:44:00,
2013-01-07 15:45:00,52.2,12.4,30.27,NW,315,0.0,1.6,20,0.00,,,0.00,VWS V14.01,2013-01-07 20:45:00,
2013-01-07 15:46:00,52.1,12.2,30.27,NW,315,0.0,0.0,20,0.00,,,0.00,VWS V14.01,2013-01-07 20:46:00,
2013-01-07 15:47:00,52.1,12.2,30.27,SSW,202,2.0,2.5,20,0.00,,,0.00,VWS V14.01,2013-01-07 20:47:00,
2013-01-07 15:48:00,51.7,11.9,30.27,SSW,202,0.0,2.0,20,0.00,,,0.00,VWS V14.01,2013-01-07 20:48:00,
2013-01-07 15:49:00,51.5,11.8,30.27,WNW,292,1.6,1.6,20,0.00,,,0.00,VWS V14.01,2013-01-07 20:49:00,
2013-01-07 15:50:00,51.5,11.8,30.27,SSW,202,0.0,0.0,20,0.00,,,0.00,VWS V14.01,2013-01-07 20:50:00,
2013-01-07 15:51:00,51.5,11.8,30.27,SW,225,0.0,0.0,20,0.00,,,0.00,VWS V14.01,2013-01-07 20:51:00,
2013-01-07 15:52:00,51.5,11.8,30.27,WNW,292,1.6,1.6,20,0.00,,,0.00,VWS V14.01,2013-01-07 20:52:00,
2013-01-07 15:53:00,51.5,11.8,30.27,WNW,292,1.6,1.6,20,0.00,,,0.00,VWS V14.01,2013-01-07 20:53:00,
2013-01-07 15:54:00,51.2,11.5,30.27,SE,135,2.5,2.5,20,0.00,,,0.00,VWS V14.01,2013-01-07 20:54:00,
2013-01-07 15:55:00,51.2,11.5,30.27,South,180,2.0,2.0,20,0.00,,,0.00,VWS V14.01,2013-01-07 20:55:00,
2013-01-07 15:56:00,51.2,11.5,30.27,SSW,202,1.3,2.0,20,0.00,,,0.00,VWS V14.01,2013-01-07 20:56:00,
2013-01-07 15:57:00,51.2,11.5,30.27,SE,135,2.5,2.5,20,0.00,,,0.00,VWS V14.01,2013-01-07 20:57:00,
2013-01-07 15:58:00,51.2,11.5,30.27,East,90,2.0,2.5,20,0.00,,,0.00,VWS V14.01,2013-01-07 20:58:00,
2013-01-07 15:59:00,51.2,11.5,30.27,SW,225,0.0,0.0,20,0.00,,,0.00,VWS V14.01,2013-01-07 20:59:00,
2013-01-07 16:00:00,51.2,11.5,30.27,SW,225,0.0,2.5,20,0.00,,,0.00,VWS V14.01,2013-01-07 21:00:00,
2013-01-07 16:01:00,51.2,11.5,30.27,SW,225,0.0,0.0,20,0.00,,,0.00,VWS V14.01,2013-01-07 21:01:00,
2013-01-07 16:02:00,51.2,11.5,30.27,SW,225,0.0,0.0,20,0.00,,,0.00,VWS V14.01,2013-01-07 21:02:00,
2013-01-07 16:03:00,51.2,11.5,30.27,SW,225,0.0,0.0,20,0.00,,,0.00,VWS V14.01,2013-01-07 21:03:00,
2013-01-07 16:04:00,51.0,11.3,30.27,South,180,0.0,2.5,20,0.00,,,0.00,VWS V14.01,2013-01-07 21:04:00,
2013-01-07 16:05:00,50.8,11.2,30.27,SW,225,0.0,0.0,20,0.00,,,0.00,VWS V14.01,2013-01-07 21:05:00,
2013-01-07 16:06:00,50.8,11.2,30.27,SE,135,2.5,2.5,20,0.00,,,0.00,VWS V14.01,2013-01-07 21:06:00,
2013-01-07 16:07:00,51.0,11.3,30.27,South,180,0.0,2.5,20,0.00,,,0.00,VWS V14.01,2013-01-07 21:07:00,
2013-01-07 16:08:00,50.6,12.1,30.27,NNW,338,0.0,1.3,21,0.00,,,0.00,VWS V14.01,2013-01-07 21:08:00,
2013-01-07 16:09:00,50.6,12.1,30.27,SSW,202,0.0,2.2,21,0.00,,,0.00,VWS V14.01,2013-01-07 21:09:00,
2013-01-07 16:10:00,50.6,12.1,30.27,WNW,292,1.3,1.3,21,0.00,,,0.00,VWS V14.01,2013-01-07 21:10:00,
2013-01-07 16:11:00,50.6,12.1,30.27,SSW,202,1.3,3.6,21,0.00,,,0.00,VWS V14.01,2013-01-07 21:11:00,
2013-01-07 16:12:00,50.6,12.1,30.27,NNW,338,0.0,1.3,21,0.00,,,0.00,VWS V14.01,2013-01-07 21:12:00,
2013-01-07 16:13:00,50.6,12.1,30.27,South,180,0.9,1.3,21,0.00,,,0.00,VWS V14.01,2013-01-07 21:13:00,
2013-01-07 16:14:00,50.6,12.1,30.27,SSE,158,0.0,0.0,21,0.00,,,0.00,VWS V14.01,2013-01-07 21:14:00,
2013-01-07 16:15:00,50.6,12.1,30.27,WSW,248,2.7,2.9,21,0.00,,,0.00,VWS V14.01,2013-01-07 21:15:00,
2013-01-07 16:16:00,50.6,12.1,30.27,NNW,338,1.3,2.7,21,0.00,,,0.00,VWS V14.01,2013-01-07 21:16:00,
2013-01-07 16:17:00,50.6,12.1,30.27,South,180,0.9,1.3,21,0.00,,,0.00,VWS V14.01,2013-01-07 21:17:00,
2013-01-07 16:18:00,50.4,12.0,30.27,ENE,68,4.9,4.9,21,0.00,,,0.00,VWS V14.01,2013-01-07 21:18:00,
2013-01-07 16:19:00,50.1,13.7,30.27,South,180,0.0,1.3,23,0.00,,,0.00,VWS V14.01,2013-01-07 21:19:00,
2013-01-07 16:20:00,50.3,13.9,30.27,West,270,2.5,2.7,23,0.00,,,0.00,VWS V14.01,2013-01-07 21:20:00,
2013-01-07 16:21:00,50.1,13.7,30.27,SSW,202,1.3,2.5,23,0.00,,,0.00,VWS V14.01,2013-01-07 21:21:00,
2013-01-07 16:22:00,50.1,13.7,30.27,South,180,0.0,1.3,23,0.00,,,0.00,VWS V14.01,2013-01-07 21:22:00,
2013-01-07 16:23:00,49.9,11.5,30.27,WNW,292,0.0,1.6,21,0.00,,,0.00,VWS V14.01,2013-01-07 21:23:00,
2013-01-07 16:24:00,49.9,13.6,30.27,South,180,0.0,0.0,23,0.00,,,0.00,VWS V14.01,2013-01-07 21:24:00,
2013-01-07 16:25:00,49.9,13.6,30.27,SSE,158,0.0,0.0,23,0.00,,,0.00,VWS V14.01,2013-01-07 21:25:00,
2013-01-07 16:26:00,49.9,13.6,30.27,SSE,158,0.0,0.0,23,0.00,,,0.00,VWS V14.01,2013-01-07 21:26:00,
2013-01-07 16:27:00,49.9,11.5,30.27,NNW,338,2.5,2.5,21,0.00,,,0.00,VWS V14.01,2013-01-07 21:27:00,
2013-01-07 16:28:00,49.5,13.3,30.27,WNW,292,2.9,2.9,23,0.00,,,0.00,VWS V14.01,2013-01-07 21:28:00,
2013-01-07 16:29:00,49.7,13.4,30.27,SW,225,1.6,1.6,23,0.00,,,0.00,VWS V14.01,2013-01-07 21:29:00,
2013-01-07 16:30:00,49.5,13.3,30.27,SW,225,0.0,1.6,23,0.00,,,0.00,VWS V14.01,2013-01-07 21:30:00,
2013-01-07 16:31:00,49.4,13.1,30.27,NE,45,0.0,0.0,23,0.00,,,0.00,VWS V14.01,2013-01-07 21:31:00,
2013-01-07 16:32:00,49.5,13.3,30.27,WNW,292,2.9,2.9,23,0.00,,,0.00,VWS V14.01,2013-01-07 21:32:00,
2013-01-07 16:33:00,49.4,13.1,30.27,WNW,292,3.1,3.1,23,0.00,,,0.00,VWS V14.01,2013-01-07 21:33:00,
2013-01-07 16:34:00,49.2,13.0,30.27,South,180,1.3,2.7,23,0.00,,,0.00,VWS V14.01,2013-01-07 21:34:00,
2013-01-07 16:35:00,49.2,13.0,30.27,SSW,202,0.0,0.0,23,0.00,,,0.00,VWS V14.01,2013-01-07 21:35:00,
2013-01-07 16:36:00,49.2,13.0,30.27,SSW,202,0.0,0.0,23,0.00,,,0.00,VWS V14.01,2013-01-07 21:36:00,
2013-01-07 16:37:00,49.2,13.0,30.27,South,180,1.3,2.7,23,0.00,,,0.00,VWS V14.01,2013-01-07 21:37:00,
2013-01-07 16:38:00,49.0,12.8,30.27,SSW,202,0.0,1.3,23,0.00,,,0.00,VWS V14.01,2013-01-07 21:38:00,
2013-01-07 16:39:00,48.6,15.3,30.27,South,180,3.8,3.8,26,0.00,,,0.00,VWS V14.01,2013-01-07 21:39:00,
2013-01-07 16:40:00,38.4,18.4,30.27,South,180,0.0,0.0,44,0.00,,,0.00,VWS V14.01,2013-01-07 21:40:00,
2013-01-07 16:41:00,49.0,12.8,30.27,South,180,2.7,3.6,23,0.00,,,0.00,VWS V14.01,2013-01-07 21:41:00,
2013-01-07 16:42:00,38.4,18.4,30.27,South,180,0.0,0.0,44,0.00,,,0.00,VWS V14.01,2013-01-07 21:42:00,
2013-01-07 16:43:00,47.7,16.2,30.27,SSE,158,2.7,2.7,28,0.00,,,0.00,VWS V14.01,2013-01-07 21:43:00,
2013-01-07 16:44:00,48.5,15.2,30.27,South,180,2.0,2.0,26,0.00,,,0.00,VWS V14.01,2013-01-07 21:44:00,
2013-01-07 16:45:00,47.7,16.2,30.27,SSE,158,3.6,3.6,28,0.00,,,0.00,VWS V14.01,2013-01-07 21:45:00,
2013-01-07 16:46:00,47.7,16.2,30.27,SSE,158,2.2,3.6,28,0.00,,,0.00,VWS V14.01,2013-01-07 21:46:00,
2013-01-07 16:47:00,47.7,16.2,30.27,SSE,158,2.7,2.7,28,0.00,,,0.00,VWS V14.01,2013-01-07 21:47:00,
2013-01-07 16:48:00,46.8,17.0,30.27,SSE,158,2.7,2.7,30,0.00,,,0.00,VWS V14.01,2013-01-07 21:48:00,
2013-01-07 16:49:00,47.9,16.4,30.27,SSE,158,2.0,3.4,28,0.00,,,0.00,VWS V14.01,2013-01-07 21:49:00,
2013-01-07 16:50:00,47.6,16.9,30.27,South,180,0.0,2.0,29,0.00,,,0.00,VWS V14.01,2013-01-07 21:50:00,
2013-01-07 16:51:00,47.0,16.4,30.27,South,180,2.0,2.0,29,0.00,,,0.00,VWS V14.01,2013-01-07 21:51:00,
2013-01-07 16:52:00,46.8,17.0,30.27,SSE,158,2.7,2.7,30,0.00,,,0.00,VWS V14.01,2013-01-07 21:52:00,
2013-01-07 16:53:00,46.1,17.2,30.27,SSE,158,1.6,1.6,31,0.00,,,0.00,VWS V14.01,2013-01-07 21:53:00,
2013-01-07 16:54:00,46.3,17.3,30.27,SSE,158,3.1,3.4,31,0.00,,,0.00,VWS V14.01,2013-01-07 21:54:00,
2013-01-07 16:55:00,46.1,17.2,30.27,SSE,158,2.2,3.1,31,0.00,,,0.00,VWS V14.01,2013-01-07 21:55:00,
2013-01-07 16:56:00,46.1,17.2,30.27,SSE,158,1.6,2.2,31,0.00,,,0.00,VWS V14.01,2013-01-07 21:56:00,
2013-01-07 16:57:00,46.1,17.2,30.27,SSE,158,1.6,1.6,31,0.00,,,0.00,VWS V14.01,2013-01-07 21:57:00,
2013-01-07 16:58:00,45.0,18.4,30.27,SSE,158,1.1,2.5,34,0.00,,,0.00,VWS V14.01,2013-01-07 21:58:00,
2013-01-07 16:59:00,45.4,18.0,30.27,South,180,3.1,3.1,33,0.00,,,0.00,VWS V14.01,2013-01-07 21:59:00,
2013-01-07 17:00:00,36.4,19.1,30.27,SSE,158,3.4,3.4,49,0.00,,,0.00,VWS V14.01,2013-01-07 22:00:00,
2013-01-07 17:01:00,45.4,18.0,30.27,South,180,0.9,3.1,33,0.00,,,0.00,VWS V14.01,2013-01-07 22:01:00,
2013-01-07 17:02:00,45.0,18.4,30.27,SSE,158,1.1,2.5,34,0.00,,,0.00,VWS V14.01,2013-01-07 22:02:00,
2013-01-07 17:03:00,43.6,19.1,30.27,SE,135,2.7,2.9,37,0.00,,,0.00,VWS V14.01,2013-01-07 22:03:00,
2013-01-07 17:04:00,44.7,18.7,30.27,SSE,158,2.2,2.7,35,0.00,,,0.00,VWS V14.01,2013-01-07 22:04:00,
2013-01-07 17:05:00,44.5,19.2,30.27,SSE,158,2.0,2.2,36,0.00,,,0.00,VWS V14.01,2013-01-07 22:05:00,
2013-01-07 17:06:00,43.8,19.2,30.27,SSE,158,2.9,2.9,37,0.00,,,0.00,VWS V14.01,2013-01-07 22:06:00,
2013-01-07 17:07:00,43.6,19.1,30.27,SE,135,2.7,2.9,37,0.00,,,0.00,VWS V14.01,2013-01-07 22:07:00,
2013-01-07 17:08:00,42.9,20.2,30.27,SSE,158,1.1,1.1,40,0.00,,,0.00,VWS V14.01,2013-01-07 22:08:00,
2013-01-07 17:09:00,43.4,18.9,30.27,SSE,158,2.5,2.7,37,0.00,,,0.00,VWS V14.01,2013-01-07 22:09:00,
2013-01-07 17:10:00,43.2,19.4,30.27,SSE,158,2.9,2.9,38,0.00,,,0.00,VWS V14.01,2013-01-07 22:10:00,
2013-01-07 17:11:00,43.1,20.4,30.27,SSE,158,1.1,2.9,40,0.00,,,0.00,VWS V14.01,2013-01-07 22:11:00,
2013-01-07 17:12:00,42.9,20.2,30.27,SSE,158,1.1,1.1,40,0.00,,,0.00,VWS V14.01,2013-01-07 22:12:00,
2013-01-07 17:13:00,42.0,19.4,30.27,SSE,158,2.5,2.7,40,0.00,,,0.00,VWS V14.01,2013-01-07 22:13:00,
2013-01-07 17:14:00,42.3,19.8,30.27,SE,135,2.7,2.9,40,0.00,,,0.00,VWS V14.01,2013-01-07 22:14:00,
2013-01-07 17:15:00,42.3,19.8,30.27,SE,135,2.5,2.7,40,0.00,,,0.00,VWS V14.01,2013-01-07 22:15:00,
2013-01-07 17:16:00,42.0,19.4,30.27,SSE,158,2.5,2.5,40,0.00,,,0.00,VWS V14.01,2013-01-07 22:16:00,
2013-01-07 17:17:00,42.0,19.4,30.27,SSE,158,2.5,2.7,40,0.00,,,0.00,VWS V14.01,2013-01-07 22:17:00,
2013-01-07 17:18:00,40.5,19.3,30.27,SE,135,2.0,2.2,42,0.00,,,0.00,VWS V14.01,2013-01-07 22:18:00,
2013-01-07 17:19:00,41.3,19.4,30.27,SSE,158,2.5,2.5,41,0.00,,,0.00,VWS V14.01,2013-01-07 22:19:00,
2013-01-07 17:20:00,41.1,19.8,30.27,SSE,158,2.0,3.4,42,0.00,,,0.00,VWS V14.01,2013-01-07 22:20:00,
2013-01-07 17:21:00,40.9,20.1,30.27,SE,135,2.2,2.5,43,0.00,,,0.00,VWS V14.01,2013-01-07 22:21:00,
2013-01-07 17:22:00,40.5,19.3,30.27,SE,135,2.0,2.2,42,0.00,,,0.00,VWS V14.01,2013-01-07 22:22:00,
2013-01-07 17:23:00,40.0,19.9,30.27,SE,135,3.4,3.6,44,0.00,,,0.00,VWS V14.01,2013-01-07 22:23:00,
2013-01-07 17:24:00,40.4,19.1,30.27,SSE,158,3.6,3.6,42,0.00,,,0.00,VWS V14.01,2013-01-07 22:24:00,
2013-01-07 17:25:00,40.2,19.5,30.27,South,180,2.9,3.6,43,0.00,,,0.00,VWS V14.01,2013-01-07 22:25:00,
2013-01-07 17:26:00,40.0,19.9,30.27,SE,135,2.2,2.9,44,0.00,,,0.00,VWS V14.01,2013-01-07 22:26:00,
2013-01-07 17:27:00,40.0,19.9,30.27,SE,135,3.4,3.6,44,0.00,,,0.00,VWS V14.01,2013-01-07 22:27:00,
2013-01-07 17:28:00,39.5,19.4,30.27,SE,135,1.6,1.6,44,0.00,,,0.00,VWS V14.01,2013-01-07 22:28:00,
2013-01-07 17:29:00,40.0,19.3,30.27,SSW,202,2.0,2.0,43,0.00,,,0.00,VWS V14.01,2013-01-07 22:29:00,
2013-01-07 17:30:00,39.6,19.5,30.27,SSE,158,2.0,3.1,44,0.00,,,0.00,VWS V14.01,2013-01-07 22:30:00,
2013-01-07 17:31:00,39.5,19.4,30.27,SSE,158,1.3,2.0,44,0.00,,,0.00,VWS V14.01,2013-01-07 22:31:00,
2013-01-07 17:32:00,39.5,19.4,30.27,SE,135,1.6,1.6,44,0.00,,,0.00,VWS V14.01,2013-01-07 22:32:00,
2013-01-07 17:33:00,38.7,18.7,30.27,South,180,1.3,1.3,44,0.00,,,0.00,VWS V14.01,2013-01-07 22:33:00,
2013-01-07 17:34:00,39.1,19.0,30.27,South,180,0.0,1.3,44,0.00,,,0.00,VWS V14.01,2013-01-07 22:34:00,
2013-01-07 17:35:00,39.1,19.0,30.27,South,180,0.0,0.0,44,0.00,,,0.00,VWS V14.01,2013-01-07 22:35:00,
2013-01-07 17:36:00,38.9,18.9,30.27,South,180,0.0,0.0,44,0.00,,,0.00,VWS V14.01,2013-01-07 22:36:00,
2013-01-07 17:37:00,38.7,18.7,30.27,South,180,1.3,2.0,44,0.00,,,0.00,VWS V14.01,2013-01-07 22:37:00,
2013-01-07 17:38:00,38.4,18.4,30.27,South,180,0.0,0.0,44,0.00,,,0.00,VWS V14.01,2013-01-07 22:38:00,
2013-01-07 17:39:00,38.4,18.4,30.27,South,180,0.0,1.3,44,0.00,,,0.00,VWS V14.01,2013-01-07 22:39:00,
2013-01-07 17:40:00,38.4,18.4,30.27,South,180,0.0,0.0,44,0.00,,,0.00,VWS V14.01,2013-01-07 22:40:00,
2013-01-07 17:41:00,38.4,18.4,30.27,South,180,0.0,0.0,44,0.00,,,0.00,VWS V14.01,2013-01-07 22:41:00,
2013-01-07 17:42:00,38.4,18.4,30.27,South,180,0.0,0.0,44,0.00,,,0.00,VWS V14.01,2013-01-07 22:42:00,
2013-01-07 17:43:00,37.5,18.6,30.27,South,180,2.2,2.2,46,0.00,,,0.00,VWS V14.01,2013-01-07 22:43:00,
2013-01-07 17:44:00,37.5,18.1,30.27,SSE,158,2.9,3.1,45,0.00,,,0.00,VWS V14.01,2013-01-07 22:44:00,
2013-01-07 17:45:00,33.5,18.7,30.30,SSE,158,0.0,1.1,54,0.00,,,0.00,VWS V14.01,2013-01-07 22:45:00,
2013-01-07 17:46:00,37.5,18.6,30.27,South,180,2.2,2.9,46,0.00,,,0.00,VWS V14.01,2013-01-07 22:46:00,
2013-01-07 17:47:00,37.5,18.6,30.27,South,180,2.2,2.2,46,0.00,,,0.00,VWS V14.01,2013-01-07 22:47:00,
2013-01-07 17:48:00,36.9,19.1,30.27,South,180,1.1,2.5,48,0.00,,,0.00,VWS V14.01,2013-01-07 22:48:00,
2013-01-07 17:49:00,37.3,18.4,30.27,South,180,3.1,3.4,46,0.00,,,0.00,VWS V14.01,2013-01-07 22:49:00,
2013-01-07 17:50:00,36.9,18.6,30.27,South,180,3.6,3.6,47,0.00,,,0.00,VWS V14.01,2013-01-07 22:50:00,
2013-01-07 17:51:00,36.6,18.8,30.27,South,180,2.0,3.6,48,0.00,,,0.00,VWS V14.01,2013-01-07 22:51:00,
2013-01-07 17:52:00,36.9,19.1,30.27,South,180,1.1,2.5,48,0.00,,,0.00,VWS V14.01,2013-01-07 22:52:00,
2013-01-07 17:53:00,36.6,19.2,30.27,SSE,158,2.9,2.9,49,0.00,,,0.00,VWS V14.01,2013-01-07 22:53:00,
2013-01-07 17:54:00,36.6,18.8,30.27,South,180,2.0,2.9,48,0.00,,,0.00,VWS V14.01,2013-01-07 22:54:00,
2013-01-07 17:55:00,36.9,19.6,30.27,SSE,158,2.0,2.2,49,0.00,,,0.00,VWS V14.01,2013-01-07 22:55:00,
2013-01-07 17:56:00,36.6,19.2,30.27,SSE,158,1.6,2.0,49,0.00,,,0.00,VWS V14.01,2013-01-07 22:56:00,
2013-01-07 17:57:00,36.6,19.2,30.27,SSE,158,2.9,2.9,49,0.00,,,0.00,VWS V14.01,2013-01-07 22:57:00,
2013-01-07 17:58:00,36.0,18.8,30.27,SSE,158,3.6,3.6,49,0.00,,,0.00,VWS V14.01,2013-01-07 22:58:00,
2013-01-07 17:59:00,36.6,19.2,30.27,SE,135,2.5,2.5,49,0.00,,,0.00,VWS V14.01,2013-01-07 22:59:00,
2013-01-07 18:00:00,36.4,19.1,30.27,SSE,158,3.4,3.4,49,0.00,,,0.00,VWS V14.01,2013-01-07 23:00:00,
2013-01-07 18:01:00,36.4,19.1,30.27,SSE,158,3.6,3.6,49,0.00,,,0.00,VWS V14.01,2013-01-07 23:01:00,
2013-01-07 18:02:00,36.0,18.8,30.27,SSE,158,3.6,3.6,49,0.00,,,0.00,VWS V14.01,2013-01-07 23:02:00,
2013-01-07 18:03:00,36.2,18.9,30.27,SSE,158,3.1,3.8,49,0.00,,,0.00,VWS V14.01,2013-01-07 23:03:00,
2013-01-07 18:04:00,36.2,18.9,30.27,South,180,2.0,2.7,49,0.00,,,0.00,VWS V14.01,2013-01-07 23:04:00,
2013-01-07 18:05:00,36.4,18.6,30.27,South,180,2.5,2.5,48,0.00,,,0.00,VWS V14.01,2013-01-07 23:05:00,
2013-01-07 18:06:00,36.6,18.8,30.27,South,180,1.1,2.5,48,0.00,,,0.00,VWS V14.01,2013-01-07 23:06:00,
2013-01-07 18:07:00,36.2,18.9,30.27,SSE,158,3.1,3.8,49,0.00,,,0.00,VWS V14.01,2013-01-07 23:07:00,
2013-01-07 18:08:00,35.7,18.9,30.27,South,180,2.0,2.9,50,0.00,,,0.00,VWS V14.01,2013-01-07 23:08:00,
2013-01-07 18:09:00,36.2,19.4,30.27,WSW,248,0.9,2.5,50,0.00,,,0.00,VWS V14.01,2013-01-07 23:09:00,
2013-01-07 18:10:00,36.2,18.9,30.27,SE,135,0.0,0.9,49,0.00,,,0.00,VWS V14.01,2013-01-07 23:10:00,
2013-01-07 18:11:00,35.9,19.0,30.27,SSE,158,2.7,2.7,50,0.00,,,0.00,VWS V14.01,2013-01-07 23:11:00,
2013-01-07 18:12:00,35.7,18.9,30.27,South,180,1.3,2.9,50,0.00,,,0.00,VWS V14.01,2013-01-07 23:12:00,
2013-01-07 18:13:00,35.1,18.4,30.27,SE,135,0.0,0.0,50,0.00,,,0.00,VWS V14.01,2013-01-07 23:13:00,
2013-01-07 18:14:00,31.5,19.3,30.30,SSE,158,2.7,2.7,60,0.00,,,0.00,VWS V14.01,2013-01-07 23:14:00,
2013-01-07 18:15:00,35.3,19.0,30.27,South,180,0.0,1.1,51,0.00,,,0.00,VWS V14.01,2013-01-07 23:15:00,
2013-01-07 18:16:00,35.3,19.0,30.27,SW,225,0.0,1.6,51,0.00,,,0.00,VWS V14.01,2013-01-07 23:16:00,
2013-01-07 18:17:00,35.1,18.4,30.27,SE,135,0.0,0.0,50,0.00,,,0.00,VWS V14.01,2013-01-07 23:17:00,
2013-01-07 18:18:00,34.4,18.6,30.27,SSE,158,0.0,1.1,52,0.00,,,0.00,VWS V14.01,2013-01-07 23:18:00,
2013-01-07 18:19:00,35.0,18.7,30.27,WNW,292,2.5,2.5,51,0.00,,,0.00,VWS V14.01,2013-01-07 23:19:00,
2013-01-07 18:20:00,34.8,19.0,30.27,SE,135,2.5,2.5,52,0.00,,,0.00,VWS V14.01,2013-01-07 23:20:00,
2013-01-07 18:21:00,34.4,18.2,30.27,SE,135,1.1,3.8,51,0.00,,,0.00,VWS V14.01,2013-01-07 23:21:00,
2013-01-07 18:22:00,33.9,17.7,30.27,SSE,158,0.0,1.1,51,0.00,,,0.00,VWS V14.01,2013-01-07 23:22:00,
2013-01-07 18:23:00,33.7,18.8,30.27,South,180,0.0,0.0,54,0.00,,,0.00,VWS V14.01,2013-01-07 23:23:00,
2013-01-07 18:24:00,33.7,18.4,30.27,WSW,248,0.0,1.3,53,0.00,,,0.00,VWS V14.01,2013-01-07 23:24:00,
2013-01-07 18:25:00,33.9,18.6,30.27,WSW,248,0.0,0.0,53,0.00,,,0.00,VWS V14.01,2013-01-07 23:25:00,
2013-01-07 18:26:00,33.7,18.4,30.27,SSE,158,0.0,0.0,53,0.00,,,0.00,VWS V14.01,2013-01-07 23:26:00,
2013-01-07 18:27:00,33.7,18.8,30.27,SSE,158,0.0,0.0,54,0.00,,,0.00,VWS V14.01,2013-01-07 23:27:00,
2013-01-07 18:28:00,34.8,19.9,30.30,SSW,202,1.6,2.0,54,0.00,,,0.00,VWS V14.01,2013-01-07 23:28:00,
2013-01-07 18:29:00,33.5,19.1,30.27,SSE,158,3.1,3.1,55,0.00,,,0.00,VWS V14.01,2013-01-07 23:29:00,
2013-01-07 18:30:00,30.6,18.4,30.30,SE,135,0.0,0.0,60,0.00,,,0.00,VWS V14.01,2013-01-07 23:30:00,
2013-01-07 18:31:00,33.5,19.1,30.27,South,180,1.3,3.1,55,0.00,,,0.00,VWS V14.01,2013-01-07 23:31:00,
2013-01-07 18:32:00,34.8,19.8,30.30,SSW,202,1.3,2.0,54,0.00,,,0.00,VWS V14.01,2013-01-07 23:32:00,
2013-01-07 18:33:00,35.0,19.1,30.30,WNW,292,2.0,2.0,52,0.00,,,0.00,VWS V14.01,2013-01-07 23:33:00,
2013-01-07 18:34:00,35.0,19.6,30.30,South,180,2.0,2.5,53,0.00,,,0.00,VWS V14.01,2013-01-07 23:34:00,
2013-01-07 18:35:00,35.1,19.7,30.30,South,180,1.6,2.2,53,0.00,,,0.00,VWS V14.01,2013-01-07 23:35:00,
2013-01-07 18:36:00,35.1,19.7,30.30,South,180,0.0,1.6,53,0.00,,,0.00,VWS V14.01,2013-01-07 23:36:00,
2013-01-07 18:37:00,34.6,18.8,30.30,WNW,292,2.0,2.0,52,0.00,,,0.00,VWS V14.01,2013-01-07 23:37:00,
2013-01-07 18:38:00,33.7,18.8,30.30,SSW,202,1.1,2.2,54,0.00,,,0.00,VWS V14.01,2013-01-07 23:38:00,
2013-01-07 18:39:00,33.9,18.1,30.30,SE,135,4.0,4.0,52,0.00,,,0.00,VWS V14.01,2013-01-07 23:39:00,
2013-01-07 18:40:00,33.5,18.2,30.30,SSE,158,1.1,4.0,53,0.00,,,0.00,VWS V14.01,2013-01-07 23:40:00,
2013-01-07 18:41:00,33.5,18.7,30.30,SSW,202,2.2,2.7,54,0.00,,,0.00,VWS V14.01,2013-01-07 23:41:00,
2013-01-07 18:42:00,33.7,18.8,30.30,SSW,202,0.0,2.2,54,0.00,,,0.00,VWS V14.01,2013-01-07 23:42:00,
2013-01-07 18:43:00,33.0,18.2,30.30,South,180,1.3,2.2,54,0.00,,,0.00,VWS V14.01,2013-01-07 23:43:00,
2013-01-07 18:44:00,33.5,18.7,30.30,SSE,158,1.1,1.6,54,0.00,,,0.00,VWS V14.01,2013-01-07 23:44:00,
2013-01-07 18:45:00,33.5,18.7,30.30,SSE,158,0.0,1.1,54,0.00,,,0.00,VWS V14.01,2013-01-07 23:45:00,
2013-01-07 18:46:00,33.2,17.9,30.30,SSW,202,2.2,2.5,53,0.00,,,0.00,VWS V14.01,2013-01-07 23:46:00,
2013-01-07 18:47:00,33.0,18.2,30.30,SSW,202,0.9,2.2,54,0.00,,,0.00,VWS V14.01,2013-01-07 23:47:00,
2013-01-07 18:48:00,32.4,18.1,30.30,SSE,158,1.3,2.0,55,0.00,,,0.00,VWS V14.01,2013-01-07 23:48:00,
2013-01-07 18:49:00,33.0,18.2,30.30,SSE,158,2.7,2.7,54,0.00,,,0.00,VWS V14.01,2013-01-07 23:49:00,
2013-01-07 18:50:00,33.0,18.2,30.30,SSE,158,3.4,3.8,54,0.00,,,0.00,VWS V14.01,2013-01-07 23:50:00,
2013-01-07 18:51:00,32.6,18.3,30.30,SSE,158,2.0,3.4,55,0.00,,,0.00,VWS V14.01,2013-01-07 23:51:00,
2013-01-07 18:52:00,32.4,18.1,30.30,SSE,158,0.9,2.0,55,0.00,,,0.00,VWS V14.01,2013-01-07 23:52:00,
2013-01-07 18:53:00,32.1,18.6,30.30,SSW,202,0.0,1.3,57,0.00,,,0.00,VWS V14.01,2013-01-07 23:53:00,
2013-01-07 18:54:00,32.4,18.5,30.30,SSE,158,2.5,2.5,56,0.00,,,0.00,VWS V14.01,2013-01-07 23:54:00,
2013-01-07 18:55:00,32.3,18.3,30.30,SSE,158,2.5,2.5,56,0.00,,,0.00,VWS V14.01,2013-01-07 23:55:00,
2013-01-07 18:56:00,32.1,18.6,30.30,SSW,202,0.9,2.9,57,0.00,,,0.00,VWS V14.01,2013-01-07 23:56:00,
2013-01-07 18:57:00,32.1,18.6,30.30,SSW,202,0.0,1.3,57,0.00,,,0.00,VWS V14.01,2013-01-07 23:57:00,
2013-01-07 18:58:00,32.1,19.0,30.30,SSE,158,2.5,2.7,58,0.00,,,0.00,VWS V14.01,2013-01-07 23:58:00,
2013-01-07 18:59:00,32.1,18.6,30.30,SSW,202,0.0,0.0,57,0.00,,,0.00,VWS V14.01,2013-01-07 23:59:00,
2013-01-07 19:00:00,32.1,18.6,30.30,SE,135,0.0,0.0,57,0.00,,,0.00,VWS V14.01,2013-01-08 00:00:00,
2013-01-07 19:01:00,31.9,18.4,30.30,SSE,158,1.3,2.0,57,0.00,,,0.00,VWS V14.01,2013-01-08 00:01:00,
2013-01-07 19:02:00,32.1,19.0,30.30,SSE,158,2.5,2.7,58,0.00,,,0.00,VWS V14.01,2013-01-08 00:02:00,
2013-01-07 19:03:00,32.3,20.0,30.30,South,180,1.6,2.0,60,0.00,,,0.00,VWS V14.01,2013-01-08 00:03:00,
2013-01-07 19:04:00,32.1,19.8,30.30,SSW,202,2.2,2.7,60,0.00,,,0.00,VWS V14.01,2013-01-08 00:04:00,
2013-01-07 19:05:00,32.3,20.0,30.30,SSW,202,1.3,2.2,60,0.00,,,0.00,VWS V14.01,2013-01-08 00:05:00,
2013-01-07 19:06:00,32.4,20.1,30.30,South,180,0.0,1.3,60,0.00,,,0.00,VWS V14.01,2013-01-08 00:06:00,
2013-01-07 19:07:00,32.3,20.0,30.30,South,180,1.3,2.0,60,0.00,,,0.00,VWS V14.01,2013-01-08 00:07:00,
2013-01-07 19:08:00,31.5,18.9,30.30,SSE,158,3.4,3.4,59,0.00,,,0.00,VWS V14.01,2013-01-08 00:08:00,
2013-01-07 19:09:00,31.9,19.2,30.30,South,180,0.0,0.0,59,0.00,,,0.00,VWS V14.01,2013-01-08 00:09:00,
2013-01-07 19:10:00,31.7,19.0,30.30,South,180,0.0,0.0,59,0.00,,,0.00,VWS V14.01,2013-01-08 00:10:00,
2013-01-07 19:11:00,31.5,18.9,30.30,SSE,158,3.4,3.4,59,0.00,,,0.00,VWS V14.01,2013-01-08 00:11:00,
2013-01-07 19:12:00,31.5,18.9,30.30,SSE,158,3.4,3.4,59,0.00,,,0.00,VWS V14.01,2013-01-08 00:12:00,
2013-01-07 19:13:00,31.7,20.2,30.30,SSW,202,0.0,2.2,62,0.00,,,0.00,VWS V14.01,2013-01-08 00:13:00,
2013-01-07 19:14:00,31.5,19.3,30.30,SSE,158,2.7,2.7,60,0.00,,,0.00,VWS V14.01,2013-01-08 00:14:00,
2013-01-07 19:15:00,31.5,19.3,30.30,South,180,2.2,2.7,60,0.00,,,0.00,VWS V14.01,2013-01-08 00:15:00,
2013-01-07 19:16:00,31.5,19.3,30.30,South,180,2.2,2.2,60,0.00,,,0.00,VWS V14.01,2013-01-08 00:16:00,
2013-01-07 19:17:00,31.7,20.2,30.30,SSW,202,0.0,2.2,62,0.00,,,0.00,VWS V14.01,2013-01-08 00:17:00,
2013-01-07 19:18:00,31.5,19.3,30.30,West,270,0.9,0.9,60,0.00,,,0.00,VWS V14.01,2013-01-08 00:18:00,
2013-01-07 19:19:00,31.7,19.4,30.30,SSW,202,0.0,0.0,60,0.00,,,0.00,VWS V14.01,2013-01-08 00:19:00,
2013-01-07 19:20:00,31.7,19.4,30.30,SSW,202,0.0,0.0,60,0.00,,,0.00,VWS V14.01,2013-01-08 00:20:00,
2013-01-07 19:21:00,31.7,19.4,30.30,SSW,202,0.0,0.0,60,0.00,,,0.00,VWS V14.01,2013-01-08 00:21:00,
2013-01-07 19:22:00,31.5,19.3,30.30,NW,315,1.3,1.3,60,0.00,,,0.00,VWS V14.01,2013-01-08 00:22:00,
2013-01-07 19:23:00,31.0,19.1,30.30,SSW,202,0.0,0.0,61,0.00,,,0.00,VWS V14.01,2013-01-08 00:23:00,
2013-01-07 19:24:00,31.4,19.9,30.30,WNW,292,0.0,1.1,62,0.00,,,0.00,VWS V14.01,2013-01-08 00:24:00,
2013-01-07 19:25:00,31.4,19.9,30.30,WSW,248,0.0,0.0,62,0.00,,,0.00,VWS V14.01,2013-01-08 00:25:00,
2013-01-07 19:26:00,31.2,19.7,30.30,WSW,248,0.0,0.0,62,0.00,,,0.00,VWS V14.01,2013-01-08 00:26:00,
2013-01-07 19:27:00,31.0,19.1,30.30,SSW,202,0.0,0.0,61,0.00,,,0.00,VWS V14.01,2013-01-08 00:27:00,
2013-01-07 19:28:00,30.3,18.8,30.30,SSW,202,1.1,1.1,62,0.00,,,0.00,VWS V14.01,2013-01-08 00:28:00,
2013-01-07 19:29:00,30.8,18.6,30.30,SE,135,0.0,0.0,60,0.00,,,0.00,VWS V14.01,2013-01-08 00:29:00,
2013-01-07 19:30:00,30.6,18.4,30.30,SE,135,0.0,0.0,60,0.00,,,0.00,VWS V14.01,2013-01-08 00:30:00,
2013-01-07 19:31:00,30.1,17.9,30.30,SSW,202,0.0,2.2,60,0.00,,,0.00,VWS V14.01,2013-01-08 00:31:00,
2013-01-07 19:32:00,30.3,18.8,30.30,SW,225,1.3,1.3,62,0.00,,,0.00,VWS V14.01,2013-01-08 00:32:00,
2013-01-07 19:33:00,30.3,19.9,30.30,SE,135,0.0,0.0,65,0.00,,,0.00,VWS V14.01,2013-01-08 00:33:00,
2013-01-07 19:34:00,30.5,19.8,30.30,SW,225,0.0,0.0,64,0.00,,,0.00,VWS V14.01,2013-01-08 00:34:00,
2013-01-07 19:35:00,30.3,19.6,30.30,South,180,0.0,0.0,64,0.00,,,0.00,VWS V14.01,2013-01-08 00:35:00,
2013-01-07 19:36:00,30.3,19.6,30.30,South,180,0.0,0.0,64,0.00,,,0.00,VWS V14.01,2013-01-08 00:36:00,
2013-01-07 19:37:00,30.3,19.9,30.30,SE,135,0.0,0.0,65,0.00,,,0.00,VWS V14.01,2013-01-08 00:37:00,
2013-01-07 19:38:00,30.1,20.8,30.30,SSE,158,2.5,2.5,68,0.00,,,0.00,VWS V14.01,2013-01-08 00:38:00,
2013-01-07 19:39:00,29.7,18.7,30.30,SSE,158,1.1,2.2,63,0.00,,,0.00,VWS V14.01,2013-01-08 00:39:00,
2013-01-07 19:40:00,29.7,18.7,30.30,SSE,158,1.1,1.1,63,0.00,,,0.00,VWS V14.01,2013-01-08 00:40:00,
2013-01-07 19:41:00,30.3,20.7,30.30,South,180,0.0,1.1,67,0.00,,,0.00,VWS V14.01,2013-01-08 00:41:00,
2013-01-07 19:42:00,30.1,20.8,30.30,SSE,158,2.5,2.5,68,0.00,,,0.00,VWS V14.01,2013-01-08 00:42:00,
2013-01-07 19:43:00,30.6,22.7,30.30,SSW,202,0.0,0.9,72,0.00,,,0.00,VWS V14.01,2013-01-08 00:43:00,
2013-01-07 19:44:00,30.3,21.0,30.30,South,180,2.5,2.9,68,0.00,,,0.00,VWS V14.01,2013-01-08 00:44:00,
2013-01-07 19:45:00,30.6,22.0,30.30,SSW,202,1.1,2.5,70,0.00,,,0.00,VWS V14.01,2013-01-08 00:45:00,
2013-01-07 19:46:00,30.8,22.9,30.30,SSW,202,0.9,1.1,72,0.00,,,0.00,VWS V14.01,2013-01-08 00:46:00,
2013-01-07 19:47:00,30.6,22.7,30.30,SSW,202,0.0,0.9,72,0.00,,,0.00,VWS V14.01,2013-01-08 00:47:00,
2013-01-07 19:48:00,30.8,22.2,30.30,South,180,2.0,2.2,70,0.00,,,0.00,VWS V14.01,2013-01-08 00:48:00,
2013-01-07 19:49:00,30.6,22.4,30.30,SSW,202,0.0,0.0,71,0.00,,,0.00,VWS V14.01,2013-01-08 00:49:00,
2013-01-07 19:50:00,30.6,22.4,30.30,SSW,202,0.0,0.0,71,0.00,,,0.00,VWS V14.01,2013-01-08 00:50:00,
2013-01-07 19:51:00,30.6,22.4,30.30,SSW,202,0.0,0.0,71,0.00,,,0.00,VWS V14.01,2013-01-08 00:51:00,
2013-01-07 19:52:00,30.8,22.2,30.30,South,180,2.0,2.2,70,0.00,,,0.00,VWS V14.01,2013-01-08 00:52:00,
2013-01-07 19:53:00,30.5,21.2,30.30,South,180,0.0,0.0,68,0.00,,,0.00,VWS V14.01,2013-01-08 00:53:00,
2013-01-07 19:54:00,30.6,21.4,30.30,SSW,202,0.0,0.9,68,0.00,,,0.00,VWS V14.01,2013-01-08 00:54:00,
2013-01-07 19:55:00,30.6,21.4,30.30,SSW,202,0.0,0.0,68,0.00,,,0.00,VWS V14.01,2013-01-08 00:55:00,
2013-01-07 19:56:00,30.6,21.4,30.30,South,180,0.0,0.0,68,0.00,,,0.00,VWS V14.01,2013-01-08 00:56:00,
2013-01-07 19:57:00,30.5,21.2,30.30,South,180,0.0,0.0,68,0.00,,,0.00,VWS V14.01,2013-01-08 00:57:00,
2013-01-07 19:58:00,29.7,19.1,30.30,SSE,158,0.0,0.0,64,0.00,,,0.00,VWS V14.01,2013-01-08 00:58:00,
2013-01-07 19:59:00,28.1,19.9,30.30,SSE,158,2.5,2.9,71,0.00,,,0.00,VWS V14.01,2013-01-08 00:59:00,
2013-01-07 20:00:00,29.9,19.2,30.30,SSE,158,0.0,0.0,64,0.00,,,0.00,VWS V14.01,2013-01-08 01:00:00,
2013-01-07 20:01:00,29.9,19.2,30.30,SSE,158,0.0,0.0,64,0.00,,,0.00,VWS V14.01,2013-01-08 01:01:00,
2013-01-07 20:02:00,29.7,19.1,30.30,SSE,158,0.0,0.0,64,0.00,,,0.00,VWS V14.01,2013-01-08 01:02:00,
2013-01-07 20:03:00,29.6,18.9,30.30,SSE,158,0.0,0.0,64,0.00,,,0.00,VWS V14.01,2013-01-08 01:03:00,
2013-01-07 20:04:00,29.7,19.4,30.30,South,180,0.0,0.0,65,0.00,,,0.00,VWS V14.01,2013-01-08 01:04:00,
2013-01-07 20:05:00,29.7,19.4,30.30,South,180,0.0,0.0,65,0.00,,,0.00,VWS V14.01,2013-01-08 01:05:00,
2013-01-07 20:06:00,29.7,19.4,30.30,SSE,158,0.0,0.0,65,0.00,,,0.00,VWS V14.01,2013-01-08 01:06:00,
2013-01-07 20:07:00,29.6,18.9,30.30,SSE,158,0.0,0.0,64,0.00,,,0.00,VWS V14.01,2013-01-08 01:07:00,
2013-01-07 20:08:00,29.2,18.5,30.30,SSE,158,0.0,0.0,64,0.00,,,0.00,VWS V14.01,2013-01-08 01:08:00,
2013-01-07 20:09:00,29.2,18.5,30.30,South,180,0.0,0.0,64,0.00,,,0.00,VWS V14.01,2013-01-08 01:09:00,
2013-01-07 20:10:00,29.2,18.5,30.30,South,180,0.0,0.0,64,0.00,,,0.00,VWS V14.01,2013-01-08 01:10:00,
2013-01-07 20:11:00,29.2,18.5,30.30,SSE,158,0.0,0.0,64,0.00,,,0.00,VWS V14.01,2013-01-08 01:11:00,
2013-01-07 20:12:00,29.2,18.5,30.30,SSE,158,0.0,0.0,64,0.00,,,0.00,VWS V14.01,2013-01-08 01:12:00,
2013-01-07 20:13:00,29.4,20.8,30.30,West,270,1.3,2.5,70,0.00,,,0.00,VWS V14.01,2013-01-08 01:13:00,
2013-01-07 20:14:00,29.0,18.7,30.30,WSW,248,2.2,2.2,65,0.00,,,0.00,VWS V14.01,2013-01-08 01:14:00,
2013-01-07 20:15:00,29.0,19.5,30.30,WSW,248,2.5,2.5,67,0.00,,,0.00,VWS V14.01,2013-01-08 01:15:00,
2013-01-07 20:16:00,29.2,20.3,30.30,WSW,248,2.5,2.5,69,0.00,,,0.00,VWS V14.01,2013-01-08 01:16:00,
2013-01-07 20:17:00,29.4,20.8,30.30,West,270,1.3,2.5,70,0.00,,,0.00,VWS V14.01,2013-01-08 01:17:00,
2013-01-07 20:18:00,28.7,19.5,30.30,SE,135,0.0,0.0,68,0.00,,,0.00,VWS V14.01,2013-01-08 01:18:00,
2013-01-07 20:19:00,29.2,21.0,30.30,SSW,202,0.0,0.9,71,0.00,,,0.00,VWS V14.01,2013-01-08 01:19:00,
2013-01-07 20:20:00,28.8,20.0,30.30,SE,135,2.5,2.5,69,0.00,,,0.00,VWS V14.01,2013-01-08 01:20:00,
2013-01-07 20:21:00,28.7,19.5,30.30,SE,135,0.0,2.5,68,0.00,,,0.00,VWS V14.01,2013-01-08 01:21:00,
2013-01-07 20:22:00,28.7,19.5,30.30,SE,135,0.0,0.0,68,0.00,,,0.00,VWS V14.01,2013-01-08 01:22:00,
2013-01-07 20:23:00,29.0,20.8,30.30,WSW,248,0.0,0.0,71,0.00,,,0.00,VWS V14.01,2013-01-08 01:23:00,
2013-01-07 20:24:00,28.7,19.5,30.30,SE,135,0.0,0.0,68,0.00,,,0.00,VWS V14.01,2013-01-08 01:24:00,
2013-01-07 20:25:00,28.7,19.5,30.30,WSW,248,0.0,0.0,68,0.00,,,0.00,VWS V14.01,2013-01-08 01:25:00,
2013-01-07 20:26:00,28.8,20.3,30.30,WSW,248,0.0,0.0,70,0.00,,,0.00,VWS V14.01,2013-01-08 01:26:00,
2013-01-07 20:27:00,29.0,20.8,30.30,WSW,248,0.0,0.0,71,0.00,,,0.00,VWS V14.01,2013-01-08 01:27:00,
2013-01-07 20:28:00,28.5,20.0,30.30,SW,225,2.5,2.5,70,0.00,,,0.00,VWS V14.01,2013-01-08 01:28:00,
2013-01-07 20:29:00,29.0,20.8,30.30,SSE,158,0.0,0.0,71,0.00,,,0.00,VWS V14.01,2013-01-08 01:29:00,
2013-01-07 20:30:00,28.7,20.1,30.30,SE,135,0.0,0.0,70,0.00,,,0.00,VWS V14.01,2013-01-08 01:30:00,
2013-01-07 20:31:00,28.7,20.1,30.30,NNE,22,0.0,0.0,70,0.00,,,0.00,VWS V14.01,2013-01-08 01:31:00,
2013-01-07 20:32:00,28.5,20.0,30.30,SW,225,2.5,2.5,70,0.00,,,0.00,VWS V14.01,2013-01-08 01:32:00,
2013-01-07 20:33:00,28.5,20.3,30.30,WSW,248,0.0,0.0,71,0.00,,,0.00,VWS V14.01,2013-01-08 01:33:00,
2013-01-07 20:34:00,28.5,20.3,30.30,South,180,0.0,0.9,71,0.00,,,0.00,VWS V14.01,2013-01-08 01:34:00,
2013-01-07 20:35:00,27.4,21.5,30.30,NE,45,1.6,1.6,78,0.00,,,0.00,VWS V14.01,2013-01-08 01:35:00,
2013-01-07 20:36:00,28.5,20.3,30.30,South,180,0.0,0.0,71,0.00,,,0.00,VWS V14.01,2013-01-08 01:36:00,
2013-01-07 20:37:00,28.5,20.3,30.30,WSW,248,0.0,0.0,71,0.00,,,0.00,VWS V14.01,2013-01-08 01:37:00,
2013-01-07 20:38:00,28.3,20.1,30.30,ESE,112,0.0,1.1,71,0.00,,,0.00,VWS V14.01,2013-01-08 01:38:00,
2013-01-07 20:39:00,28.5,20.0,30.30,West,270,2.5,2.5,70,0.00,,,0.00,VWS V14.01,2013-01-08 01:39:00,
2013-01-07 20:40:00,28.5,20.6,30.30,WNW,292,0.0,2.5,72,0.00,,,0.00,VWS V14.01,2013-01-08 01:40:00,
2013-01-07 20:41:00,28.5,20.3,30.30,ESE,112,0.0,0.0,71,0.00,,,0.00,VWS V14.01,2013-01-08 01:41:00,
2013-01-07 20:42:00,28.3,20.1,30.30,ESE,112,0.0,1.1,71,0.00,,,0.00,VWS V14.01,2013-01-08 01:42:00,
2013-01-07 20:43:00,28.1,20.3,30.30,South,180,1.3,2.2,72,0.00,,,0.00,VWS V14.01,2013-01-08 01:43:00,
2013-01-07 20:44:00,28.3,20.1,30.30,South,180,0.0,0.0,71,0.00,,,0.00,VWS V14.01,2013-01-08 01:44:00,
2013-01-07 20:45:00,28.3,20.1,30.30,SSW,202,0.0,0.0,71,0.00,,,0.00,VWS V14.01,2013-01-08 01:45:00,
2013-01-07 20:46:00,28.1,20.3,30.30,SSW,202,2.2,2.5,72,0.00,,,0.00,VWS V14.01,2013-01-08 01:46:00,
2013-01-07 20:47:00,28.1,20.3,30.30,South,180,1.3,2.2,72,0.00,,,0.00,VWS V14.01,2013-01-08 01:47:00,
2013-01-07 20:48:00,28.7,21.4,30.30,SSW,202,0.0,0.0,74,0.00,,,0.00,VWS V14.01,2013-01-08 01:48:00,
2013-01-07 20:49:00,28.5,20.9,30.30,South,180,0.0,1.6,73,0.00,,,0.00,VWS V14.01,2013-01-08 01:49:00,
2013-01-07 20:50:00,28.8,21.6,30.30,South,180,0.9,0.9,74,0.00,,,0.00,VWS V14.01,2013-01-08 01:50:00,
2013-01-07 20:51:00,28.8,21.6,30.30,South,180,0.0,0.9,74,0.00,,,0.00,VWS V14.01,2013-01-08 01:51:00,
2013-01-07 20:52:00,28.7,21.4,30.30,SSW,202,0.0,0.0,74,0.00,,,0.00,VWS V14.01,2013-01-08 01:52:00,
2013-01-07 20:53:00,28.5,20.9,30.30,South,180,0.0,0.0,73,0.00,,,0.00,VWS V14.01,2013-01-08 01:53:00,
2013-01-07 20:54:00,28.5,20.9,30.30,WNW,292,0.9,0.9,73,0.00,,,0.00,VWS V14.01,2013-01-08 01:54:00,
2013-01-07 20:55:00,28.5,20.9,30.30,WNW,292,0.0,0.9,73,0.00,,,0.00,VWS V14.01,2013-01-08 01:55:00,
2013-01-07 20:56:00,28.5,20.9,30.30,WNW,292,0.0,0.0,73,0.00,,,0.00,VWS V14.01,2013-01-08 01:56:00,
2013-01-07 20:57:00,28.5,20.9,30.30,South,180,0.0,0.0,73,0.00,,,0.00,VWS V14.01,2013-01-08 01:57:00,
2013-01-07 20:58:00,27.9,20.4,30.30,NNW,338,1.6,1.6,73,0.00,,,0.00,VWS V14.01,2013-01-08 01:58:00,
2013-01-07 20:59:00,28.1,19.9,30.30,SSE,158,2.5,2.9,71,0.00,,,0.00,VWS V14.01,2013-01-08 01:59:00,
2013-01-07 21:00:00,27.9,19.8,30.30,WSW,248,1.3,2.9,71,0.00,,,0.00,VWS V14.01,2013-01-08 02:00:00,
2013-01-07 21:01:00,28.1,20.3,30.30,WSW,248,1.1,1.3,72,0.00,,,0.00,VWS V14.01,2013-01-08 02:01:00,
2013-01-07 21:02:00,27.9,20.4,30.30,NNW,338,1.6,1.6,73,0.00,,,0.00,VWS V14.01,2013-01-08 02:02:00,
2013-01-07 21:03:00,27.9,20.4,30.30,SSW,202,0.0,2.2,73,0.00,,,0.00,VWS V14.01,2013-01-08 02:03:00,
2013-01-07 21:04:00,27.9,20.4,30.30,NNW,338,0.9,1.6,73,0.00,,,0.00,VWS V14.01,2013-01-08 02:04:00,
2013-01-07 21:05:00,27.9,20.4,30.30,NE,45,0.0,0.9,73,0.00,,,0.00,VWS V14.01,2013-01-08 02:05:00,
2013-01-07 21:06:00,27.9,20.4,30.30,SE,135,2.2,2.7,73,0.00,,,0.00,VWS V14.01,2013-01-08 02:06:00,
2013-01-07 21:07:00,27.9,20.4,30.30,SSW,202,0.0,2.2,73,0.00,,,0.00,VWS V14.01,2013-01-08 02:07:00,
2013-01-07 21:08:00,27.4,19.9,30.30,SE,135,0.0,0.0,73,0.00,,,0.00,VWS V14.01,2013-01-08 02:08:00,
2013-01-07 21:09:00,27.4,19.6,30.30,SSW,202,0.0,0.0,72,0.00,,,0.00,VWS V14.01,2013-01-08 02:09:00,
2013-01-07 21:10:00,27.6,20.1,30.30,SSW,202,0.0,0.0,73,0.00,,,0.00,VWS V14.01,2013-01-08 02:10:00,
2013-01-07 21:11:00,27.4,19.9,30.30,SE,135,0.0,0.0,73,0.00,,,0.00,VWS V14.01,2013-01-08 02:11:00,
2013-01-07 21:12:00,27.4,19.9,30.30,SE,135,0.0,0.0,73,0.00,,,0.00,VWS V14.01,2013-01-08 02:12:00,
2013-01-07 21:13:00,27.4,19.9,30.30,SSE,158,0.0,1.1,73,0.00,,,0.00,VWS V14.01,2013-01-08 02:13:00,
2013-01-07 21:14:00,27.4,19.9,30.30,WNW,292,1.6,1.6,73,0.00,,,0.00,VWS V14.01,2013-01-08 02:14:00,
2013-01-07 21:15:00,27.4,19.9,30.30,WNW,292,2.2,2.5,73,0.00,,,0.00,VWS V14.01,2013-01-08 02:15:00,
2013-01-07 21:16:00,27.4,19.9,30.30,West,270,1.1,2.2,73,0.00,,,0.00,VWS V14.01,2013-01-08 02:16:00,
2013-01-07 21:17:00,27.4,19.9,30.30,SSE,158,0.0,1.1,73,0.00,,,0.00,VWS V14.01,2013-01-08 02:17:00,
2013-01-07 21:18:00,27.0,19.9,30.30,SW,225,0.0,0.0,74,0.00,,,0.00,VWS V14.01,2013-01-08 02:18:00,
2013-01-07 21:19:00,27.4,19.9,30.30,SE,135,1.1,2.0,73,0.00,,,0.00,VWS V14.01,2013-01-08 02:19:00,
2013-01-07 21:20:00,26.9,19.4,30.30,South,180,2.7,2.7,73,0.00,,,0.00,VWS V14.01,2013-01-08 02:20:00,
2013-01-07 21:21:00,26.9,19.7,30.30,South,180,0.0,2.9,74,0.00,,,0.00,VWS V14.01,2013-01-08 02:21:00,
2013-01-07 21:22:00,27.0,19.9,30.30,SW,225,0.0,0.0,74,0.00,,,0.00,VWS V14.01,2013-01-08 02:22:00,
2013-01-07 21:23:00,26.9,20.3,30.30,SE,135,2.7,2.7,76,0.00,,,0.00,VWS V14.01,2013-01-08 02:23:00,
2013-01-07 21:24:00,27.0,20.2,30.30,WNW,292,1.6,2.5,75,0.00,,,0.00,VWS V14.01,2013-01-08 02:24:00,
2013-01-07 21:25:00,27.0,20.2,30.30,WNW,292,1.1,1.6,75,0.00,,,0.00,VWS V14.01,2013-01-08 02:25:00,
2013-01-07 21:26:00,27.0,20.2,30.30,SE,135,0.0,1.1,75,0.00,,,0.00,VWS V14.01,2013-01-08 02:26:00,
2013-01-07 21:27:00,26.9,20.3,30.30,SE,135,2.7,2.7,76,0.00,,,0.00,VWS V14.01,2013-01-08 02:27:00,
2013-01-07 21:28:00,26.9,20.0,30.30,SW,225,0.0,0.0,75,0.00,,,0.00,VWS V14.01,2013-01-08 02:28:00,
2013-01-07 21:29:00,26.5,19.4,30.30,SE,135,0.0,2.0,74,0.00,,,0.00,VWS V14.01,2013-01-08 02:29:00,
2013-01-07 21:30:00,26.5,19.0,30.30,SSW,202,0.0,0.0,73,0.00,,,0.00,VWS V14.01,2013-01-08 02:30:00,
2013-01-07 21:31:00,26.7,19.2,30.30,SW,225,0.0,0.0,73,0.00,,,0.00,VWS V14.01,2013-01-08 02:31:00,
2013-01-07 21:32:00,27.0,20.8,30.30,SW,225,0.0,0.0,77,0.00,,,0.00,VWS V14.01,2013-01-08 02:32:00,
2013-01-07 21:33:00,27.4,21.5,30.30,NE,45,0.0,1.3,78,0.00,,,0.00,VWS V14.01,2013-01-08 02:33:00,
2013-01-07 21:34:00,27.4,21.5,30.30,NNW,338,0.0,0.0,78,0.00,,,0.00,VWS V14.01,2013-01-08 02:34:00,
2013-01-07 21:35:00,27.4,21.5,30.30,NE,45,1.6,1.6,78,0.00,,,0.00,VWS V14.01,2013-01-08 02:35:00,
2013-01-07 21:36:00,27.4,21.5,30.30,NE,45,1.3,1.6,78,0.00,,,0.00,VWS V14.01,2013-01-08 02:36:00,
2013-01-07 21:37:00,27.4,21.5,30.30,NE,45,0.0,1.3,78,0.00,,,0.00,VWS V14.01,2013-01-08 02:37:00,
2013-01-07 21:38:00,27.2,21.6,30.30,WNW,292,1.1,2.5,79,0.00,,,0.00,VWS V14.01,2013-01-08 02:38:00,
2013-01-07 21:39:00,26.9,20.6,30.30,WNW,292,0.0,0.0,77,0.00,,,0.00,VWS V14.01,2013-01-08 02:39:00,
2013-01-07 21:40:00,27.2,21.3,30.30,WNW,292,2.7,2.7,78,0.00,,,0.00,VWS V14.01,2013-01-08 02:40:00,
2013-01-07 21:41:00,27.6,21.6,30.30,WNW,292,2.5,2.9,78,0.00,,,0.00,VWS V14.01,2013-01-08 02:41:00,
2013-01-07 21:42:00,27.2,21.6,30.30,NW,315,1.1,2.5,79,0.00,,,0.00,VWS V14.01,2013-01-08 02:42:00,
2013-01-07 21:43:00,26.5,20.3,30.30,SE,135,1.6,2.5,77,0.00,,,0.00,VWS V14.01,2013-01-08 02:43:00,
2013-01-07 21:44:00,27.2,21.6,30.30,WNW,292,2.2,2.2,79,0.00,,,0.00,VWS V14.01,2013-01-08 02:44:00,
2013-01-07 21:45:00,27.2,21.6,30.30,ESE,112,2.9,2.9,79,0.00,,,0.00,VWS V14.01,2013-01-08 02:45:00,
2013-01-07 21:46:00,27.2,21.6,30.30,SSE,158,2.5,2.9,79,0.00,,,0.00,VWS V14.01,2013-01-08 02:46:00,
2013-01-07 21:47:00,26.3,19.8,30.30,SE,135,1.6,2.5,76,0.00,,,0.00,VWS V14.01,2013-01-08 02:47:00,
2013-01-07 21:48:00,26.5,20.0,30.30,South,180,0.0,0.0,76,0.00,,,0.00,VWS V14.01,2013-01-08 02:48:00,
2013-01-07 21:49:00,26.3,19.5,30.30,WSW,248,2.0,2.0,75,0.00,,,0.00,VWS V14.01,2013-01-08 02:49:00,
2013-01-07 21:50:00,26.5,19.7,30.30,South,180,1.6,2.0,75,0.00,,,0.00,VWS V14.01,2013-01-08 02:50:00,
2013-01-07 21:51:00,26.5,20.0,30.30,South,180,0.0,1.6,76,0.00,,,0.00,VWS V14.01,2013-01-08 02:51:00,
2013-01-07 21:52:00,26.5,20.0,30.30,South,180,0.0,0.0,76,0.00,,,0.00,VWS V14.01,2013-01-08 02:52:00,
2013-01-07 21:53:00,27.0,21.4,30.30,SW,225,1.3,1.6,79,0.00,,,0.00,VWS V14.01,2013-01-08 02:53:00,
2013-01-07 21:54:00,26.5,20.3,30.30,SSE,158,2.2,2.2,77,0.00,,,0.00,VWS V14.01,2013-01-08 02:54:00,
2013-01-07 21:55:00,25.4,18.9,30.30,SE,135,0.0,2.5,76,0.00,,,0.00,VWS V14.01,2013-01-08 02:55:00,
2013-01-07 21:56:00,26.5,20.3,30.30,SSW,202,1.3,2.9,77,0.00,,,0.00,VWS V14.01,2013-01-08 02:56:00,
2013-01-07 21:57:00,27.0,21.4,30.30,SW,225,1.3,1.6,79,0.00,,,0.00,VWS V14.01,2013-01-08 02:57:00,
2013-01-07 21:58:00,26.5,20.6,30.30,SSW,202,1.1,1.1,78,0.00,,,0.00,VWS V14.01,2013-01-08 02:58:00,
2013-01-07 21:59:00,26.7,21.1,30.30,SE,135,2.5,3.1,79,0.00,,,0.00,VWS V14.01,2013-01-08 02:59:00,
2013-01-07 22:00:00,26.5,20.6,30.30,SSE,158,1.1,2.5,78,0.00,,,0.00,VWS V14.01,2013-01-08 03:00:00,
2013-01-07 22:01:00,26.5,20.6,30.30,SSW,202,0.0,1.1,78,0.00,,,0.00,VWS V14.01,2013-01-08 03:01:00,
2013-01-07 22:02:00,26.5,20.6,30.30,SSW,202,1.1,1.1,78,0.00,,,0.00,VWS V14.01,2013-01-08 03:02:00,
2013-01-07 22:03:00,26.5,20.6,30.30,ESE,112,3.4,3.4,78,0.00,,,0.00,VWS V14.01,2013-01-08 03:03:00,
2013-01-07 22:04:00,26.9,21.2,30.30,West,270,0.0,2.0,79,0.00,,,0.00,VWS V14.01,2013-01-08 03:04:00,
2013-01-07 22:05:00,26.9,21.2,30.30,NNE,22,2.2,2.2,79,0.00,,,0.00,VWS V14.01,2013-01-08 03:05:00,
2013-01-07 22:06:00,26.9,21.2,30.30,SSE,158,1.3,2.2,79,0.00,,,0.00,VWS V14.01,2013-01-08 03:06:00,
2013-01-07 22:07:00,26.5,20.6,30.30,ESE,112,2.5,3.4,78,0.00,,,0.00,VWS V14.01,2013-01-08 03:07:00,
2013-01-07 22:08:00,27.2,21.3,30.30,NNE,22,2.0,2.7,78,0.00,,,0.00,VWS V14.01,2013-01-08 03:08:00,
2013-01-07 22:09:00,26.5,20.3,30.30,West,270,2.7,2.7,77,0.00,,,0.00,VWS V14.01,2013-01-08 03:09:00,
2013-01-07 22:10:00,27.2,21.3,30.30,WSW,248,2.9,3.4,78,0.00,,,0.00,VWS V14.01,2013-01-08 03:10:00,
2013-01-07 22:11:00,27.2,21.3,30.30,WSW,248,2.7,2.9,78,0.00,,,0.00,VWS V14.01,2013-01-08 03:11:00,
2013-01-07 22:12:00,27.2,21.3,30.30,NNE,22,2.0,2.7,78,0.00,,,0.00,VWS V14.01,2013-01-08 03:12:00,
2013-01-07 22:13:00,26.9,20.6,30.30,SSW,202,1.3,2.5,77,0.00,,,0.00,VWS V14.01,2013-01-08 03:13:00,
2013-01-07 22:14:00,27.2,21.3,30.30,NNE,22,0.0,1.1,78,0.00,,,0.00,VWS V14.01,2013-01-08 03:14:00,
2013-01-07 22:15:00,27.2,21.3,30.30,WSW,248,0.0,0.0,78,0.00,,,0.00,VWS V14.01,2013-01-08 03:15:00,
2013-01-07 22:16:00,26.9,20.6,30.30,SSW,202,1.6,1.6,77,0.00,,,0.00,VWS V14.01,2013-01-08 03:16:00,
2013-01-07 22:17:00,26.9,20.6,30.30,SSW,202,1.3,2.5,77,0.00,,,0.00,VWS V14.01,2013-01-08 03:17:00,
2013-01-07 22:18:00,27.0,20.5,30.30,ESE,112,1.6,2.0,76,0.00,,,0.00,VWS V14.01,2013-01-08 03:18:00,
2013-01-07 22:19:00,27.0,20.5,30.30,WNW,292,1.3,2.5,76,0.00,,,0.00,VWS V14.01,2013-01-08 03:19:00,
2013-01-07 22:20:00,27.0,20.5,30.30,WNW,292,1.3,1.3,76,0.00,,,0.00,VWS V14.01,2013-01-08 03:20:00,
2013-01-07 22:21:00,27.0,20.5,30.30,ESE,112,0.0,1.3,76,0.00,,,0.00,VWS V14.01,2013-01-08 03:21:00,
2013-01-07 22:22:00,27.0,20.5,30.30,ESE,112,1.6,2.0,76,0.00,,,0.00,VWS V14.01,2013-01-08 03:22:00,
2013-01-07 22:23:00,26.1,18.7,30.30,SE,135,1.3,2.7,73,0.00,,,0.00,VWS V14.01,2013-01-08 03:23:00,
2013-01-07 22:24:00,26.7,19.5,30.30,NNW,338,0.0,0.0,74,0.00,,,0.00,VWS V14.01,2013-01-08 03:24:00,
2013-01-07 22:25:00,26.5,19.0,30.30,SE,135,0.0,0.0,73,0.00,,,0.00,VWS V14.01,2013-01-08 03:25:00,
2013-01-07 22:26:00,26.3,18.9,30.30,SE,135,0.0,0.0,73,0.00,,,0.00,VWS V14.01,2013-01-08 03:26:00,
2013-01-07 22:27:00,26.1,18.7,30.30,SE,135,0.0,2.7,73,0.00,,,0.00,VWS V14.01,2013-01-08 03:27:00,
2013-01-07 22:28:00,26.1,18.7,30.30,South,180,0.0,0.0,73,0.00,,,0.00,VWS V14.01,2013-01-08 03:28:00,
2013-01-07 22:29:00,24.7,19.4,30.30,SE,135,0.9,1.6,80,0.00,,,0.00,VWS V14.01,2013-01-08 03:29:00,
2013-01-07 22:30:00,26.1,18.4,30.30,South,180,0.0,0.0,72,0.00,,,0.00,VWS V14.01,2013-01-08 03:30:00,
2013-01-07 22:31:00,26.1,18.7,30.30,South,180,0.0,0.0,73,0.00,,,0.00,VWS V14.01,2013-01-08 03:31:00,
2013-01-07 22:32:00,26.1,18.7,30.30,South,180,0.0,0.0,73,0.00,,,0.00,VWS V14.01,2013-01-08 03:32:00,
2013-01-07 22:33:00,26.1,19.6,30.30,WSW,248,1.6,1.6,76,0.00,,,0.00,VWS V14.01,2013-01-08 03:33:00,
2013-01-07 22:34:00,26.3,19.5,30.30,South,180,0.0,0.0,75,0.00,,,0.00,VWS V14.01,2013-01-08 03:34:00,
2013-01-07 22:35:00,26.1,19.3,30.30,South,180,1.6,1.6,75,0.00,,,0.00,VWS V14.01,2013-01-08 03:35:00,
2013-01-07 22:36:00,26.1,19.6,30.30,WSW,248,1.6,2.2,76,0.00,,,0.00,VWS V14.01,2013-01-08 03:36:00,
2013-01-07 22:37:00,26.1,19.6,30.30,WSW,248,1.6,1.6,76,0.00,,,0.00,VWS V14.01,2013-01-08 03:37:00,
2013-01-07 22:38:00,26.3,20.4,30.30,WNW,292,1.6,1.6,78,0.00,,,0.00,VWS V14.01,2013-01-08 03:38:00,
2013-01-07 22:39:00,26.7,20.8,30.30,NNE,22,0.9,1.6,78,0.00,,,0.00,VWS V14.01,2013-01-08 03:39:00,
2013-01-07 22:40:00,26.5,20.6,30.30,NE,45,1.1,1.3,78,0.00,,,0.00,VWS V14.01,2013-01-08 03:40:00,
2013-01-07 22:41:00,26.3,20.4,30.30,WNW,292,0.0,1.1,78,0.00,,,0.00,VWS V14.01,2013-01-08 03:41:00,
2013-01-07 22:42:00,26.3,20.4,30.30,West,270,1.6,1.6,78,0.00,,,0.00,VWS V14.01,2013-01-08 03:42:00,
2013-01-07 22:43:00,26.0,19.8,30.30,NE,45,0.0,0.0,77,0.00,,,0.00,VWS V14.01,2013-01-08 03:43:00,
2013-01-07 22:44:00,26.3,20.1,30.30,NNW,338,0.0,0.9,77,0.00,,,0.00,VWS V14.01,2013-01-08 03:44:00,
2013-01-07 22:45:00,26.3,20.1,30.30,NNE,22,0.0,0.0,77,0.00,,,0.00,VWS V14.01,2013-01-08 03:45:00,
2013-01-07 22:46:00,26.1,19.9,30.30,NE,45,0.0,0.0,77,0.00,,,0.00,VWS V14.01,2013-01-08 03:46:00,
2013-01-07 22:47:00,26.0,19.8,30.30,NE,45,0.0,0.0,77,0.00,,,0.00,VWS V14.01,2013-01-08 03:47:00,
2013-01-07 22:48:00,25.8,19.6,30.30,South,180,0.0,0.0,77,0.00,,,0.00,VWS V14.01,2013-01-08 03:48:00,
2013-01-07 22:49:00,26.1,19.9,30.30,NE,45,0.0,0.0,77,0.00,,,0.00,VWS V14.01,2013-01-08 03:49:00,
2013-01-07 22:50:00,26.1,19.9,30.30,WSW,248,0.0,0.0,77,0.00,,,0.00,VWS V14.01,2013-01-08 03:50:00,
2013-01-07 22:51:00,26.1,19.9,30.30,SSW,202,0.0,0.0,77,0.00,,,0.00,VWS V14.01,2013-01-08 03:51:00,
2013-01-07 22:52:00,25.8,19.6,30.30,South,180,0.0,0.0,77,0.00,,,0.00,VWS V14.01,2013-01-08 03:52:00,
2013-01-07 22:53:00,25.4,18.9,30.30,WNW,292,1.6,1.6,76,0.00,,,0.00,VWS V14.01,2013-01-08 03:53:00,
2013-01-07 22:54:00,25.6,19.4,30.30,SSE,158,2.0,2.9,77,0.00,,,0.00,VWS V14.01,2013-01-08 03:54:00,
2013-01-07 22:55:00,25.4,18.9,30.30,SE,135,0.0,2.5,76,0.00,,,0.00,VWS V14.01,2013-01-08 03:55:00,
2013-01-07 22:56:00,25.4,18.9,30.30,SE,135,1.6,1.6,76,0.00,,,0.00,VWS V14.01,2013-01-08 03:56:00,
2013-01-07 22:57:00,25.4,18.9,30.30,NNW,338,0.0,1.6,76,0.00,,,0.00,VWS V14.01,2013-01-08 03:57:00,
2013-01-07 22:58:00,25.2,19.0,30.30,SSE,158,3.1,3.6,77,0.00,,,0.00,VWS V14.01,2013-01-08 03:58:00,
2013-01-07 22:59:00,25.6,19.4,30.30,NNW,338,0.0,0.0,77,0.00,,,0.00,VWS V14.01,2013-01-08 03:59:00,
2013-01-07 23:00:00,25.6,19.4,30.30,WSW,248,0.0,0.0,77,0.00,,,0.00,VWS V14.01,2013-01-08 04:00:00,
2013-01-07 23:01:00,25.4,19.2,30.30,South,180,0.0,0.0,77,0.00,,,0.00,VWS V14.01,2013-01-08 04:01:00,
2013-01-07 23:02:00,25.2,19.0,30.30,SSE,158,2.7,3.6,77,0.00,,,0.00,VWS V14.01,2013-01-08 04:02:00,
2013-01-07 23:03:00,25.2,19.4,30.30,NNW,338,2.0,2.5,78,0.00,,,0.00,VWS V14.01,2013-01-08 04:03:00,
2013-01-07 23:04:00,25.2,19.0,30.30,WNW,292,1.1,1.1,77,0.00,,,0.00,VWS V14.01,2013-01-08 04:04:00,
2013-01-07 23:05:00,25.2,19.4,30.30,WNW,292,0.9,1.3,78,0.00,,,0.00,VWS V14.01,2013-01-08 04:05:00,
2013-01-07 23:06:00,25.2,19.4,30.30,NW,315,0.9,0.9,78,0.00,,,0.00,VWS V14.01,2013-01-08 04:06:00,
2013-01-07 23:07:00,25.1,19.8,30.27,WSW,248,2.7,2.7,80,0.00,,,0.00,VWS V14.01,2013-01-08 04:07:00,
2013-01-07 23:08:00,25.1,19.2,30.30,SSW,202,0.0,0.0,78,0.00,,,0.00,VWS V14.01,2013-01-08 04:08:00,
2013-01-07 23:09:00,25.2,19.4,30.30,WNW,292,0.9,0.9,78,0.00,,,0.00,VWS V14.01,2013-01-08 04:09:00,
2013-01-07 23:10:00,25.2,19.4,30.30,SSW,202,1.3,1.3,78,0.00,,,0.00,VWS V14.01,2013-01-08 04:10:00,
2013-01-07 23:11:00,25.1,19.2,30.30,SSW,202,0.0,1.3,78,0.00,,,0.00,VWS V14.01,2013-01-08 04:11:00,
2013-01-07 23:12:00,25.1,19.2,30.30,SSW,202,0.0,0.0,78,0.00,,,0.00,VWS V14.01,2013-01-08 04:12:00,
2013-01-07 23:13:00,25.1,19.5,30.30,SW,225,0.0,0.0,79,0.00,,,0.00,VWS V14.01,2013-01-08 04:13:00,
2013-01-07 23:14:00,25.1,19.5,30.30,SW,225,0.9,2.2,79,0.00,,,0.00,VWS V14.01,2013-01-08 04:14:00,
2013-01-07 23:15:00,25.1,19.5,30.30,SW,225,0.0,0.9,79,0.00,,,0.00,VWS V14.01,2013-01-08 04:15:00,
2013-01-07 23:16:00,25.1,19.5,30.30,SW,225,0.0,0.0,79,0.00,,,0.00,VWS V14.01,2013-01-08 04:16:00,
2013-01-07 23:17:00,25.1,19.5,30.30,SW,225,0.0,0.0,79,0.00,,,0.00,VWS V14.01,2013-01-08 04:17:00,
2013-01-07 23:18:00,25.2,20.2,30.30,WNW,292,2.5,2.5,81,0.00,,,0.00,VWS V14.01,2013-01-08 04:18:00,
2013-01-07 23:19:00,25.6,20.6,30.30,West,270,0.0,0.0,81,0.00,,,0.00,VWS V14.01,2013-01-08 04:19:00,
2013-01-07 23:20:00,25.4,20.4,30.30,NNE,22,1.6,1.6,81,0.00,,,0.00,VWS V14.01,2013-01-08 04:20:00,
2013-01-07 23:21:00,25.2,20.2,30.30,NNW,338,2.0,2.0,81,0.00,,,0.00,VWS V14.01,2013-01-08 04:21:00,
2013-01-07 23:22:00,25.2,20.2,30.30,North,0,2.2,2.5,81,0.00,,,0.00,VWS V14.01,2013-01-08 04:22:00,
2013-01-07 23:23:00,24.9,19.6,30.30,WSW,248,2.7,3.4,80,0.00,,,0.00,VWS V14.01,2013-01-08 04:23:00,
2013-01-07 23:24:00,25.2,20.2,30.30,NE,45,0.0,2.2,81,0.00,,,0.00,VWS V14.01,2013-01-08 04:24:00,
2013-01-07 23:25:00,25.1,19.8,30.30,SE,135,0.0,0.0,80,0.00,,,0.00,VWS V14.01,2013-01-08 04:25:00,
2013-01-07 23:26:00,24.9,19.6,30.30,WNW,292,2.5,2.5,80,0.00,,,0.00,VWS V14.01,2013-01-08 04:26:00,
2013-01-07 23:27:00,24.9,19.6,30.30,WSW,248,2.0,3.4,80,0.00,,,0.00,VWS V14.01,2013-01-08 04:27:00,
2013-01-07 23:28:00,24.7,19.1,30.30,SW,225,2.0,2.2,79,0.00,,,0.00,VWS V14.01,2013-01-08 04:28:00,
2013-01-07 23:29:00,24.7,19.4,30.30,SE,135,0.9,1.6,80,0.00,,,0.00,VWS V14.01,2013-01-08 04:29:00,
2013-01-07 23:30:00,24.7,19.1,30.30,South,180,2.2,2.2,79,0.00,,,0.00,VWS V14.01,2013-01-08 04:30:00,
2013-01-07 23:31:00,24.7,19.1,30.30,South,180,2.2,2.2,79,0.00,,,0.00,VWS V14.01,2013-01-08 04:31:00,
2013-01-07 23:32:00,24.7,19.1,30.30,SW,225,0.9,2.2,79,0.00,,,0.00,VWS V14.01,2013-01-08 04:32:00,
2013-01-07 23:33:00,25.1,20.1,30.30,NW,315,2.2,2.7,81,0.00,,,0.00,VWS V14.01,2013-01-08 04:33:00,
2013-01-07 23:34:00,24.7,19.1,30.30,West,270,3.1,3.1,79,0.00,,,0.00,VWS V14.01,2013-01-08 04:34:00,
2013-01-07 23:35:00,25.1,20.1,30.30,WNW,292,2.2,3.6,81,0.00,,,0.00,VWS V14.01,2013-01-08 04:35:00,
2013-01-07 23:36:00,25.1,20.1,30.30,WNW,292,2.2,2.2,81,0.00,,,0.00,VWS V14.01,2013-01-08 04:36:00,
2013-01-07 23:37:00,25.1,20.1,30.30,NW,315,2.2,2.7,81,0.00,,,0.00,VWS V14.01,2013-01-08 04:37:00,
2013-01-07 23:38:00,25.1,20.1,30.30,WSW,248,0.0,0.0,81,0.00,,,0.00,VWS V14.01,2013-01-08 04:38:00,
2013-01-07 23:39:00,25.1,20.1,30.30,East,90,2.0,2.2,81,0.00,,,0.00,VWS V14.01,2013-01-08 04:39:00,
2013-01-07 23:40:00,25.1,20.1,30.30,SSE,158,1.3,2.5,81,0.00,,,0.00,VWS V14.01,2013-01-08 04:40:00,
2013-01-07 23:41:00,25.1,20.1,30.30,WSW,248,0.0,1.3,81,0.00,,,0.00,VWS V14.01,2013-01-08 04:41:00,
2013-01-07 23:42:00,25.1,20.1,30.30,WSW,248,0.0,0.0,81,0.00,,,0.00,VWS V14.01,2013-01-08 04:42:00,
2013-01-07 23:43:00,24.9,19.6,30.27,WSW,248,2.0,2.0,80,0.00,,,0.00,VWS V14.01,2013-01-08 04:43:00,
2013-01-07 23:44:00,24.5,19.5,30.30,SE,135,2.7,4.0,81,0.00,,,0.00,VWS V14.01,2013-01-08 04:44:00,
2013-01-07 23:45:00,25.1,20.1,30.30,ESE,112,2.0,3.1,81,0.00,,,0.00,VWS V14.01,2013-01-08 04:45:00,
2013-01-07 23:46:00,24.9,19.9,30.30,WSW,248,2.0,3.1,81,0.00,,,0.00,VWS V14.01,2013-01-08 04:46:00,
2013-01-07 23:47:00,24.9,19.6,30.27,WSW,248,2.0,2.0,80,0.00,,,0.00,VWS V14.01,2013-01-08 04:47:00,
2013-01-07 23:48:00,25.1,20.1,30.27,SE,135,2.5,2.9,81,0.00,,,0.00,VWS V14.01,2013-01-08 04:48:00,
2013-01-07 23:49:00,24.9,19.6,30.27,WSW,248,1.6,1.6,80,0.00,,,0.00,VWS V14.01,2013-01-08 04:49:00,
2013-01-07 23:50:00,24.9,19.6,30.27,WSW,248,1.6,1.6,80,0.00,,,0.00,VWS V14.01,2013-01-08 04:50:00,
2013-01-07 23:51:00,25.6,20.6,30.27,SW,225,2.5,2.5,81,0.00,,,0.00,VWS V14.01,2013-01-08 04:51:00,
2013-01-07 23:52:00,25.1,20.1,30.27,SSE,158,1.6,2.9,81,0.00,,,0.00,VWS V14.01,2013-01-08 04:52:00,
2013-01-07 23:53:00,25.6,20.6,30.27,WNW,292,4.3,4.3,81,0.00,,,0.00,VWS V14.01,2013-01-08 04:53:00,
2013-01-07 23:54:00,25.1,20.1,30.27,WNW,292,2.2,2.7,81,0.00,,,0.00,VWS V14.01,2013-01-08 04:54:00,
2013-01-07 23:55:00,25.1,20.1,30.27,WNW,292,3.4,3.4,81,0.00,,,0.00,VWS V14.01,2013-01-08 04:55:00,
2013-01-07 23:56:00,25.6,20.6,30.27,WNW,292,3.4,3.4,81,0.00,,,0.00,VWS V14.01,2013-01-08 04:56:00,
2013-01-07 23:57:00,25.4,20.4,30.27,WNW,292,2.9,4.3,81,0.00,,,0.00,VWS V14.01,2013-01-08 04:57:00,
2013-01-07 23:58:00,25.1,19.8,30.27,South,180,0.0,1.6,80,0.00,,,0.00,VWS V14.01,2013-01-08 04:58:00,
2013-01-07 23:59:00,25.2,20.2,30.27,SE,135,1.6,1.6,81,0.00,,,0.00,VWS V14.01,2013-01-08 04:59:00,